[[[{"header":{"parameterUnit":"kt","parameterCategory":2,"dx":1,"dy":1,"la1":29.285339999999998,"la2":30.599998999999997,"lo1":-89.70041500000002,"lo2":-87.6738589999976,"nx":112,"ny":82,"refTime":"2022-10-22T00:00:00:Z","depth":0,"parameterNumber":1,"parameterNumberName":"U-component_of_WINDS"},"data":[-7.5213,-7.697,0.0,-6.6378,-6.4426,0.0,-5.2322,0.0,-4.8612,0.0,0.0,0.0,0.0,0.0,0.0,0.0,0.0,0.0,0.0,0.0,0.0,0.0,0.0,0.0,0.0,0.0,0.0,0.0,0.0,0.0,0.0,0.0,-8.6731,-8.6731,-8.8879,-9.0001,-9.0001,-9.0001,-9.0001,-9.005,-9.1124,-9.1807,-9.2198,-9.3223,-9.4345,-9.537,-9.4028,-9.123,-8.7394,-8.4261,-8.0153,-7.5883,-7.4707,-7.3843,-7.3274,-7.2438,-7.2287,-7.2438,-7.1907,-7.1186,-7.0464,-7.0464,-7.0274,-7.0009,-7.0009,-7.0009,-7.0085,-7.0388,-7.0236,-7.0085,-7.0388,-7.0236,-7.0009,-7.0009,-7.0009,-7.0009,-7.0009,-7.0009,-7.0009,-7.0009,-7.0009,-7.0009,-7.0009,-7.0009,-7.0009,-7.0009,-7.0009,-7.0009,-7.0009,-7.0009,-7.0009,-7.0009,-7.0009,-7.0009,-7.0009,-7.0009,-7.0009,-7.0009,-7.0009,-7.0009,-7.0009,-7.0009,-7.0009,-7.0009,-6.5017,-6.1283,-5.8917,-5.383,-5.0266,-4.7889,-4.7889,-4.7889,0.0,0.0,-7.0137,-5.896,0.0,0.0,0.0,0.0,0.0,0.0,0.0,0.0,0.0,0.0,0.0,0.0,0.0,0.0,0.0,0.0,0.0,0.0,0.0,0.0,0.0,0.0,0.0,0.0,0.0,0.0,0.0,-8.5901,-8.7854,-8.7854,-8.9269,-9.0001,-9.0001,-9.0001,-9.0001,-9.005,-9.0733,-9.1152,-9.1542,-9.2295,-9.3223,-9.4248,-9.4248,-9.2013,-8.8106,-8.6312,-8.2089,-7.6588,-7.5399,-7.4032,-7.24,-7.1565,-7.1451,-7.1603,-7.1034,-7.0502,-7.0009,-7.0009,-7.0009,-7.0009,-7.0009,-7.0009,-7.0009,-7.0009,-7.0009,-7.0009,-7.0009,-7.0009,-7.0009,-7.0009,-7.0009,-7.0009,-7.0009,-7.0009,-7.0009,-7.0009,-7.0009,-7.0009,-7.0009,-7.0009,-7.0009,-7.0009,-7.0009,-7.0009,-7.0009,-7.0009,-7.0009,-7.0009,-7.0009,-7.0009,-7.0009,-7.0009,-7.0009,-7.0009,-7.0009,-7.0009,-7.0009,-7.0009,-7.0009,-7.0009,-6.6397,-6.336,-6.0873,-5.5929,-5.2225,-4.9696,-4.8436,-4.7889,0.0,0.0,0.0,-4.9589,0.0,0.0,0.0,0.0,-4.2609,0.0,0.0,0.0,0.0,0.0,0.0,0.0,0.0,0.0,0.0,0.0,0.0,0.0,0.0,0.0,0.0,0.0,0.0,0.0,0.0,0.0,-8.6243,-8.883,-9.0001,-9.0001,-9.0001,-9.0001,-9.0001,-9.0001,-9.0001,-9.0001,-9.0001,-9.0587,-9.1444,-9.1444,-9.21,-9.3076,-9.3076,-9.2955,-9.2761,-8.9303,-8.5778,-8.2406,-7.8831,-7.5444,-7.2461,-7.1662,-7.073,-7.0009,-7.0009,-7.0009,-7.0009,-7.0009,-7.0009,-7.0009,-7.0009,-7.0009,-7.0009,-7.0009,-7.0009,-7.0009,-7.0009,-7.0009,-7.0009,-7.0009,-7.0009,-7.0009,-7.0009,-7.0009,-7.0009,-7.0009,-7.0009,-7.0009,-7.0009,-7.0009,-7.0009,-7.0009,-7.0009,-7.0009,-7.0009,-7.0009,-7.0009,-7.0009,-7.0009,-7.0009,-7.0009,-7.0009,-7.0009,-7.0009,-7.0009,-7.0009,-7.0009,-7.0009,-7.0009,-7.0009,-6.6568,-6.4613,-6.4342,-5.7182,-5.3466,-5.3184,-4.9553,-4.7889,-5.3835,0.0,0.0,0.0,0.0,0.0,0.0,0.0,0.0,0.0,0.0,0.0,0.0,0.0,0.0,0.0,0.0,0.0,0.0,0.0,0.0,0.0,0.0,0.0,0.0,0.0,0.0,0.0,0.0,-8.0728,-8.761,-8.9269,-9.0001,-9.0001,-9.0001,-9.0001,-9.0001,-9.0001,-9.0001,-9.0001,-9.0001,-9.0197,-9.0441,-9.0441,-9.1026,-9.2051,-9.2051,-9.0944,-8.9132,-8.7643,-8.4911,-8.1324,-7.7878,-7.5678,-7.3976,-7.1317,-7.0198,-7.0009,-7.0009,-7.0009,-7.0009,-7.0009,-7.0009,-7.0009,-7.0009,-7.0009,-7.0009,-7.0009,-7.0009,-7.0009,-7.0009,-7.0009,-7.0009,-7.0009,-7.0009,-7.0009,-7.0009,-7.0009,-7.0009,-7.0009,-7.0009,-7.0009,-7.0009,-7.0009,-7.0009,-7.0009,-7.0009,-7.0009,-7.0009,-7.0009,-7.0009,-7.0009,-7.0009,-7.0009,-7.0009,-7.0009,-7.0009,-7.0009,-7.0009,-7.0009,-7.0009,-7.0009,-7.0009,-7.0009,-6.9043,-6.586,-6.0429,-5.8365,-5.4671,-4.9294,-4.8319,-4.7889,0.0,0.0,0.0,0.0,0.0,0.0,-4.1682,0.0,-3.8949,0.0,0.0,0.0,0.0,0.0,0.0,0.0,0.0,0.0,0.0,0.0,0.0,0.0,0.0,0.0,0.0,0.0,0.0,0.0,-8.5706,-8.3852,-8.883,-8.966,-9.0001,-9.0001,-9.0001,-9.0001,-9.0001,-9.0001,-9.0001,-9.0001,-9.0001,-9.0001,-9.0001,-9.0001,-9.0343,-9.0929,-9.0929,-9.003,-8.877,-8.8324,-8.6006,-8.2462,-7.9061,-7.6764,-7.4682,-7.1288,-7.0009,-7.0009,-7.0009,-7.0009,-7.0009,-7.0009,-7.0009,-7.0009,-7.0009,-7.0009,-7.0009,-7.0009,-7.0009,-7.0009,-7.0009,-7.0009,-7.0009,-7.0009,-7.0009,-7.0009,-7.0009,-7.0009,-7.0009,-7.0009,-7.0009,-7.0009,-7.0009,-7.0009,-7.0009,-7.0009,-7.0009,-7.0009,-7.0009,-7.0009,-7.0009,-7.0009,-7.0009,-7.0009,-7.0009,-7.0009,-7.0009,-7.0009,-7.0009,-7.0009,-7.0009,-7.0009,-7.0009,-7.0009,-7.0009,-6.7103,-6.1283,-5.9605,-5.5061,-4.7889,-4.7889,-4.7889,0.0,0.0,0.0,0.0,-4.4464,0.0,0.0,0.0,-4.1926,-3.9873,0.0,0.0,0.0,0.0,0.0,0.0,0.0,0.0,0.0,0.0,0.0,0.0,0.0,0.0,0.0,-8.2973,-8.6292,-9.2832,-8.7903,-8.6243,-9.0001,-9.0099,-9.0001,-9.0001,-9.0001,-9.0001,-9.0001,-9.0001,-9.0001,-9.0001,-9.0001,-9.0001,-9.0001,-9.0001,-9.0001,-9.0001,-9.0001,-9.0001,-9.0001,-9.0001,-8.802,-8.4597,-8.1415,-7.8042,-7.4682,-7.1288,-7.0009,-7.0009,-7.0009,-7.0009,-7.0009,-7.0009,-7.0009,-7.0009,-7.0009,-7.0009,-7.0009,-7.0009,-7.0009,-7.0009,-7.0009,-7.0009,-7.0009,-7.0009,-7.0009,-7.0009,-7.0009,-7.0009,-7.0009,-7.0009,-7.0009,-7.0009,-7.0009,-7.0009,-7.0009,-7.0009,-7.0009,-7.0009,-7.0009,-7.0009,-7.0009,-7.0009,-7.0009,-7.0009,-7.0009,-7.0009,-7.0009,-7.0009,-7.0009,-7.0009,-7.0009,-7.0009,-7.0009,-7.0009,-7.0009,-6.7941,-6.3902,-6.0566,-5.5061,-4.7889,-4.7889,-4.7889,0.0,0.0,0.0,0.0,0.0,-4.134,0.0,0.0,0.0,0.0,0.0,0.0,0.0,0.0,0.0,0.0,0.0,0.0,0.0,0.0,0.0,0.0,0.0,0.0,-9.21,-9.2979,-9.3857,-9.4443,-9.2491,-9.127,-9.1319,-9.0489,-9.0001,-9.0001,-9.0001,-9.0001,-9.0001,-9.0001,-9.0001,-9.0001,-9.0001,-9.0001,-9.0001,-9.0001,-9.0001,-9.0001,-9.0001,-9.0001,-9.0001,-9.0001,-8.802,-8.4597,-8.1415,-7.8042,-7.4682,-7.1288,-7.0009,-7.0009,-7.0009,-7.0009,-7.0009,-7.0009,-7.0009,-7.0009,-7.0009,-7.0009,-7.0009,-7.0009,-7.0009,-7.0009,-7.0009,-7.0009,-7.0009,-7.0009,-7.0009,-7.0009,-7.0009,-7.0009,-7.0009,-7.0009,-7.0009,-7.0009,-7.0009,-7.0009,-7.0009,-7.0009,-7.0009,-7.0009,-7.0009,-7.0009,-7.0009,-7.0009,-7.0009,-7.0009,-7.0009,-7.0009,-7.0009,-7.0009,-7.0009,-7.0009,-7.0009,-7.0009,-7.0009,-7.0009,-7.0009,-6.6666,-6.0017,-5.9193,-5.5061,-4.7889,-4.7889,-4.7889,0.0,0.0,0.0,-3.8704,0.0,0.0,0.0,-4.2658,-4.6026,-5.2517,-5.4274,-5.5641,-5.8862,-6.0375,-6.0912,-6.0375,-6.6622,-7.2089,-7.37,-8.3217,0.0,0.0,0.0,0.0,-9.5614,-9.6102,-9.62,-9.5663,-9.4052,-9.2442,-9.088,-9.0294,-9.0001,-9.0001,-9.0001,-9.0001,-9.0001,-9.0001,-9.0001,-9.0001,-9.0001,-9.0001,-9.0001,-9.0001,-9.0001,-9.0001,-9.0001,-9.0001,-9.0001,-9.0001,-8.802,-8.4597,-8.1415,-7.8042,-7.4682,-7.1288,-7.0009,-7.0009,-7.0009,-7.0009,-7.0009,-7.0009,-7.0009,-7.0009,-7.0009,-7.0009,-7.0009,-7.0009,-7.0009,-7.0009,-7.0009,-7.0009,-7.0009,-7.0009,-7.0009,-7.0009,-7.0009,-7.0009,-7.0009,-7.0009,-7.0009,-7.0009,-7.0009,-7.0009,-7.0009,-7.0009,-7.0009,-7.0009,-7.0009,-7.0009,-7.0009,-7.0009,-7.0009,-7.0009,-7.0009,-7.0009,-7.0009,-7.0009,-7.0009,-7.0009,-7.0009,-7.0009,-7.0009,-7.0009,-6.8208,-6.4442,-5.8917,-5.8917,-5.5061,-4.7889,-4.7889,-4.7889,0.0,0.0,0.0,0.0,0.0,0.0,-3.8657,-4.154,-4.6134,0.0,-5.5348,-5.8374,-6.4036,-6.672,-6.7745,-6.6867,-7.2723,-7.9459,-8.5267,-8.9464,-9.1612,-9.0733,-9.4052,-9.6395,-9.6395,-9.6395,-9.6395,-9.6395,-9.4345,-9.2198,-9.0148,-9.0001,-9.0001,-9.0001,-9.0001,-9.0001,-9.0001,-9.0001,-9.0001,-9.0001,-9.0001,-9.0001,-9.0001,-9.0001,-9.0001,-9.0001,-9.0001,-9.0001,-9.0001,-9.0001,-8.802,-8.4764,-8.2032,-7.8546,-7.4682,-7.1905,-7.0537,-7.0009,-7.0009,-7.0009,-7.0009,-7.0009,-7.0009,-7.0009,-7.0009,-7.0009,-7.0009,-7.0009,-7.0009,-7.0009,-7.0009,-7.0009,-7.0009,-7.0009,-7.0009,-7.0009,-7.0009,-7.0009,-7.0009,-7.0009,-7.0009,-7.0009,-7.0009,-7.0009,-7.0009,-7.0009,-7.0009,-7.0009,-7.0009,-7.0009,-7.0009,-7.0009,-7.0009,-7.0009,-7.0009,-7.0009,-7.0009,-7.0009,-7.0009,-7.0009,-7.0009,-7.0009,-7.0009,-7.0009,-6.7103,-6.336,-5.8917,-5.9605,-5.6177,-4.8865,-4.8865,-4.8579,0.0,0.0,0.0,0.0,0.0,0.0,-5.2273,-5.7056,-6.1595,0.0,-7.7848,-8.0874,-7.9904,-8.0686,-8.1362,-8.1216,-8.2827,-8.5316,-8.8976,-9.1466,-9.293,-9.2783,-9.4931,-9.6395,-9.6395,-9.6395,-9.6395,-9.6395,-9.4345,-9.2198,-9.0148,-9.0001,-9.0001,-9.0001,-9.0001,-9.0001,-9.0001,-9.0001,-9.0001,-9.0001,-9.0001,-9.0001,-9.0001,-9.0001,-9.0001,-9.0001,-9.0001,-9.0001,-9.0001,-9.0001,-8.802,-8.4885,-8.4522,-8.0504,-7.5027,-7.4682,-7.2519,-7.0009,-7.0009,-7.0009,-7.0009,-7.0009,-7.0009,-7.0009,-7.0009,-7.0009,-7.0009,-7.0009,-7.0009,-7.0009,-7.0009,-7.0009,-7.0009,-7.0009,-7.0009,-7.0009,-7.0009,-7.0009,-7.0009,-7.0009,-7.0009,-7.0009,-7.0009,-7.0009,-7.0009,-7.0009,-7.0009,-7.0009,-7.0009,-7.0009,-7.0009,-7.0009,-7.0009,-7.0009,-7.0009,-7.0009,-7.0009,-7.0009,-7.0009,-7.0009,-7.0009,-7.0009,-7.0009,-7.0009,-6.9611,-6.5959,-5.8917,-6.2238,-6.005,-5.2902,-5.2902,-5.1091,0.0,0.0,0.0,0.0,0.0,0.0,-4.9637,-5.4909,-6.0766,0.0,-7.4773,-7.8727,-8.2348,-8.4242,-8.5609,-8.6292,-8.7268,-8.8439,-8.9806,-9.1319,-9.2491,-9.3076,-9.4492,-9.5712,-9.6346,-9.6395,-9.6395,-9.6395,-9.3223,-9.1466,-9.1807,-9.0685,-9.0001,-9.0001,-9.0001,-9.0001,-9.0001,-9.0001,-9.0001,-9.0001,-9.0001,-9.0001,-9.0001,-9.0001,-9.0001,-9.0001,-9.0001,-9.0001,-9.0001,-9.0001,-8.9131,-8.7497,-8.3625,-8.0423,-7.7536,-7.3519,-7.1157,-7.0009,-7.0009,-7.0009,-7.0009,-7.0009,-7.0009,-7.0009,-7.0009,-7.0009,-7.0009,-7.0009,-7.0009,-7.0009,-7.0009,-7.0009,-7.0009,-7.0009,-7.0009,-7.0009,-7.0009,-7.0009,-7.0009,-7.0009,-7.0009,-7.0009,-7.0009,-7.0009,-7.0009,-7.0009,-7.0009,-7.0009,-7.0009,-7.0009,-7.0009,-7.0009,-7.0009,-7.0009,-7.0009,-7.0009,-7.0009,-7.0009,-7.0009,-7.0009,-7.0009,-7.0009,-7.0009,-7.0009,-7.0009,-6.7371,-6.2238,-6.3766,-6.2952,-5.9775,-5.5088,-5.0761,-3.2464,0.0,0.0,0.0,0.0,0.0,0.0,0.0,-6.1661,-6.8721,-7.3163,-7.7604,-8.3363,-8.595,-8.7561,-8.8684,-8.9513,-9.0001,-9.0001,-9.0929,-9.1905,-9.2637,-9.3955,-9.5126,-9.5907,-9.6249,-9.6395,0.0,-9.3271,-9.1856,-9.3076,-9.1417,-9.0343,-9.005,-9.0001,-9.0001,-9.0001,-9.0001,-9.0001,-9.0001,-9.0001,-9.0001,-9.0001,-9.0001,-9.0001,-9.0001,-9.0001,-9.0001,-9.0001,-9.0001,-9.0001,-8.9532,-8.4643,-8.1662,-7.955,-7.4553,-7.1512,-7.0009,-7.0009,-7.0009,-7.0009,-7.0009,-7.0009,-7.0009,-7.0009,-7.0009,-7.0009,-7.0009,-7.0009,-7.0009,-7.0009,-7.0009,-7.0009,-7.0009,-7.0009,-7.0009,-7.0009,-7.0009,-7.0009,-7.0009,-7.0009,-7.0009,-7.0009,-7.0009,-7.0009,-7.0009,-7.0009,-7.0009,-7.0009,-7.0009,-7.0009,-7.0009,-7.0009,-7.0009,-7.0009,-7.0009,-7.0009,-7.0009,-7.0009,-7.0009,-7.0009,-7.0009,-7.0009,-7.0009,-7.0009,-6.8645,-6.5995,-6.578,-6.5672,-6.5538,-5.738,-5.1024,0.0,0.0,0.0,0.0,0.0,0.0,-6.3792,0.0,-7.0192,-7.5749,-8.107,-8.5169,-8.6438,-8.761,-8.8732,-8.9806,-9.0001,-9.0001,-9.0001,-9.0929,-9.1542,-9.1542,-9.3515,-9.4833,-9.4833,-9.5809,-9.6395,-9.6395,-9.5321,-9.4199,-9.3174,-9.2149,-9.1075,-9.005,-9.0001,-9.0001,-9.0001,-9.0001,-9.0001,-9.0001,-9.0001,-9.0001,-9.0001,-9.0001,-9.0001,-9.0001,-9.0001,-9.0001,-9.0001,-9.0001,-9.0001,-9.0001,-8.9767,-8.5776,-8.0049,-7.98,-7.5668,-7.0009,-7.0009,-7.0009,-7.0009,-7.0009,-7.0009,-7.0009,-7.0009,-7.0009,-7.0009,-7.0009,-7.0009,-7.0009,-7.0009,-7.0009,-7.0009,-7.0009,-7.0009,-7.0009,-7.0009,-7.0009,-7.0009,-7.0009,-7.0009,-7.0009,-7.0009,-7.0009,-7.0009,-7.0009,-7.0009,-7.0009,-7.0009,-7.0009,-7.0009,-7.0009,-7.0009,-7.0009,-7.0009,-7.0009,-7.0009,-7.0009,-7.0009,-7.0009,-7.0009,-7.0009,-7.0009,-7.0009,-7.0009,-6.9876,-6.9876,-6.9081,-6.8702,-6.8534,-6.0409,-5.2873,-3.89,0.0,0.0,0.0,-5.6763,-5.9448,-6.7745,-7.2138,-7.5359,-7.8629,-8.2387,-8.5462,-8.6536,-8.8244,-8.9611,-8.9953,-9.0001,-9.0001,-9.0001,-9.0343,-9.0831,-9.1444,-9.2832,-9.4004,-9.4736,-9.5761,-9.6395,-9.6395,-9.4101,0.0,-9.3125,-9.0831,-8.966,-9.0001,-9.0001,-9.0001,-9.0001,-9.0001,-9.0001,-9.0001,-9.0001,-9.0001,-9.0001,-9.0001,-9.0001,-9.0001,-9.0001,-9.0001,-9.0001,-9.0001,-9.0001,-8.9532,-8.5173,-8.2032,-7.955,-7.5027,-7.1905,-7.0009,-7.0009,-7.0009,-7.0009,-7.0009,-7.0009,-7.0009,-7.0009,-7.0009,-7.0009,-7.0009,-7.0009,-7.0009,-7.0009,-7.0009,-7.0009,-7.0009,-7.0009,-7.0009,-7.0009,-7.0009,-7.0009,-7.0009,-7.0009,-7.0009,-7.0009,-7.0009,-7.0009,-7.0009,-7.0009,-7.0009,-7.0009,-7.0009,-7.0009,-7.0009,-7.0009,-7.0009,-7.0009,-7.0009,-7.0009,-7.0009,-7.0009,-7.0009,-7.0009,-7.0009,-7.0009,-7.0009,-7.0009,-6.9743,-6.9211,-6.8338,-6.6725,-6.4449,-5.8845,-5.3782,0.0,0.0,0.0,-6.1935,-6.4773,-6.6098,-7.2846,-7.5893,-7.7897,-8.0386,-8.3461,-8.6048,-8.7122,-8.883,-9.0001,-9.0001,-9.0001,-9.0001,-9.0001,-9.0001,-9.0294,-9.0977,-9.2295,-9.3418,-9.415,-9.5565,-9.6395,-9.6395,-9.4492,-9.3271,-9.3125,-9.1222,-9.0099,-9.0001,-9.0001,-9.0001,-9.0001,-9.0001,-9.0001,-9.0001,-9.0001,-9.0001,-9.0001,-9.0001,-9.0001,-9.0001,-9.0001,-9.0001,-9.0001,-9.0001,-9.0001,-8.9415,-8.4036,-8.1168,-7.9425,-7.3778,-7.1026,-7.0009,-7.0009,-7.0009,-7.0009,-7.0009,-7.0009,-7.0009,-7.0009,-7.0009,-7.0009,-7.0009,-7.0009,-7.0009,-7.0009,-7.0009,-7.0009,-7.0009,-7.0009,-7.0009,-7.0009,-7.0009,-7.0009,-7.0009,-7.0009,-7.0009,-7.0009,-7.0009,-7.0009,-7.0009,-7.0009,-7.0009,-7.0009,-7.0009,-7.0009,-7.0009,-7.0009,-7.0009,-7.0009,-7.0009,-7.0009,-7.0009,-7.0009,-7.0009,-7.0009,-7.0009,-7.0009,-7.0009,-6.9743,-6.9173,-6.83,-6.7427,-6.532,-6.1743,-5.7559,-5.438,0.0,-5.0167,0.0,-7.1481,-7.2117,-7.063,0.0,0.0,-7.8491,-8.1615,-8.4681,-8.717,-8.8293,-8.9318,-9.0001,-9.0001,-9.0001,-9.0001,-9.0001,-9.0001,-9.0001,-9.0001,-9.1856,-9.3125,-9.3125,-9.5126,-9.6395,-9.6395,-9.6395,-9.5419,-9.3223,-9.3125,-9.2198,-9.0099,-9.0001,-9.0001,-9.0001,-9.0001,-9.0001,-9.0001,-9.0001,-9.0001,-9.0001,-9.0001,-9.0001,-9.0001,-9.0001,-9.0001,-9.0001,-9.0001,-9.0001,-8.965,-8.6256,-8.3014,-7.9675,-7.6307,-7.291,-7.0009,-7.0009,-7.0009,-7.0009,-7.0009,-7.0009,-7.0009,-7.0009,-7.0009,-7.0009,-7.0009,-7.0009,-7.0009,-7.0009,-7.0009,-7.0009,-7.0009,-7.0009,-7.0009,-7.0009,-7.0009,-7.0009,-7.0009,-7.0009,-7.0009,-7.0009,-7.0009,-7.0009,-7.0009,-7.0009,-7.0009,-7.0009,-7.0009,-7.0009,-7.0009,-7.0009,-7.0009,-7.0009,-7.0009,-7.0009,-7.0009,-7.0009,-7.0009,-7.0009,-7.0009,-7.0009,-6.9971,-6.9097,-6.8224,-6.7389,-6.6554,-6.4342,-6.0936,-5.6863,-5.5034,0.0,0.0,-6.6855,-8.238,-8.3446,-8.1532,0.0,0.0,-8.3973,0.0,-8.6829,-8.8342,-8.9416,-8.9855,-9.0001,-9.0001,-9.0001,-9.0001,-9.0001,-9.0001,-9.0001,-9.0001,-9.1856,-9.3125,-9.3125,-9.5126,-9.6395,-9.6395,-9.6395,-9.5419,-9.3223,-9.3125,-9.2198,-9.0099,-9.0001,-9.0001,-9.0001,-9.0001,-9.0001,-9.0001,-9.0001,-9.0001,-9.0001,-9.0001,-9.0001,-9.0001,-9.0001,-9.0001,-9.0001,-9.0001,-9.0001,-8.965,-8.6256,-8.3014,-7.9675,-7.6307,-7.291,-7.0009,-7.0009,-7.0009,-7.0009,-7.0009,-7.0009,-7.0009,-7.0009,-7.0009,-7.0009,-7.0009,-7.0009,-7.0009,-7.0009,-7.0009,-7.0009,-7.0009,-7.0009,-7.0009,-7.0009,-7.0009,-7.0009,-7.0009,-7.0009,-7.0009,-7.0009,-7.0009,-7.0009,-7.0009,-7.0009,-7.0009,-7.0009,-7.0009,-7.0009,-7.0009,-7.0009,-7.0009,-7.0009,-7.0009,-7.0009,-7.0009,-7.0009,-7.0009,-7.0009,-7.0009,-6.9743,-6.9135,-6.7655,-6.6782,-6.6554,-6.5681,-6.3492,-6.013,-5.9039,-5.7294,-5.4107,-6.2806,-7.222,0.0,-8.6766,-8.4869,-9.057,-8.843,-8.5974,-8.8825,-8.978,-8.9975,-8.9403,-8.9708,-9.0001,-9.0001,-9.0001,-9.0001,-9.0001,-9.0001,-9.0001,-9.0001,-9.1856,-9.3125,-9.3125,-9.5126,-9.6395,-9.6395,-9.6395,-9.5663,-9.3955,-9.3369,-9.2393,-9.0782,-9.0245,-9.0001,-9.0001,-9.0001,-9.0001,-9.0001,-9.0001,-9.0001,-9.0001,-9.0001,-9.0001,-9.0001,-9.0001,-9.0001,-9.0001,-9.0001,-9.0001,-8.965,-8.6256,-8.3014,-7.9675,-7.6307,-7.291,-7.0141,-7.1643,-7.2167,-7.2167,-7.2167,-7.2167,-7.1905,-7.0405,-7.0009,-7.0009,-7.0009,-7.0009,-7.0009,-7.0009,-7.0009,-7.0009,-7.0009,-7.0009,-7.0009,-7.0009,-7.0009,-7.0009,-7.0009,-7.0009,-7.0009,-7.0009,-7.0009,-7.0009,-7.0009,-7.0009,-7.0009,-7.0009,-7.0009,-7.0009,-7.0009,-7.0009,-7.0009,-7.0009,-7.0009,-7.0009,-7.0009,-6.9667,-6.9477,-6.9477,-6.9097,-6.868,-6.8224,-6.6895,-6.606,-6.5681,-6.5187,-6.316,-5.9814,-5.9814,-5.8809,-5.0109,-6.0351,-7.383,0.0,-8.7078,-8.5665,0.0,0.0,-8.7152,0.0,-9.1625,-9.0939,-8.88,-8.9318,-9.0001,-9.0001,-9.0001,-9.0001,-9.0001,-9.0001,-9.0001,-9.0001,-9.171,-9.293,-9.293,-9.4882,-9.62,-9.62,-9.6346,-9.5956,-9.4882,-9.3711,-9.2637,-9.1542,-9.0587,-9.0001,-9.0001,-9.0001,-9.0001,-9.0001,-9.0001,-9.0001,-9.0001,-9.0001,-9.0001,-9.0001,-9.0001,-9.0001,-9.0001,-9.0001,-9.0001,-8.9767,-8.6735,-8.3381,-7.9675,-7.6775,-7.3519,-7.1026,-7.4037,-7.5284,-7.5668,-7.5668,-7.5412,-7.4553,-7.1512,-7.0631,-7.0499,-7.0141,-7.0273,-7.0537,-7.0141,-7.0009,-7.0009,-7.0009,-7.0009,-7.0009,-7.0009,-7.0009,-7.0009,-7.0009,-7.0009,-7.0009,-7.0009,-7.0009,-7.0009,-7.0009,-7.0009,-7.0009,-7.0009,-7.0009,-7.0009,-7.0009,-7.0009,-6.9971,-6.9857,-6.9857,-6.9819,-6.9667,-6.9022,-6.8604,-6.8604,-6.7883,-6.7351,-6.7123,-6.644,-6.5718,-6.4959,-6.4959,-6.3407,-6.0601,-6.0601,-6.0601,-5.8218,-6.8145,-7.8489,-8.9259,-9.4186,0.0,-8.8105,-9.0936,-9.3376,-8.7672,-8.7124,-8.7834,-8.8359,-8.9318,-9.0001,-9.0001,-9.0001,-9.0001,-9.0001,-9.0001,-9.0001,-9.0001,-9.1124,-9.1905,-9.1905,-9.3808,-9.5077,-9.5077,-9.5907,-9.5956,-9.4882,-9.3711,-9.2637,-9.1542,-9.0587,-9.0001,-9.0001,-9.0001,-9.0001,-9.0001,-9.0001,-9.0001,-9.0001,-9.0001,-9.0001,-9.0001,-9.0001,-9.0001,-9.0001,-9.0001,-9.0001,-8.9884,-8.9415,-8.5414,-8.0049,-7.9425,-7.7029,-7.4295,-7.477,-7.6902,-7.9174,-7.9174,-7.7283,-7.4899,-7.4295,-7.4166,-7.3519,-7.0762,-7.2036,-7.3519,-7.0631,-7.0009,-7.0009,-7.0009,-7.0009,-7.0009,-7.0009,-7.0009,-7.0009,-7.0009,-7.0009,-7.0009,-7.0009,-7.0009,-7.0009,-7.0009,-7.0009,-7.0009,-7.0009,-7.0009,-7.0009,-7.0009,-7.0009,-6.9743,-6.9059,-6.9022,-6.868,-6.7958,-6.7769,-6.7693,-6.7693,-6.7541,-6.682,-6.5415,-6.5263,-6.5111,-6.4959,-6.4959,-6.4591,-6.4061,-6.4061,-6.4061,-5.7541,-6.5621,-7.3689,-7.9171,-8.4388,-8.8802,-9.078,-9.0883,-8.9702,-8.6915,-8.6312,-8.638,-8.6726,-8.8049,-8.9172,-8.9172,-8.966,-9.0001,-9.0001,-9.0001,-9.0001,-9.0001,-9.0977,-9.1493,-9.1493,-9.3564,-9.4784,-9.4784,-9.5809,-9.5956,-9.4882,-9.3711,-9.2637,-9.1542,-9.0587,-9.0001,-9.0001,-9.0001,-9.0001,-9.0001,-9.0001,-9.0001,-9.0001,-9.0001,-9.0001,-9.0001,-9.0001,-9.0001,-9.0001,-9.0001,-9.0001,-9.0001,-9.0001,-8.5896,-8.0298,-8.2032,-7.9425,-7.554,-7.9006,-8.1247,-8.2647,-8.2647,-8.0423,-7.7283,-7.554,-7.5027,-7.4295,-7.0894,-7.2389,-7.4295,-7.0894,-7.0009,-7.0009,-7.0009,-7.0009,-7.0537,-7.2297,-7.1288,-7.0009,-7.0009,-7.0009,-7.0009,-7.0009,-7.0009,-7.0009,-7.0009,-7.0009,-7.0009,-7.0009,-7.0009,-7.0009,-7.0009,-6.9629,-6.9211,-6.8832,-6.8376,-6.7921,-6.7465,-6.7047,-6.682,-6.682,-6.6402,-6.5794,-6.4997,-6.4959,-6.4959,-6.4959,-6.4959,-6.4959,-6.4959,-6.4959,-6.4959,-5.6726,-6.2768,-6.93,-7.2813,-7.5283,-7.9904,-9.1367,-8.8264,-8.3578,-8.6117,-8.5761,-8.5084,-8.517,-8.6341,-8.761,-8.8293,-8.9123,-8.9757,-9.0001,-9.0001,-9.0001,-9.0001,-9.0782,-9.127,-9.127,-9.2979,-9.4101,-9.4101,-9.5321,-9.5565,-9.4492,-9.3613,-9.2637,-9.1542,-9.0587,-9.0001,-9.0001,-9.0001,-9.0001,-9.0001,-9.0001,-9.0001,-9.0001,-9.0001,-9.0001,-9.0001,-9.0001,-9.0001,-9.0001,-9.0001,-9.0001,-9.0001,-9.0001,-8.6376,-8.1415,-8.399,-8.1618,-7.7916,-8.3137,-8.5368,-8.6016,-8.6016,-8.3381,-7.9675,-7.7789,-7.6648,-7.554,-7.291,-7.4037,-7.5284,-7.1905,-7.0537,-7.0141,-7.0894,-7.1643,-7.2649,-7.4682,-7.291,-7.0894,-7.0141,-7.0009,-7.0009,-7.0009,-7.0009,-7.0009,-7.0009,-7.0009,-7.0009,-7.0009,-7.0009,-6.9971,-6.9781,-6.9173,-6.8642,-6.8262,-6.7579,-6.7123,-6.6933,-6.6326,-6.5946,-6.5946,-6.5339,-6.4959,-6.4959,-6.4959,-6.4959,-6.4959,-6.4959,-6.4959,-6.4959,-6.4959,-6.4959,-6.2183,-6.6828,-7.2579,-8.4182,-8.022,-7.5088,-8.1129,-8.0143,-7.8988,-8.3109,0.0,-8.2904,-8.473,-8.4486,-8.4974,-8.7951,-8.8488,-8.8879,-8.9855,-9.0001,-9.0001,-9.0001,-9.0099,-9.0148,-9.0148,-9.1222,-9.1905,-9.1905,-9.3808,-9.4443,-9.332,-9.3174,-9.2637,-9.1542,-9.0587,-9.0001,-9.0001,-9.0001,-9.0001,-9.0001,-9.0001,-9.0001,-9.0001,-9.0001,-9.0001,-9.0001,-9.0001,-9.0001,-9.0001,-9.0001,-9.0001,-9.0001,-9.0001,-8.7735,-8.4476,-8.4885,-8.4597,-8.4112,-8.4764,-8.7021,-8.9532,-8.9532,-8.5294,-8.0547,-8.3259,-8.2032,-7.955,-7.9299,-7.9425,-7.8797,-7.5412,-7.2297,-7.0762,-7.3778,-7.6902,-7.842,-7.5668,-7.4811,-7.3649,-7.0537,-7.0009,-7.0009,-7.0009,-7.0009,-7.0009,-7.0009,-7.0009,-7.0009,-7.0009,-7.0009,-6.9743,-6.8984,-6.8832,-6.8148,-6.6592,-6.6402,-6.6022,-6.5225,-6.5111,-6.5073,-6.5073,-6.4997,-6.4959,-6.4959,-6.4959,-6.4959,-6.4959,-6.4959,-6.4959,-6.4959,-6.4959,-6.4959,-5.1217,-5.5736,-6.165,-6.9356,-7.2189,-7.3759,-7.6256,-7.7313,-7.8834,0.0,-8.2476,-8.0435,-7.8678,-8.1704,-8.4291,-8.3656,-8.6292,-8.8781,-8.9855,-9.0001,-9.0001,-9.0001,-9.0001,-9.0001,-9.0001,-9.0977,-9.1493,-9.1493,-9.2979,-9.332,-9.2295,-9.2198,-9.171,-9.0685,-9.0245,-9.0001,-9.0001,-9.0001,-9.0001,-9.0001,-9.0001,-9.0001,-9.0001,-9.0001,-9.0001,-9.0001,-9.0001,-9.0001,-9.0001,-9.0001,-9.0001,-9.0001,-9.0001,-8.7901,-8.5247,-8.7259,-8.6735,-8.5247,-8.7259,-8.8896,-9.0001,-9.0001,-8.6902,-8.3259,-8.4522,-8.399,-8.2647,-8.0672,-8.0049,-7.9299,-7.5924,-7.4037,-7.4424,-7.9756,-8.0547,-7.9675,-7.842,-7.6435,-7.4037,-7.0669,-7.0009,-7.0009,-7.0009,-7.0009,-7.0009,-7.0009,-7.0009,-7.0009,-7.0009,-6.9591,-6.9173,-6.8832,-6.7883,-6.6971,-6.6288,-6.5756,-6.5339,-6.4997,-6.4959,-6.4959,-6.4959,-6.4959,-6.4959,-6.4959,-6.4959,-6.4959,-6.4959,-6.4959,-6.4959,-6.4959,-6.4466,-6.4238,-4.4502,-4.8413,-5.3938,-5.9377,-6.4661,-7.0041,-7.5595,-7.5523,0.0,0.0,-8.1091,-7.8483,-7.5408,-7.8922,0.0,-8.0038,-8.4144,-8.7951,-8.9367,-8.9806,-9.0001,-9.0001,-9.0001,-9.0001,-9.0001,-9.0685,-9.1124,-9.1124,-9.21,-9.2246,-9.1222,-9.1347,-9.1124,-9.005,-9.0001,-9.0001,-9.0001,-9.0001,-9.0001,-9.0001,-9.0001,-9.0001,-9.0001,-9.0001,-9.0001,-9.0001,-9.0001,-9.0001,-9.0001,-9.0001,-9.0001,-9.0001,-9.0001,-8.8494,-8.6735,-8.9131,-8.8494,-8.6735,-8.9131,-9.0001,-9.0001,-9.0001,-8.7735,-8.5127,-8.6136,-8.5729,-8.4643,-8.3381,-8.2278,-8.1044,-7.8546,-7.8042,-7.9131,-8.3869,-8.4036,-8.2524,-8.0547,-7.8168,-7.5156,-7.0762,-7.0009,-7.0009,-7.0009,-7.0009,-7.0009,-7.0009,-7.0009,-6.9933,-6.9705,-6.9173,-6.8604,-6.811,-6.6971,-6.6136,-6.587,-6.5301,-6.4959,-6.4959,-6.4959,-6.4959,-6.4959,-6.4959,-6.4959,-6.4959,-6.4959,-6.4959,-6.4959,-6.4731,-6.4617,-6.458,-6.3782,-6.3365,-4.6904,-4.9018,-5.3413,-6.1345,-6.0673,-6.2581,-7.9578,-7.4447,-6.8721,-7.8385,-7.8678,-7.7165,-7.7165,-7.6335,0.0,-7.8434,-8.2387,-8.595,-8.8147,-8.9367,-9.0001,-9.0001,-9.0001,-9.0001,-9.0001,-9.005,-9.005,-9.005,-9.1026,-9.1054,-9.0099,-9.1026,-9.1124,-9.005,-9.0001,-9.0001,-9.0001,-9.0001,-9.0001,-9.0001,-9.0001,-9.0001,-9.0001,-9.0001,-9.0001,-9.0001,-9.0001,-9.0001,-9.0001,-9.0001,-9.0001,-9.0001,-9.0001,-9.0001,-8.9884,-9.0001,-9.0001,-8.9884,-9.0001,-9.0001,-9.0001,-9.0001,-8.7735,-8.5609,-8.8896,-8.7616,-8.5609,-8.9014,-8.7497,-8.4885,-8.4885,-8.4885,-8.4885,-8.4885,-8.7497,-8.8139,-8.1539,-8.0049,-7.8042,-7.125,-7.0009,-7.0009,-7.0009,-7.0009,-7.0009,-7.0009,-7.0009,-6.9743,-6.8908,-6.8794,-6.8148,-6.644,-6.625,-6.587,-6.5035,-6.4959,-6.4959,-6.4959,-6.4959,-6.4959,-6.4959,-6.4959,-6.4959,-6.4959,-6.4959,-6.4959,-6.4959,-6.4162,-6.3744,-6.3744,-6.2909,-6.2647,-4.2371,-4.5684,-5.1509,-6.0994,-5.9995,-6.1053,-7.7468,-7.4375,-7.0731,-8.0047,-7.707,-7.2284,-7.082,0.0,0.0,0.0,-8.2339,-8.5657,-8.7073,-8.8244,-8.8928,-8.8928,-8.9562,-9.0001,-9.0001,-9.0001,-9.0001,-9.0001,-9.0343,-9.0392,-9.005,-9.0343,-9.0392,-9.005,-9.0001,-9.0001,-9.0001,-9.0001,-9.0001,-9.0001,-9.0001,-9.0001,-9.0001,-9.0001,-9.0001,-9.0001,-9.0001,-9.0001,-9.0001,-9.0001,-9.0001,-9.0001,-9.0001,-9.0001,-9.0001,-9.0001,-9.0001,-9.0001,-9.0001,-9.0001,-9.0001,-9.0001,-8.9249,-8.8612,-8.965,-8.9249,-8.8612,-8.965,-8.7497,-8.5489,-8.7735,-8.8375,-8.8375,-8.8375,-8.9249,-8.8778,-8.44,-8.1662,-7.8797,-7.4295,-7.1512,-7.0009,-7.0009,-7.0009,-7.0009,-7.0009,-6.9553,-6.9097,-6.8832,-6.8262,-6.7465,-6.6364,-6.5718,-6.5263,-6.4997,-6.4959,-6.4959,-6.4959,-6.4959,-6.4959,-6.4959,-6.4959,-6.4959,-6.4959,-6.4959,-6.4959,-6.4959,-6.4162,-6.3744,-6.3706,-6.2302,-6.1656,-4.1633,-4.5049,-5.0449,-5.9727,-5.8174,-5.838,-7.3636,-7.0118,-6.6403,-7.6269,-7.3591,0.0,0.0,0.0,-7.7848,-7.7604,-8.1118,-8.4437,-8.5901,-8.7463,-8.8439,-8.8439,-8.9367,-9.0001,-9.0001,-9.0001,-9.0001,-9.0001,-9.0001,-9.0001,-9.0001,-9.0001,-9.0001,-9.0001,-9.0001,-9.0001,-9.0001,-9.0001,-9.0001,-9.0001,-9.0001,-9.0001,-9.0001,-9.0001,-9.0001,-9.0001,-9.0001,-9.0001,-9.0001,-9.0001,-9.0001,-9.0001,-9.0001,-9.0001,-9.0001,-9.0001,-9.0001,-9.0001,-9.0001,-9.0001,-9.0001,-9.0001,-9.0001,-9.0001,-9.0001,-9.0001,-9.0001,-9.0001,-8.8494,-8.7379,-8.9532,-9.0001,-9.0001,-9.0001,-9.0001,-8.9014,-8.5609,-8.3381,-8.092,-7.7536,-7.5284,-7.339,-7.2167,-7.1905,-7.1435,-6.9722,-6.9135,-6.8566,-6.7921,-6.7351,-6.6668,-6.5832,-6.5263,-6.4959,-6.4959,-6.4959,-6.4959,-6.4959,-6.4959,-6.4959,-6.4959,-6.4959,-6.4959,-6.4959,-6.4655,-6.4504,-6.4504,-6.3365,-6.2795,-6.2795,-6.1428,-6.0783,-4.3626,-4.6209,-4.9983,-5.774,-5.5804,-5.5534,-6.9087,-6.3144,-5.7691,-6.8077,0.0,0.0,0.0,-7.2479,-7.3748,-7.5408,-7.9171,-8.2543,-8.4388,-8.6487,-8.7854,-8.7951,-8.8976,-8.9708,-8.9757,-8.9904,-9.0001,-9.0001,-9.0001,-9.0001,-9.0001,-9.0001,-9.0001,-9.0001,-9.0001,-9.0001,-9.0001,-9.0001,-8.9836,-8.9407,-8.9836,-8.9836,-8.9524,-8.9836,-9.0001,-9.0001,-8.9621,-8.9621,-9.0001,-8.9621,-8.9621,-9.0001,-9.0001,-9.0001,-9.0001,-9.0001,-9.0001,-9.0001,-9.0001,-9.0001,-9.0001,-9.0001,-9.0001,-9.0001,-9.0001,-9.0001,-9.0001,-9.0001,-9.0001,-9.0001,-9.0001,-9.0001,-9.0001,-9.0001,-9.0001,-8.9131,-8.6016,-8.5127,-8.399,-8.1044,-8.0298,-7.9049,-7.5668,-7.4986,-7.3546,-6.9389,-6.8718,-6.8034,-6.644,-6.6174,-6.5832,-6.5035,-6.4959,-6.4959,-6.4959,-6.4959,-6.4959,-6.4959,-6.4959,-6.4959,-6.4959,-6.4959,-6.4959,-6.4883,-6.4124,-6.3706,-6.3668,-6.2036,-6.1277,-6.1239,-6.0441,-6.0062,-3.9827,-4.3439,-4.8758,-5.6219,-5.7231,-5.9255,-7.0063,-6.3912,-5.7421,0.0,0.0,0.0,0.0,-6.5793,0.0,-7.5652,-7.8288,-7.9654,-8.0191,-8.1411,-8.2534,-8.3472,-8.5121,-8.6585,-8.7415,-8.9025,-9.0001,-9.0001,-9.0001,-9.0001,-9.0001,-9.0001,-9.0001,-9.0001,-9.0001,-9.0001,-9.0001,-9.0001,-8.8028,-8.4215,-8.8076,-8.8028,-8.4378,-8.8241,-9.0001,-8.9787,-8.5903,-8.6374,-8.9621,-8.5855,-8.6491,-9.0001,-9.0001,-9.0001,-9.0001,-9.0001,-9.0001,-9.0001,-9.0001,-9.0001,-9.0001,-9.0001,-9.0001,-9.0001,-9.0001,-9.0001,-9.0001,-9.0001,-9.0001,-9.0001,-9.0001,-9.0001,-9.0001,-9.0001,-9.0001,-8.9767,-8.9014,-8.6735,-8.4718,-8.399,-8.1786,-7.9049,-7.5668,-7.4456,-7.2823,-6.9313,-6.7655,-6.6706,-6.6288,-6.5681,-6.5187,-6.4997,-6.4959,-6.4959,-6.4959,-6.4959,-6.4959,-6.4959,-6.4959,-6.4959,-6.4959,-6.4959,-6.4655,-6.4048,-6.3858,-6.3441,-6.2833,-6.177,-6.1277,-6.1239,-6.0441,-6.0062,-4.0315,-4.4317,-4.8685,-5.0909,-5.2137,-5.4342,-6.0384,0.0,0.0,0.0,0.0,0.0,0.0,0.0,-6.5842,-7.0478,0.0,-7.5603,-7.7067,-7.9898,-8.1655,-8.1265,-8.4877,-8.7024,-8.6097,-8.8439,-9.0001,-9.0001,-9.0001,-9.0001,-9.0001,-9.0001,-9.0001,-9.0001,-9.0001,-9.0001,-9.0001,-9.0001,-8.7437,-8.249,-8.7601,-8.7341,-8.2536,-8.765,-9.0001,-8.9836,-8.7128,-8.7437,-8.9787,-8.7011,-8.7601,-9.0001,-9.0001,-9.0001,-9.0001,-9.0001,-9.0001,-9.0001,-9.0001,-9.0001,-9.0001,-9.0001,-9.0001,-9.0001,-9.0001,-9.0001,-9.0001,-9.0001,-9.0001,-9.0001,-9.0001,-9.0001,-9.0001,-9.0001,-9.0001,-9.0001,-9.0001,-8.8494,-8.7259,-8.7259,-8.5896,-8.3367,-7.9563,-7.8424,-7.6713,-7.262,-6.9955,-6.8255,-6.7823,-6.6047,-6.4959,-6.4959,-6.4959,-6.4959,-6.4959,-6.4959,-6.4959,-6.4959,-6.4959,-6.4807,-6.4428,-6.439,-6.401,-6.3213,-6.2795,-6.2378,-6.196,-6.1125,-6.0707,-6.0707,-6.0251,-6.0062,-4.1931,-4.6026,-4.8856,-4.6275,-4.6389,-4.7587,-4.9436,0.0,0.0,0.0,0.0,0.0,0.0,-6.1839,-6.2815,0.0,0.0,-7.082,0.0,0.0,-8.1997,-8.0428,-8.5365,-8.7903,-8.5609,-8.8195,-9.0001,-9.0001,-9.0001,-9.0001,-9.0001,-9.0001,-9.0001,-9.0001,-9.0001,-9.0001,-9.0001,-9.0001,-8.7437,-8.249,-8.7601,-8.7341,-8.2536,-8.765,-9.0001,-9.0001,-8.9193,-8.931,-9.0001,-8.9144,-8.9358,-9.0001,-9.0001,-9.0001,-9.0001,-9.0001,-9.0001,-9.0001,-9.0001,-9.0001,-9.0001,-9.0001,-9.0001,-9.0001,-9.0001,-9.0001,-9.0001,-9.0001,-9.0001,-9.0001,-9.0001,-9.0001,-9.0001,-9.0001,-9.0001,-9.0001,-9.0001,-9.0001,-9.0001,-9.0001,-8.9904,-8.8365,-8.414,-8.3085,-8.1241,-7.6354,-7.2796,-7.0419,-6.9683,-6.6835,-6.4959,-6.4959,-6.4959,-6.4959,-6.4959,-6.4959,-6.4959,-6.4959,-6.4959,-6.4617,-6.3782,-6.3744,-6.3289,-6.234,-6.1618,-6.1201,-6.1087,-6.0365,-6.0062,-6.0062,-6.0062,-6.0062,-3.9399,-4.378,-4.8968,-5.106,-5.0426,-5.0068,-5.2963,0.0,0.0,0.0,0.0,0.0,0.0,-5.4128,0.0,0.0,0.0,0.0,-7.1943,-7.5847,-7.8678,-8.0087,-8.1997,-8.4047,-8.6292,-8.8635,-9.0001,-9.0001,-9.0001,-9.0001,-9.0001,-9.0001,-9.0001,-9.0001,-9.0001,-9.0001,-9.0001,-9.0001,-8.7437,-8.249,-8.7601,-8.7341,-8.2536,-8.765,-9.0001,-8.9787,-8.5433,-8.6067,-8.9621,-8.5385,-8.6115,-9.0001,-9.0001,-9.0001,-9.0001,-9.0001,-9.0001,-9.0001,-9.0001,-9.0001,-9.0001,-9.0001,-9.0001,-9.0001,-9.0001,-9.0001,-9.0001,-9.0001,-9.0001,-9.0001,-9.0001,-9.0001,-9.0001,-9.0001,-9.0001,-9.0001,-9.0001,-9.0001,-9.0001,-9.0001,-8.9269,-8.7497,-8.4001,-8.2048,-7.9716,-7.6135,-7.2329,-6.9764,-6.9601,-6.6835,-6.4959,-6.4959,-6.4959,-6.4959,-6.4959,-6.4959,-6.4959,-6.4959,-6.4959,-6.4617,-6.3782,-6.3744,-6.3023,-6.1466,-6.1352,-6.0935,-6.0251,-6.01,-6.0062,-6.0062,-6.0062,-6.0062,-4.1206,-4.4758,-4.8192,-4.7789,-4.788,-4.8276,-4.9064,0.0,0.0,0.0,0.0,0.0,0.0,-5.195,-5.3444,-5.5201,-5.8569,0.0,0.0,0.0,-7.9264,-8.0135,-8.39,-8.6194,-8.5901,-8.8391,-9.0001,-9.0001,-9.0001,-9.0001,-9.0001,-9.0001,-9.0001,-9.0001,-9.0001,-9.0001,-9.0001,-9.0001,-8.7437,-8.249,-8.7601,-8.5903,-7.8729,-8.6491,-8.8503,-8.5903,-8.6327,-8.7814,-8.9836,-8.7437,-8.7863,-9.0001,-9.0001,-9.0001,-9.0001,-9.0001,-9.0001,-9.0001,-9.0001,-9.0001,-9.0001,-9.0001,-9.0001,-9.0001,-9.0001,-9.0001,-9.0001,-9.0001,-9.0001,-9.0001,-9.0001,-9.0001,-9.0001,-9.0001,-9.0001,-9.0001,-9.0001,-9.0001,-8.9855,-8.9269,-8.8781,-8.7542,-8.48,-8.3523,-8.233,-8.0302,-7.6867,-7.4025,-7.2278,-6.9363,-6.6835,-6.5082,-6.4959,-6.4959,-6.4959,-6.4959,-6.4959,-6.4959,-6.4542,-6.4124,-6.3744,-6.2871,-6.2036,-6.1277,-6.0821,-6.0403,-6.0062,-6.0062,-6.0062,-6.0062,-6.0062,-6.0062,-4.6655,0.0,-5.1226,-4.8941,-4.8659,-4.8612,0.0,-4.7087,-4.7099,0.0,0.0,0.0,-4.9751,-5.0582,-5.1901,-5.4323,-5.7203,-6.0619,-6.4914,-7.2333,0.0,-7.9068,-8.4486,-8.7415,-8.5706,-8.8244,-9.0001,-9.0001,-9.0001,-9.0001,-9.0001,-9.0001,-9.0001,-9.0001,-9.0001,-9.0001,-9.0001,-9.0001,-8.8028,-8.4215,-8.8076,-8.5316,-7.706,-8.5951,-8.7224,-8.2746,-8.7814,-9.0001,-9.0001,-9.0001,-9.0001,-9.0001,-9.0001,-9.0001,-9.0001,-9.0001,-9.0001,-9.0001,-9.0001,-9.0001,-9.0001,-9.0001,-9.0001,-9.0001,-9.0001,-9.0001,-9.0001,-9.0001,-9.0001,-9.0001,-9.0001,-9.0001,-9.0001,-9.0001,-9.0001,-9.0001,-9.0001,-9.0001,-8.9708,-8.8635,-8.8195,-8.7415,-8.5462,-8.4925,-8.4486,-8.3656,-8.0892,-7.7732,-7.4647,-7.1497,-6.8445,-6.5327,-6.4959,-6.4959,-6.4959,-6.4959,-6.4883,-6.4693,-6.4086,-6.3554,-6.3175,-6.1922,-6.1163,-6.0973,-6.0365,-6.0062,-6.0062,-6.0062,-6.0062,-6.0062,-6.0062,-6.0062,0.0,-6.0342,-6.1945,-6.2852,-5.9173,-5.5178,-5.4177,-5.0955,0.0,-4.5527,-4.6746,-4.7623,-4.5722,-4.788,-4.993,-5.0174,-5.4616,-5.9497,0.0,-6.672,0.0,0.0,-7.9904,-8.3608,-8.6341,-8.8684,-9.0001,-9.0001,-9.0001,-9.0001,-9.0001,-9.0001,-9.0001,-9.0001,-9.0001,-9.0001,-9.0001,-9.0001,-8.9836,-8.9407,-8.9836,-8.7176,-8.2119,-8.7601,-8.7224,-8.2746,-8.7814,-9.0001,-9.0001,-9.0001,-9.0001,-9.0001,-9.0001,-9.0001,-9.0001,-9.0001,-9.0001,-9.0001,-9.0001,-9.0001,-9.0001,-9.0001,-9.0001,-9.0001,-9.0001,-9.0001,-9.0001,-9.0001,-9.0001,-9.0001,-9.0001,-9.0001,-9.0001,-9.0001,-9.0001,-9.0001,-9.0001,-9.0001,-8.9708,-8.8635,-8.7561,-8.6487,-8.5316,-8.4291,-8.3608,-8.3559,-8.0892,-7.7732,-7.4647,-7.1497,-6.8445,-6.5327,-6.4959,-6.4959,-6.4959,-6.4959,-6.4655,-6.3896,-6.3782,-6.3061,-6.1504,-6.1314,-6.0897,-6.0138,-6.0062,-6.0062,-6.0062,-6.0062,-6.0062,-6.0062,-6.0062,-6.0062,0.0,-6.1229,-6.4251,-6.1934,-6.0289,-5.8228,-5.4469,-5.2371,-5.0028,-4.5771,-4.5576,-4.6112,-4.6026,-4.7002,-4.9149,-5.3152,-5.6129,0.0,0.0,0.0,0.0,-7.7897,-8.351,-8.7463,-8.8684,-8.8293,-8.8537,-8.9904,-8.8732,-8.8586,-8.9953,-9.0001,-9.0001,-9.0001,-9.0001,-9.0001,-9.0001,-9.0001,-9.0001,-9.0001,-9.0001,-8.7341,-8.2536,-8.765,-8.7224,-8.2746,-8.7814,-8.9269,0.0,-8.9464,-8.922,-8.8098,-8.9464,-9.0001,-9.0001,-9.0001,-9.0001,-9.0001,-9.0001,-9.0001,-9.0001,-9.0001,-9.0001,-9.0001,-9.0001,-9.0001,-9.0001,-9.0001,-9.0001,-9.0001,-9.0001,-9.0001,-9.0001,-9.0001,-9.0001,-9.0001,-9.0001,-8.9513,-8.8684,-8.761,-8.6487,-8.5413,-8.434,-8.3803,-8.3559,-8.3559,-8.259,-8.0624,-7.7506,-7.6096,-7.4141,-7.1025,-6.9045,-6.8565,-7.0552,-7.0173,-6.9718,-6.9345,-6.6467,-6.455,-6.3875,-6.1736,-6.0365,-6.0062,-6.0062,-6.0062,-6.0062,-6.0062,-6.0062,-6.0062,-6.0062,-5.9758,-6.1357,-6.5196,-6.8879,-6.5466,-6.3829,-6.1644,-5.6324,0.0,-5.1931,-4.6112,-4.4893,-4.5235,-4.6465,-4.6904,-4.9149,-5.5178,0.0,0.0,0.0,0.0,0.0,-7.8727,-8.3559,-8.6975,-8.8342,-8.8049,-8.8391,-8.9904,-8.8635,-8.8439,-8.9953,-9.0001,-9.0001,-9.0001,-9.0001,-9.0001,-9.0001,-9.0001,-9.0001,-9.0001,-9.0001,-8.7341,-8.2536,-8.765,-8.7224,-8.2746,-8.7814,-8.8781,-8.6926,-8.9123,-8.8732,-8.6975,-8.9172,-9.0001,-9.0001,-9.0001,-9.0001,-9.0001,-9.0001,-9.0001,-9.0001,-9.0001,-9.0001,-9.0001,-9.0001,-9.0001,-9.0001,-9.0001,-9.0001,-9.0001,-9.0001,-9.0001,-9.0001,-9.0001,-9.0001,-8.9904,-8.9562,-8.8928,-8.8,-8.6536,-8.5657,-8.4828,-8.3705,-8.3559,-8.3559,-8.3559,-8.3559,-8.2481,-7.9352,-7.8904,-7.7732,-7.4647,-7.232,-7.215,-7.5011,-7.3711,-7.2375,-7.1768,-6.7836,-6.5368,-6.5195,-6.1838,-6.0062,-6.0062,-6.0062,-6.0062,-6.0062,-6.0062,-6.0062,-6.0024,-5.9758,-5.915,-7.0592,-7.412,-7.7203,-7.5908,-7.1454,-6.6048,0.0,0.0,-5.281,-4.6258,-4.4942,-4.5283,-4.6465,-4.7539,-4.9963,0.0,0.0,0.0,-6.8144,-7.0137,-7.2431,0.0,-7.819,-8.0484,-8.473,-8.8098,-9.0001,-9.0001,-9.0001,-9.0001,-9.0001,-9.0001,-9.0001,-9.0001,-9.0001,-9.0001,-9.0001,-9.0001,-9.0001,-9.0001,-9.0001,-8.7389,-8.2699,-8.765,-8.7224,-8.2746,-8.7814,-8.8781,-8.6878,-8.9123,-8.8732,-8.6926,-8.9172,-9.0001,-9.0001,-9.0001,-9.0001,-9.0001,-9.0001,-9.0001,-9.0001,-9.0001,-9.0001,-9.0001,-9.0001,-9.0001,-9.0001,-9.0001,-9.0001,-9.0001,-9.0001,-9.0001,-9.0001,-9.0001,-9.0001,-8.9708,-8.8635,-8.8391,-8.7756,-8.556,-8.5121,-8.4779,-8.3705,-8.3559,-8.3559,-8.3559,-8.3559,-8.2481,-7.9352,-7.8904,-7.7732,-7.4647,-7.43,-7.517,-7.7251,-7.4556,-7.1923,-7.001,-6.7126,-6.5195,-6.4448,-6.1639,-6.0062,-6.0062,-6.0062,-6.0062,-6.0062,-6.0062,-6.0062,-6.0024,-5.9112,-5.8239,-6.7518,-7.0607,-7.4618,-7.2704,-7.0928,-6.794,0.0,0.0,-5.4909,-4.7636,-4.6123,-4.6465,-4.7587,-4.9247,-5.2029,0.0,0.0,-6.4865,-7.0527,-7.3602,-7.7165,0.0,0.0,-8.4047,-8.6048,-8.7122,-8.7707,-8.7707,-8.7707,-8.8391,-8.9953,-9.0001,-9.0001,-9.0001,-9.0001,-9.0001,-9.0001,-9.0001,-9.0001,-9.0001,-9.0001,-8.9193,-8.7814,-8.9358,-8.9193,-8.7814,-8.9358,-8.7903,-8.4779,-8.8488,-8.7805,-8.4877,-8.8586,-9.0001,-9.0001,-9.0001,-9.0001,-9.0001,-9.0001,-9.0001,-9.0001,-9.0001,-9.0001,-9.0001,-9.0001,-9.0001,-9.0001,-9.0001,-9.0001,-9.0001,-9.0001,-9.0001,-9.0001,-9.0001,-9.0001,-8.9708,-8.8635,-8.7805,-8.6829,-8.5413,-8.4535,-8.39,-8.3608,-8.3559,-8.3559,-8.3559,-8.3559,-8.3293,-8.2371,-8.2262,-8.1823,-8.0892,-8.023,-7.9988,-8.0615,-7.8325,-7.6658,-7.6149,-7.0777,-6.7606,-6.7307,-6.2606,-6.0062,-6.0062,-6.0062,-6.0062,-6.0062,-6.0062,-5.972,-5.9075,-5.8809,-5.8239,-6.799,-7.0391,-7.3595,-7.1265,-7.0765,-6.9006,-6.2279,0.0,-5.5982,-4.9296,-4.7246,-4.7392,-4.9735,-5.1541,-5.4736,0.0,0.0,0.0,-7.3358,-7.6677,-8.0093,-8.4584,-8.5511,0.0,0.0,-8.7268,-8.7122,-8.8,-8.8049,-8.8635,-8.9953,-9.0001,-9.0001,-9.0001,-9.0001,-9.0001,-9.0001,-9.0001,-9.0001,-9.0001,-9.0001,-9.0001,-9.0001,-9.0001,-9.0001,-9.0001,-9.0001,-8.8049,-8.5072,-8.8586,-8.7951,-8.5169,-8.8635,-9.0001,-9.0001,-9.0001,-9.0001,-9.0001,-9.0001,-9.0001,-9.0001,-9.0001,-9.0001,-9.0001,-9.0001,-9.0001,-9.0001,-9.0001,-9.0001,-9.0001,-9.0001,-9.0001,-8.9904,-8.9464,-8.9367,-8.8976,-8.7463,-8.6585,-8.5804,-8.473,-8.3998,-8.3559,-8.3559,-8.3559,-8.3559,-8.3559,-8.3559,-8.3559,-8.3559,-8.3559,-8.3559,-8.3559,-8.269,-8.1712,-8.0728,-7.9508,-7.858,-7.8141,-7.3219,-7.0294,-7.0294,-6.594,-6.294,-6.1751,-6.2828,-6.2629,-6.1092,-6.1131,-6.0773,-5.9765,-5.8405,-5.7442,-7.0617,-7.2064,-7.3239,-7.1413,-7.0912,-6.9495,-6.3987,0.0,0.0,-5.1053,-4.8417,-4.8222,-5.2029,-5.3932,0.0,0.0,0.0,-6.9405,-7.6482,-7.9459,-8.2046,-8.4925,0.0,0.0,-8.9513,-8.7903,-8.7561,-8.9562,-8.9708,-8.9806,-9.0001,-9.0001,-9.0001,-9.0001,-9.0001,-9.0001,-9.0001,-9.0001,-9.0001,-9.0001,-9.0001,-9.0001,-9.0001,-9.0001,-9.0001,-9.0001,-9.0001,-8.8781,-8.6926,-8.9123,-8.8732,-8.6975,-8.9172,-9.0001,-9.0001,-9.0001,-9.0001,-9.0001,-9.0001,-9.0001,-9.0001,-9.0001,-9.0001,-9.0001,-9.0001,-9.0001,-9.0001,-9.0001,-9.0001,-9.0001,-9.0001,-9.0001,-8.9757,-8.8684,-8.8342,-8.7707,-8.5609,-8.5121,-8.4828,-8.3754,-8.3559,-8.3559,-8.3559,-8.3559,-8.3559,-8.3559,-8.3559,-8.3559,-8.3559,-8.3559,-8.351,-8.3412,-8.2446,-8.0874,-7.8922,-7.8678,-7.819,-7.7214,-7.444,-7.2953,-7.2953,-7.0189,-6.7415,-6.4847,-6.7221,-6.6644,-6.3018,-6.3151,-6.2659,-6.1547,-5.8403,-5.6786,-6.9098,-6.9716,-7.1554,-7.1885,-7.1943,-7.0527,-6.5158,-6.2718,0.0,0.0,-5.0777,-5.0484,-5.0467,0.0,-5.8911,0.0,-7.0478,-7.5896,-7.9215,-8.2865,-8.5609,0.0,-8.6585,0.0,-8.7415,-8.7024,-8.6926,-8.7415,-8.7463,-8.8195,-8.9904,-9.0001,-9.0001,-9.0001,-9.0001,-9.0001,-9.0001,-9.0001,-9.0001,-9.0001,-9.0001,-9.0001,-9.0001,-9.0001,-9.0001,-9.0001,-9.0001,-8.8781,-8.6926,-8.9123,-8.8732,-8.6975,-8.9172,-9.0001,-9.0001,-9.0001,-9.0001,-9.0001,-9.0001,-9.0001,-9.0001,-9.0001,-9.0001,-9.0001,-9.0001,-9.0001,-9.0001,-9.0001,-9.0001,-9.0001,-9.0001,-9.0001,-8.9757,-8.8684,-8.7756,-8.6731,-8.5413,-8.5121,-8.4828,-8.3754,-8.3559,-8.3559,-8.3559,-8.3559,-8.3559,-8.3559,-8.3559,-8.3559,-8.3559,-8.3559,-8.3217,-8.2494,-8.0581,-7.9264,-7.8776,-7.7995,-7.7409,-7.7165,-7.444,-7.2953,-7.2953,-7.0189,-6.8274,-6.7737,-6.7388,-6.6807,-6.5959,-6.5232,-6.4376,-6.3578,-6.2799,-6.0973,-6.8391,-6.9405,-7.1694,-7.2138,-7.2675,-7.2187,-6.8868,0.0,0.0,0.0,-5.5322,-5.4247,-5.3054,-5.6861,0.0,-6.666,-7.287,-7.7751,-7.9258,-8.3596,-8.6341,-8.5316,-8.6097,-8.717,-8.8195,-8.7366,-8.717,-8.8244,-8.8342,-8.883,-8.9953,-9.0001,-9.0001,-9.0001,-9.0001,-9.0001,-9.0001,-9.0001,-9.0001,-9.0001,-9.0001,-9.0001,-9.0001,-9.0001,-9.0001,-9.0001,-9.0001,-8.9367,-8.8391,-8.9562,-8.9367,-8.8439,-8.9562,-9.0001,-9.0001,-9.0001,-9.0001,-9.0001,-9.0001,-9.0001,-9.0001,-9.0001,-9.0001,-9.0001,-9.0001,-9.0001,-9.0001,-9.0001,-9.0001,-9.0001,-9.0001,-8.966,-8.9123,-8.8537,-8.717,-8.5804,-8.5267,-8.473,-8.4193,-8.3656,-8.3559,-8.3559,-8.3559,-8.3559,-8.3559,-8.3559,-8.3559,-8.3559,-8.3559,-8.3227,-8.225,-8.0581,-7.941,-7.8532,-7.8043,-7.7458,-7.7165,-7.7165,-7.5757,-7.4998,-7.4998,-7.3515,-7.1893,-6.9938,-7.0636,-6.9906,-6.7393,-6.7003,-6.6342,-6.5402,-6.4125,-6.1837,-6.8428,-6.999,-7.2089,-7.2479,-7.3212,-7.3602,-7.2528,-7.0234,0.0,0.0,-6.0326,-5.8618,-5.7226,-6.0424,-6.4865,-7.0228,-7.4773,-7.8239,-7.9654,-8.3852,-8.6097,0.0,-8.5657,-8.761,-8.9806,-8.8391,-8.8049,-8.9904,-8.966,-8.9464,-8.9464,-8.9464,-8.9611,-9.0001,-9.0001,-9.0001,-9.0001,-9.0001,-9.0001,-9.0001,-9.0001,-9.0001,-9.0001,-9.0001,-8.9806,-8.9464,-8.9855,-8.9806,-8.9464,-8.9855,-9.0001,-9.0001,-9.0001,-9.0001,-9.0001,-9.0001,-9.0001,-9.0001,-9.0001,-9.0001,-9.0001,-9.0001,-9.0001,-9.0001,-9.0001,-9.0001,-9.0001,-9.0001,-8.9904,-8.9757,-8.9757,-8.8928,-8.8098,-8.7903,-8.6487,-8.5072,-8.4925,-8.4144,-8.3559,-8.3559,-8.3559,-8.3559,-8.3559,-8.3559,-8.3559,-8.3559,-8.3559,-8.3461,-8.3266,-8.225,-8.0728,-7.8922,-7.858,-7.8141,-7.7263,-7.7165,-7.7165,-7.7165,-7.7165,-7.7165,-7.7165,-7.697,-7.5386,-7.2179,-7.4035,-7.2977,-6.8804,-6.881,-6.8392,-6.7503,-6.5219,-6.2748,-6.9935,-7.0668,-7.145,-7.3212,-7.3748,-7.3602,-7.2528,-7.1943,-7.0429,-6.6134,0.0,-6.2815,-6.0766,-6.3157,-6.6915,-7.1357,0.0,-8.0972,-8.39,-8.5706,-8.6634,-8.6341,-8.6585,-8.761,-8.9806,-8.9757,-8.9708,-9.0001,-8.8244,-8.717,-8.717,-8.717,-8.8049,-8.9953,-9.0001,-9.0001,-9.0001,-9.0001,-9.0001,-9.0001,-9.0001,-9.0001,-9.0001,-9.0001,-8.8976,-8.7268,-8.922,-8.8928,-8.7317,-8.922,-9.0001,-9.0001,-9.0001,-9.0001,-9.0001,-9.0001,-9.0001,-9.0001,-9.0001,-9.0001,-9.0001,-9.0001,-9.0001,-9.0001,-9.0001,-9.0001,-9.0001,-9.0001,-8.9367,-8.8635,-8.8635,-8.7805,-8.6731,-8.5804,-8.5365,-8.4877,-8.3949,-8.3656,-8.3559,-8.3559,-8.3559,-8.3559,-8.3559,-8.3559,-8.3559,-8.3559,-8.3559,-8.3217,-8.2397,-8.0435,-7.9068,-7.8776,-7.7946,-7.7311,-7.7165,-7.7165,-7.7165,-7.7165,-7.7165,-7.7165,-7.7165,-7.6238,-7.5602,-7.5014,-7.3604,-7.2388,-7.1765,-7.0843,-7.031,-7.0213,-6.9888,-6.835,-6.6232,-6.8819,-7.1943,-7.3504,-7.4334,-7.4871,-7.4969,-7.5017,-7.3944,-7.0234,-6.8672,0.0,-6.3499,-6.5012,-6.7989,0.0,0.0,0.0,-8.2827,-8.3217,-8.3608,0.0,-8.4925,0.0,-8.7951,-8.8732,-8.8635,-8.7366,-8.8098,-8.8586,-8.8586,-8.8586,-8.9025,-9.0001,-9.0001,-9.0001,-9.0001,-9.0001,-9.0001,-9.0001,-9.0001,-9.0001,-9.0001,-9.0001,-8.9513,-8.8635,-8.9611,-8.9464,-8.8635,-8.9611,-9.0001,-9.0001,-9.0001,-9.0001,-9.0001,-9.0001,-9.0001,-9.0001,-9.0001,-9.0001,-9.0001,-9.0001,-9.0001,-9.0001,-9.0001,-8.9611,-8.9123,-8.9123,-8.8342,-8.7463,-8.7463,-8.6682,-8.5706,-8.5267,-8.4681,-8.4096,-8.3656,-8.3559,-8.3559,-8.3559,-8.3559,-8.3559,-8.3559,-8.3559,-8.3315,-8.2836,-8.2739,-8.2152,-8.0386,-7.9361,-7.8532,-7.7946,-7.7458,-7.7165,-7.7165,-7.7165,-7.7165,-7.7165,-7.7165,-7.6872,-7.6286,-7.5897,-7.5066,-7.3748,-7.2772,-7.1991,-7.1498,-7.101,-7.0765,-7.0765,-7.0765,-6.9331,-6.3596,-6.6964,-7.1113,-7.3016,-7.4334,-7.5408,-7.6482,-7.697,-7.6482,-7.4041,-7.2723,-7.1015,0.0,0.0,0.0,-7.3846,-7.5945,0.0,-8.2583,-8.2485,0.0,-8.3412,0.0,-8.4047,-8.5365,-8.678,-8.678,-8.4877,-8.7512,-8.9172,-8.9172,-8.9172,-8.9464,-9.0001,-9.0001,-9.0001,-9.0001,-9.0001,-9.0001,-9.0001,-9.0001,-9.0001,-9.0001,-9.0001,-8.9708,-8.922,-8.9757,-8.9708,-8.922,-8.9806,-9.0001,-9.0001,-9.0001,-9.0001,-9.0001,-9.0001,-9.0001,-9.0001,-9.0001,-9.0001,-8.9953,-8.9708,-8.9611,-8.9562,-8.9269,-8.8635,-8.8,-8.8,-8.717,-8.6341,-8.6341,-8.556,-8.473,-8.473,-8.4096,-8.3559,-8.3559,-8.3559,-8.3559,-8.3559,-8.3559,-8.3559,-8.3559,-8.3315,-8.2885,-8.1704,-8.1558,-8.0777,-7.8629,-7.8336,-7.8043,-7.7263,-7.7165,-7.7165,-7.7165,-7.7165,-7.7067,-7.6774,-7.6774,-7.6238,-7.5164,-7.4871,-7.3944,-7.2333,-7.1991,-7.1596,-7.0765,-7.0765,-7.0765,-7.0765,-7.0765,-6.9702,-6.467,-6.5988,-6.7208,-7.1308,-7.3163,-7.4236,-7.5359,-7.6433,-7.7116,-7.697,-7.6042,-7.5359,0.0,0.0,-7.6189,-7.9307,-8.0874,-8.2836,-8.6048,-8.6438,-8.5706,0.0,0.0,0.0,0.0,-8.4096,-8.4828,-8.3705,-8.5657,-8.6926,-8.6926,-8.6926,-8.7854,-8.9953,-9.0001,-9.0001,-9.0001,-9.0001,-9.0001,-9.0001,-9.0001,-9.0001,-9.0001,-9.0001,-8.8879,-8.7024,-8.9123,-8.883,-8.7073,-8.9172,-9.0001,-9.0001,-9.0001,-9.0001,-9.0001,-9.0001,-9.0001,-9.0001,-9.0001,-9.0001,-8.9855,-8.883,-8.8488,-8.8293,-8.7219,-8.6878,-8.6829,-8.6829,-8.6048,-8.5218,-8.5218,-8.4437,-8.3608,-8.3608,-8.3559,-8.3559,-8.3559,-8.3559,-8.3559,-8.3559,-8.3559,-8.3559,-8.3559,-8.2788,-8.1655,-8.0581,-8.033,-7.9654,-7.7507,-7.7263,-7.7214,-7.7165,-7.7165,-7.7165,-7.7165,-7.7165,-7.6726,-7.5799,-7.575,-7.5115,-7.3992,-7.2967,-7.2382,-7.2284,-7.1401,-7.0814,-7.0765,-7.0765,-7.0765,-7.0765,-7.0765,-7.0674,-6.1351,-6.3792,-6.6574,-6.9502,-7.1552,-7.3309,-7.5164,-7.5847,-7.6335,-7.7019,-7.6286,-7.5652,-7.5652,-7.4969,-7.5554,-7.8824,-7.8483,-7.9562,-8.4047,-8.2339,-8.1314,-8.3315,-8.1118,-8.0386,-8.2836,-8.313,-8.2924,-8.2641,-8.5804,-8.7805,-8.7805,-8.8488,-8.922,-9.0001,-9.0001,-9.0001,-9.0001,-9.0001,-9.0001,-9.0001,-9.0001,-9.0001,-9.0001,-9.0001,-8.9611,-8.8879,-8.966,-8.9562,-8.8928,-8.9708,-9.0001,-9.0001,-9.0001,-9.0001,-9.0001,-9.0001,-9.0001,-8.9904,-8.922,-8.8537,-8.7854,-8.7463,-8.7366,-8.7268,-8.6878,-8.6243,-8.5706,-8.5706,-8.4925,-8.4096,-8.4096,-8.3803,-8.3559,-8.3559,-8.3559,-8.3559,-8.3559,-8.3559,-8.3559,-8.3559,-8.3559,-8.3315,-8.2739,-8.2299,-8.1468,-7.9605,-7.8727,-7.8043,-7.7263,-7.7165,-7.7165,-7.7165,-7.7165,-7.7165,-7.7165,-7.653,-7.5945,-7.5603,-7.4871,-7.3992,-7.2919,-7.2479,-7.1943,-7.1352,-7.0961,-7.0765,-7.0765,-7.0765,-7.0765,-7.0765,-7.0765,-7.0765,-5.9057,-6.1302,-6.4377,-6.6867,-6.9356,-7.1796,-7.3944,-7.5017,-7.5749,-7.6482,-7.6335,-7.6189,-7.6579,-7.6042,-7.6335,-7.8873,-7.8092,-7.8532,-8.2543,-8.0581,-7.9703,-8.2192,-7.9947,-7.9068,-8.1167,-8.1859,-8.2348,-8.3081,-8.6048,-8.7854,-8.7854,-8.8537,-8.9074,-8.9464,-8.9464,-8.966,-9.0001,-9.0001,-9.0001,-9.0001,-9.0001,-9.0001,-9.0001,-9.0001,-9.0001,-9.0001,-9.0001,-9.0001,-9.0001,-9.0001,-9.0001,-9.0001,-9.0001,-9.0001,-9.0001,-9.0001,-8.9562,-8.883,-8.8098,-8.7366,-8.6682,-8.6341,-8.6194,-8.6146,-8.5804,-8.5169,-8.4584,-8.4584,-8.4096,-8.3559,-8.3559,-8.3559,-8.3559,-8.3559,-8.3559,-8.3559,-8.3559,-8.3559,-8.3412,-8.3179,-8.313,-8.268,-8.1606,-8.1118,-8.0386,-7.8971,-7.7848,-7.7165,-7.7165,-7.7165,-7.7165,-7.7165,-7.7165,-7.7019,-7.6628,-7.5945,-7.5359,-7.4481,-7.3748,-7.287,-7.1796,-7.1841,-7.1498,-7.0765,-7.0765,-7.0765,-7.0765,-7.0765,-7.0765,-7.0765,-7.0765,-7.0765,0.0,0.0,-6.0424,-6.3499,-6.672,-6.9558,-7.1698,-7.3942,-7.5506,-7.5604,-7.6335,-7.7409,-7.8483,-7.8629,-7.8971,-8.0038,-8.0135,-8.0581,-8.1859,-8.2055,-8.1558,-8.0428,-8.0282,-7.9453,-7.7507,-8.0246,-8.2934,-8.4877,-8.6048,-8.6682,-8.6682,-8.6731,-8.7268,-8.8342,-8.8391,-8.8879,-8.9904,-8.9904,-8.9904,-8.9904,-8.9904,-8.9953,-8.9953,-8.9953,-9.0001,-9.0001,-9.0001,-9.0001,-9.0001,-9.0001,-8.9953,-8.9953,-8.9953,-8.9904,-8.9904,-8.9904,-8.8537,-8.6682,-8.6682,-8.6682,-8.6487,-8.5413,-8.5121,-8.4925,-8.3852,-8.3559,-8.3559,-8.3559,-8.3559,-8.3559,-8.3559,-8.3559,-8.351,-8.351,-8.351,-8.3461,-8.3461,-8.3461,-8.3119,-8.2201,-8.2006,-8.1558,-8.0379,-7.9356,-7.8727,-7.8727,-7.7848,-7.7165,-7.7165,-7.7165,-7.7165,-7.7116,-7.7067,-7.6628,-7.5701,-7.5555,-7.4626,-7.2431,-7.2235,-7.1747,-7.0814,-7.0765,-7.0765,-7.0765,-7.0765,-7.0765,-7.0765,-7.0765,-7.0765,-7.0765,-7.0765,-7.0765,-6.2376,0.0,0.0,-6.4084,-6.672,-6.9168,-6.9753,-7.1015,-7.2574,-7.4041,-7.5213,-7.6091,-7.6384,-7.5749,-7.6091,-7.8776,-7.7897,-7.7799,-8.0435,-8.146,-8.1957,-8.1558,-8.0826,-8.0435,-8.0686,-8.225,-8.3022,-8.2934,-8.4535,-8.5609,-8.5609,-8.6341,-8.6878,-8.717,-8.7219,-8.7366,-8.7659,-8.7659,-8.7659,-8.7659,-8.7659,-8.8098,-8.8879,-8.8879,-8.9269,-8.9953,-8.922,-8.9318,-8.9953,-8.9172,-8.8879,-8.8781,-8.7951,-8.7659,-8.7659,-8.7659,-8.678,-8.5609,-8.5609,-8.5072,-8.4388,-8.4096,-8.3998,-8.39,-8.3608,-8.3559,-8.3559,-8.3559,-8.3559,-8.3559,-8.3559,-8.3559,-8.3363,-8.269,-8.2494,-8.2192,-8.1411,-8.1216,-8.1167,-8.0874,-8.0777,-8.0435,-7.941,-7.8971,-7.8483,-7.7702,-7.736,-7.7165,-7.7165,-7.7165,-7.6872,-7.6091,-7.5261,-7.4676,-7.4383,-7.3651,-7.2919,-7.2333,-7.1645,-7.1059,-7.0765,-7.0765,-7.0765,-7.0765,-7.0765,-7.0765,-7.0765,-7.0765,-7.0765,-7.0765,-7.0765,-7.0765,-5.8667,0.0,0.0,0.0,-6.0668,-6.3206,-6.6378,-6.8282,-6.9844,-7.1552,-7.3456,-7.4871,-7.4871,-7.4725,-7.5213,-7.7116,-7.6726,-7.7019,-7.9258,-8.024,-8.1028,-8.1957,-8.1021,-8.0777,-8.1957,-8.2592,-8.2934,-8.2739,-8.3754,-8.4486,-8.4486,-8.5072,-8.5609,-8.6048,-8.6097,-8.6292,-8.6731,-8.6731,-8.6731,-8.6731,-8.6731,-8.7073,-8.7707,-8.7707,-8.8049,-8.8635,-8.8,-8.8049,-8.8586,-8.7951,-8.7707,-8.7659,-8.6975,-8.6731,-8.6634,-8.5755,-8.5023,-8.4486,-8.4486,-8.4047,-8.3559,-8.3559,-8.3559,-8.3559,-8.3559,-8.3217,-8.2983,-8.2983,-8.2534,-8.2192,-8.2192,-8.2192,-8.2046,-8.1411,-8.1265,-8.1118,-8.0379,-8.0233,-8.0135,-7.9697,-7.9703,-7.9361,-7.8288,-7.8092,-7.7897,-7.7263,-7.6774,-7.6482,-7.6482,-7.6091,-7.5554,-7.492,-7.4285,-7.37,-7.326,-7.2626,-7.2089,-7.1743,-7.1107,-7.0765,-7.0765,-7.0765,-7.0765,-7.0765,-7.0765,-7.0765,-7.0765,-7.0765,-7.0765,-7.0765,-7.0765,-7.0277,-5.0565,0.0,0.0,-5.0239,-5.195,-5.4442,0.0,0.0,-6.6037,-6.7121,-7.0039,-7.2333,-7.2577,-7.3651,-7.4675,-7.4969,-7.5896,-7.7019,-7.8239,-7.8629,-7.941,-8.1321,-8.0679,-8.0581,-8.1761,-8.1859,-8.2299,-8.3266,-8.3363,-8.3412,-8.3559,-8.3559,-8.3852,-8.4584,-8.4828,-8.5316,-8.5999,-8.6292,-8.639,-8.639,-8.639,-8.6438,-8.6585,-8.6585,-8.6585,-8.6585,-8.6682,-8.6682,-8.6585,-8.6585,-8.6585,-8.6536,-8.6438,-8.639,-8.6146,-8.4096,-8.3363,-8.3363,-8.3217,-8.3168,-8.3168,-8.3168,-8.3168,-8.3168,-8.3168,-8.2339,-8.1517,-8.1517,-8.0533,-7.9599,-7.9843,-7.9892,-7.994,-8.0038,-8.0087,-8.0038,-7.994,-7.9892,-7.9599,-7.8776,-7.858,-7.8288,-7.7311,-7.7165,-7.7067,-7.6823,-7.5994,-7.5359,-7.5359,-7.4481,-7.3846,-7.37,-7.37,-7.326,-7.2187,-7.2089,-7.1792,-7.0814,-7.0765,-7.0765,-7.0765,-7.0765,-7.0765,-7.0765,-7.0765,-7.0765,-7.0765,-7.0668,-7.0619,-7.0619,-7.0472,-6.9307,0.0,0.0,0.0,0.0,0.0,0.0,0.0,0.0,-5.5175,-5.7056,-6.0033,-6.2815,-6.4475,-6.6427,-6.8624,-7.1259,-7.2577,-7.3944,-7.5896,-7.7653,-7.858,-7.8141,-7.8678,-7.9508,-8.0581,-8.0679,-8.1118,-8.2299,-8.2348,-8.2739,-8.351,-8.3559,-8.2875,-8.1208,-8.2973,-8.3119,-8.15,-8.3315,-8.4144,-8.4144,-8.4144,-8.4633,-8.5462,-8.5462,-8.5462,-8.5511,-8.639,-8.6243,-8.5462,-8.5462,-8.5462,-8.5365,-8.4486,-8.4144,-8.3998,-8.2836,-8.2348,-8.225,-8.1265,-8.0867,-8.0867,-8.0867,-8.0867,-8.0867,-8.0867,-7.9605,-7.8092,-7.8092,-7.6677,-7.5554,-7.7311,-7.7799,-7.7995,-7.8873,-7.9068,-7.8824,-7.7946,-7.7799,-7.7702,-7.7507,-7.7458,-7.7409,-7.7214,-7.7165,-7.6579,-7.4773,-7.4334,-7.4188,-7.4188,-7.3992,-7.3553,-7.2675,-7.2577,-7.2138,-7.1156,-7.1059,-7.101,-7.0765,-7.0765,-7.0765,-7.0765,-7.0765,-7.0765,-7.0765,-7.0765,-7.0765,-7.0765,-6.9795,-6.9314,-6.9265,-6.8526,-6.7891,0.0,0.0,0.0,0.0,0.0,0.0,0.0,0.0,0.0,0.0,0.0,-5.6763,-5.8325,0.0,-6.5158,-6.7891,-7.0527,-7.287,-7.4481,-7.614,-7.697,-7.6433,-7.6823,-7.7799,-7.941,-7.9453,-7.9996,-8.107,-8.1167,-8.1411,-8.1899,-8.146,-8.0679,-7.9605,-8.1118,-8.146,-8.0282,-8.2485,-8.3559,-8.3559,-8.3559,-8.3803,-8.434,-8.434,-8.434,-8.4388,-8.4925,-8.4828,-8.434,-8.434,-8.434,-8.4193,-8.2583,-8.1948,-8.1753,-8.0142,-8.024,-8.0923,-7.9312,-7.9356,-8.0233,-8.0233,-8.0233,-8.0233,-8.0233,-7.9215,-7.7946,-7.7946,-7.6774,-7.5749,-7.6872,-7.7165,-7.7311,-7.7848,-7.7946,-7.7799,-7.7263,-7.7165,-7.7165,-7.7165,-7.7165,-7.697,-7.6433,-7.5896,-7.5164,-7.4041,-7.3407,-7.3065,-7.3065,-7.2626,-7.1894,-7.082,-6.9746,-6.9307,-6.9844,-6.8916,-6.9055,-7.0668,-7.0185,-6.9893,-6.9893,-6.9356,-6.9112,-6.9112,-6.9112,-6.9112,-6.9112,-6.8575,-6.8193,-6.8144,-6.5012,-6.3206,0.0,0.0,0.0,0.0,0.0,0.0,0.0,0.0,0.0,0.0,0.0,0.0,0.0,0.0,0.0,-6.4231,-6.8624,-7.2089,-7.3407,-7.4334,-7.5017,-7.5017,-7.5115,-7.5896,-7.7653,-7.7995,-7.858,-7.9551,-7.9843,-8.0038,-8.0233,-7.9453,-7.8873,-7.8434,-7.9703,-8.0038,-7.9648,-8.185,-8.2924,-8.2924,-8.2924,0.0,-8.2924,-8.2924,-8.2827,-8.2631,-8.2827,-8.2827,-8.2631,-8.2827,-8.2924,-8.2778,-8.1021,-8.0233,-8.0038,-7.819,-7.858,-7.9648,-7.7848,-7.8288,-7.9648,-7.9648,-7.9648,-7.9648,-7.9648,-7.8824,0.0,-7.7799,-7.6726,-7.5749,-7.6384,-7.6238,-7.6042,-7.6677,-7.6677,-7.653,-7.653,-7.6189,-7.6042,-7.6433,-7.6189,-7.5798,-7.531,-7.3797,-7.2431,-7.1796,-7.1162,-7.0674,-7.0429,-7.0234,-6.9746,-6.8778,-6.7599,-6.7501,-6.9168,-6.7062,-6.6964,-7.0185,-6.877,-6.7559,-6.7169,-6.6341,-6.5658,-6.522,-6.522,-6.5744,-6.6574,-6.633,-6.6232,-6.6086,-5.9057,-5.5982,0.0,0.0,0.0,0.0,0.0,0.0,0.0,0.0,0.0,0.0,0.0,0.0,0.0,0.0,0.0,0.0,-6.5317,-7.0094,-7.2187,-7.2577,-7.2675,-7.2675,-7.3504,-7.4139,-7.4383,-7.5359,-7.6335,-7.7458,-7.8385,-7.9361,-8.0184,-8.0135,0.0,0.0,0.0,-7.9356,-7.7555,-7.9654,-8.0623,-8.0623,-8.0623,-8.0623,-8.0623,-8.0623,-8.0191,-7.9361,-8.0289,-8.0087,-7.9361,-8.0337,-8.0623,-8.0574,-8.033,-8.0233,-8.0087,-7.902,-7.8727,-7.8776,-7.7555,0.0,0.0,-7.7507,-7.7507,-7.7507,-7.7507,-7.6091,-7.4432,-7.4432,-7.2284,-7.0582,-7.3504,-7.2821,-7.2231,-7.5164,-7.4969,-7.4236,-7.4236,-7.2772,-7.2085,-7.3895,-7.2772,-7.204,-7.3748,-7.082,-6.7208,-6.4329,-6.4621,-6.4817,-6.384,-6.6134,-6.7794,-6.7608,-6.916,0.0,-7.057,-6.6905,-6.5842,-6.8973,-6.5549,-6.2523,-6.0668,-6.0473,-5.9497,-5.7469,-5.7421,-5.9273,-6.3157,-6.223,-6.1742,-6.1449,-4.848,-4.5401,0.0,0.0,0.0,0.0,0.0,0.0,0.0,0.0,0.0,0.0,0.0,0.0,0.0,0.0,0.0,0.0,-6.018,-6.4914,-6.6427,-6.8282,-7.0185,-7.204,-7.2675,-7.3212,-7.3797,-7.4285,-7.4773,-7.5213,-7.6286,-7.7116,-7.7555,-7.7555,-7.7165,-7.6238,-7.7702,-7.8043,-7.7165,-7.9161,-8.0233,-8.0233,-8.0233,-8.0233,-8.0233,-8.0233,-8.0038,-7.9599,-8.0038,-7.9989,-7.9599,-8.0087,-8.0233,-7.9989,0.0,0.0,0.0,0.0,-7.5945,-7.5701,-7.3992,-7.4236,-7.5261,-7.5261,-7.5261,-7.5261,-7.5261,-7.4627,-7.3895,-7.3895,-7.2919,-7.2187,-7.3553,-7.3212,-7.287,-7.4236,-7.4236,-7.3895,-7.3895,-7.3163,-7.2821,-7.37,-7.2675,0.0,-7.0332,-6.8583,-6.7013,-6.5646,-6.6378,-6.6915,-6.6341,-6.8136,-6.9112,-6.8388,-6.8087,-6.8428,-6.9649,-6.6378,0.0,0.0,0.0,-6.384,-6.2327,-6.1644,0.0,0.0,0.0,-5.3737,-5.4274,-5.0662,0.0,0.0,-4.2078,-3.9977,0.0,0.0,0.0,0.0,0.0,0.0,0.0,0.0,0.0,0.0,0.0,0.0,0.0,0.0,0.0,0.0,-5.5055,-5.9545,-6.0326,-6.3499,-6.6574,-6.8916,-7.0234,-7.0918,-7.0771,-7.2138,-7.3016,-7.3016,-7.4285,-7.5115,-7.5115,-7.5115,-7.5115,-7.5115,-7.5847,-7.6238,-7.6238,-7.7799,-7.8478,-7.8478,-7.8478,-7.8478,-7.8478,-7.8478,-7.8332,-7.8039,-7.8332,-7.8332,-7.8039,-7.8332,-7.8478,-7.8186,-7.5115,-7.3895,-7.3895,-7.3895,-7.3895,-7.3651,-7.2089,-7.2577,-7.3895,-7.3895,-7.3895,-7.3895,-7.3895,-7.3895,-7.3895,-7.3895,-7.3651,-7.3504,-7.3797,-7.3456,-7.3065,-7.3358,-7.3212,-7.3016,-7.3016,-7.2284,-7.1845,-7.2431,-7.1454,-6.9697,-6.7062,-6.6378,-6.5853,-6.5402,-6.6097,-6.6682,-6.639,-6.8184,-6.9063,-6.8193,-6.7355,-6.7403,-6.8876,-6.5598,-6.4621,-6.7511,-6.5207,-6.3596,-6.3401,-6.1205,-5.9253,-5.7788,-5.3367,-4.993,0.0,0.0,0.0,0.0,0.0,0.0,0.0,0.0,0.0,0.0,0.0,0.0,0.0,0.0,0.0,0.0,0.0,0.0,0.0,0.0,0.0,0.0,0.0,0.0,-5.486,-5.852,-6.1254,-6.1351,-6.5061,-6.6427,-6.3255,-6.7745,-7.082,-7.0863,-7.2723,-7.3944,-7.3944,-7.3944,-7.3944,-7.3944,-7.3944,-7.3992,-7.3992,-7.4041,-7.409,-7.409,-7.409,-7.409,-7.409,-7.409,-7.3504,-7.2577,-7.3651,-7.3504,-7.2626,-7.3651,-7.409,-7.409,-7.3944,-7.3895,-7.3895,-7.3895,-7.3895,-7.3846,-7.3797,-7.3797,-7.3895,-7.3895,-7.3895,-7.3895,-7.3895,-7.3895,-7.3895,-7.3895,-7.3114,-7.2577,-7.3602,-7.2333,-7.1156,-7.2089,-7.1645,-7.0863,-7.0863,-6.8331,-6.6769,-6.8778,-6.755,-6.5744,-6.4656,-6.3499,-6.2083,-6.0082,-6.0619,0.0,-5.9936,-6.345,-6.6037,-6.5988,-6.7706,-6.8924,-6.9022,-6.4182,-6.2083,-6.4329,-6.0473,-5.9057,-6.1058,-5.6129,-5.3298,-5.3249,-5.0955,-4.8759,-4.6709,0.0,0.0,0.0,0.0,0.0,0.0,0.0,0.0,0.0,0.0,0.0,0.0,0.0,0.0,0.0,0.0,0.0,0.0,0.0,0.0,0.0,0.0,0.0,0.0,-5.4079,-5.7593,-5.9789,-6.1302,-6.1125,-5.8542,-6.1986,-6.428,-6.4363,-6.8916,-7.1841,-7.1841,-7.3114,-7.3895,-7.3895,-7.3895,-7.3895,-7.3895,-7.3895,-7.3895,-7.3895,-7.3895,-7.3895,-7.3895,-7.3895,-7.37,-7.3358,-7.37,-7.3651,-7.3358,-7.3748,-7.3065,-7.1841,-7.1841,-7.1841,-7.1841,-7.1841,-7.1841,-7.1841,-7.1841,-7.1308,-7.0484,-6.9893,-6.9649,-6.9649,-6.9649,-7.0045,-7.0484,-6.9844,-6.9893,-7.0234,-7.0533,-7.0094,-6.9697,-6.9997,-6.9893,-6.9453,-6.8721,-6.7745,-6.7159,-6.7803,-6.4573,-6.0619,-5.7398,-6.0033,-6.1156,-5.691,-6.0229,-6.3304,-6.3694,-6.5646,-6.6964,-6.6964,-6.7511,-6.7657,-6.7013,-6.4621,-6.3206,-6.3206,-6.0522,-5.9301,-5.9985,-5.7593,-5.6275,-5.6275,-5.4811,-4.9427,-4.0165,0.0,0.0,0.0,0.0,0.0,0.0,0.0,0.0,0.0,0.0,0.0,0.0,0.0,0.0,0.0,0.0,0.0,0.0,0.0,0.0,0.0,0.0,0.0,0.0,0.0,0.0,-5.6324,-5.73,0.0,-5.3619,-5.5934,-5.7593,-5.7593,-6.2262,-6.5732,-6.7247,-6.8916,-7.0576,-7.2044,-7.2187,-7.2333,-7.2723,-7.2723,-7.2723,-7.2723,-7.2723,-7.2723,-7.2723,-7.2723,-7.2723,-7.2723,-7.2723,-7.2723,-7.2675,-7.1943,-6.9893,-6.7295,-6.6905,-6.6232,-6.5646,-6.6427,-6.7002,-6.7442,-6.8224,-6.8184,-6.7706,-6.672,-6.5353,-6.3987,-6.3596,-6.3075,-6.2962,-6.384,-6.4781,-6.5951,-6.7462,-6.8144,-6.8437,-6.8437,-6.8437,-6.8242,-6.7559,-6.6281,-6.5158,-6.5158,-6.2132,-5.813,-5.3786,-5.647,-5.8032,-5.4567,-5.7935,-6.1791,-6.4377,-6.5695,-6.6378,-6.6378,-6.5988,-6.55,-6.4768,-6.3743,-6.2669,-6.1595,-5.9887,-5.8764,-5.8298,-5.73,-5.5836,-5.3932,-5.281,-4.6941,0.0,0.0,0.0,0.0,0.0,0.0,0.0,0.0,0.0,0.0,0.0,0.0,0.0,0.0,0.0,0.0,0.0,0.0,0.0,0.0,0.0,0.0,0.0,0.0,0.0,0.0,0.0,-5.1021,-5.281,0.0,0.0,0.0,0.0,-5.1021,-5.3054,-5.6129,-6.0229,-6.1546,-6.4084,-6.8291,-6.8534,-6.9258,-7.0619,-7.0668,-7.0716,-7.0765,-7.0765,-7.0765,-7.0765,-7.0765,-7.0765,-7.0765,-7.0765,-7.0716,-7.0423,-6.7989,-6.4573,-6.0766,-5.9643,-5.7886,-5.6153,-5.8298,-5.9741,-6.0863,-6.3157,-6.4621,-6.5207,-6.4084,-6.0961,-5.7349,-5.591,-5.3493,0.0,0.0,-5.8081,-5.9936,-6.428,-6.6183,-6.6926,-6.7208,-6.7169,-6.7257,-6.7121,-6.3889,-6.0814,-6.0473,-5.9497,-5.73,-5.2615,0.0,-5.2322,-5.2127,-5.3396,-5.6275,-6.1546,-6.3352,-6.4133,-6.4133,-6.3157,-6.2523,-6.2474,-6.1498,-6.0424,-5.9399,-5.8325,-5.7251,-5.6105,-5.4909,-5.1834,-4.666,-4.5137,0.0,0.0,0.0,0.0,0.0,0.0,0.0,0.0,0.0,0.0,0.0,0.0,0.0,0.0,0.0,0.0,0.0,0.0,0.0,0.0,0.0,0.0,0.0,0.0,0.0,0.0,-4.1834,-4.3691,-4.6318,-4.5684,-4.3683,0.0,0.0,0.0,0.0,0.0,0.0,-5.2517,-5.4421,-5.7105,-6.0668,-6.2279,-6.4768,-6.8282,-6.9112,-6.9893,-7.0765,-7.0765,-7.0765,-7.0765,-7.0765,-7.0765,-7.0765,-7.0765,-6.9886,-6.7891,-6.2571,-5.9692,-5.8423,-5.5738,-5.3835,-5.2879,-5.4177,-5.4372,-5.4491,-5.8228,-5.9155,-5.8423,-5.6519,-5.4687,-5.2341,-4.7978,0.0,0.0,0.0,0.0,-5.2322,-5.7323,-5.8834,-5.9858,-6.3108,-6.3889,-6.3645,-6.2864,-6.1205,-5.8228,-5.2615,-4.9914,-4.5722,-3.6702,-3.9781,0.0,-3.9243,-4.5733,-5.2371,-5.6178,-5.9692,-6.1839,-6.1839,-6.1595,-6.1107,-6.0375,-5.9301,-5.8228,-5.7079,-5.608,-5.5348,-5.5055,-5.0955,-4.7512,-4.4917,0.0,0.0,0.0,0.0,0.0,0.0,0.0,0.0,0.0,0.0,0.0,0.0,0.0,0.0,0.0,0.0,0.0,0.0,0.0,0.0,0.0,0.0,0.0,0.0,0.0,0.0,0.0,-3.7338,-3.9778,-4.256,-4.0559,-3.8265,0.0,0.0,0.0,0.0,0.0,0.0,0.0,0.0,0.0,-5.3542,-5.4811,-5.7056,-6.0424,-6.3401,-6.5207,-6.5793,-6.8184,-6.9307,-6.9307,-6.9307,-6.9307,-6.9258,-6.8371,-6.5305,-6.0863,-5.6763,-5.3396,-5.0516,0.0,0.0,0.0,0.0,-4.5928,-4.6232,-4.9164,-5.0028,-4.954,-4.7392,0.0,0.0,0.0,0.0,0.0,0.0,0.0,-4.6514,-5.1376,-5.4788,-5.7593,-5.9985,-6.018,-5.9789,-5.9692,-5.4372,-4.8305,-4.4065,-4.153,-3.7533,-2.9654,-3.1807,0.0,0.0,0.0,-4.7441,-5.2566,-5.7398,-6.0375,-6.0375,-5.9497,-5.8667,-5.8054,-5.7105,-5.6226,-5.552,-5.4518,-5.2721,-5.0055,-4.6867,-4.1944,0.0,0.0,0.0,0.0,0.0,0.0,0.0,0.0,0.0,0.0,0.0,0.0,0.0,0.0,0.0,0.0,0.0,0.0,0.0,0.0,0.0,0.0,0.0,0.0,0.0,0.0,0.0,0.0,0.0,-3.6464,-3.875,0.0,0.0,0.0,0.0,0.0,0.0,0.0,0.0,0.0,0.0,0.0,0.0,0.0,-4.8124,-5.063,-5.5397,-5.7935,-5.8276,-6.2913,-6.5256,-6.5353,-6.5353,-6.5549,-6.5646,-6.2767,0.0,-5.2419,-5.0435,0.0,0.0,0.0,0.0,0.0,0.0,0.0,0.0,0.0,0.0,0.0,0.0,0.0,0.0,0.0,0.0,0.0,0.0,0.0,0.0,0.0,0.0,-5.525,-5.569,-5.5348,-5.4909,-5.4762,-4.5049,-3.6071,-3.5388,-3.3775,-3.1082,0.0,0.0,0.0,0.0,0.0,0.0,-4.9311,-5.525,-5.8862,-5.8862,-5.7154,-5.5958,-5.5958,-5.5055,-5.4372,-5.4225,-5.2449,-4.9072,-4.358,-4.251,0.0,0.0,0.0,0.0,0.0,0.0,0.0,0.0,0.0,0.0,0.0,0.0,0.0,0.0,0.0,0.0,0.0,0.0,0.0,0.0,0.0,0.0,0.0,0.0,0.0,0.0,0.0,0.0,0.0,0.0,0.0,0.0,0.0,0.0,0.0,0.0,0.0,0.0,0.0,0.0,0.0,0.0,0.0,0.0,0.0,0.0,0.0,0.0,0.0,0.0,-5.2419,-5.3347,-5.4296,-5.4296,-5.5201,-5.6519,-4.9881,-4.8271,-4.9784,-4.2511,0.0,0.0,0.0,0.0,0.0,0.0,0.0,0.0,0.0,0.0,0.0,0.0,0.0,0.0,0.0,0.0,0.0,0.0,0.0,0.0,0.0,0.0,-4.1238,-4.3976,-4.6514,-4.6416,-3.9537,0.0,0.0,0.0,0.0,0.0,0.0,0.0,0.0,0.0,0.0,0.0,-4.2853,-5.0516,-5.5494,-5.5494,-5.5153,-5.4909,-5.4909,-5.3932,-5.2956,-5.2097,-4.644,-4.2285,0.0,0.0,0.0,0.0,0.0,0.0,0.0,0.0,0.0,0.0,0.0,0.0,0.0,0.0,0.0,0.0,0.0,0.0,0.0,0.0,0.0,0.0,0.0,0.0,0.0,0.0,0.0,0.0,0.0,0.0,0.0,0.0,0.0,0.0,0.0,0.0,0.0,0.0,0.0,0.0,0.0,0.0,0.0,0.0,0.0,0.0,0.0,0.0,0.0,0.0,0.0,0.0,0.0,0.0,0.0,0.0,0.0,0.0,-4.2082,-3.7133,0.0,0.0,0.0,0.0,0.0,0.0,0.0,0.0,0.0,0.0,0.0,0.0,0.0,0.0,0.0,0.0,0.0,0.0,0.0,0.0,0.0,0.0,0.0,0.0,0.0,0.0,0.0,0.0,0.0,0.0,0.0,0.0,0.0,0.0,0.0,0.0,0.0,0.0,0.0,0.0,-4.0521,-4.9727,-5.5923,-5.5923,-5.4639,-5.4135,-5.5003,-5.2765,-4.993,-4.6672,-4.2559,0.0,0.0,0.0,0.0,0.0,0.0,0.0,0.0,0.0,0.0,0.0,0.0,0.0,0.0,0.0,0.0,0.0,0.0,0.0,0.0,0.0,0.0,0.0,0.0,0.0,0.0,0.0,0.0,0.0,0.0,0.0,0.0,0.0,0.0,0.0,0.0,0.0,0.0,0.0,0.0,0.0,0.0,0.0,0.0,0.0,0.0,0.0,0.0,0.0,0.0,0.0,0.0,0.0,0.0,0.0,0.0,0.0,0.0,0.0,-3.5502,-2.8221,0.0,0.0,0.0,0.0,0.0,0.0,0.0,0.0,0.0,0.0,0.0,0.0,0.0,0.0,0.0,0.0,0.0,0.0,0.0,0.0,0.0,0.0,0.0,0.0,0.0,0.0,0.0,0.0,0.0,0.0,0.0,0.0,0.0,0.0,0.0,0.0,0.0,0.0,0.0,0.0,-3.9201,-4.9731,-5.6866,-5.6464,-5.4338,-5.3419,-5.4591,-5.1444,-4.7051,-4.1438,-3.8681,0.0,0.0,0.0,0.0,0.0,0.0,0.0,0.0,0.0,0.0,0.0,0.0,0.0,0.0,0.0,0.0,0.0,0.0,0.0,0.0,0.0,0.0,0.0,0.0,0.0,0.0,0.0,0.0,0.0,0.0,0.0,0.0,0.0,0.0,0.0,0.0,0.0,0.0,0.0,0.0,0.0,0.0,0.0,0.0,0.0,0.0,0.0,0.0,0.0,0.0,0.0,0.0,0.0,0.0,0.0,0.0,0.0,0.0,0.0,0.0,0.0,0.0,0.0,0.0,0.0,0.0,0.0,0.0,0.0,0.0,0.0,0.0,0.0,0.0,0.0,0.0,0.0,0.0,0.0,0.0,0.0,0.0,0.0,0.0,0.0,0.0,0.0,0.0,0.0,0.0,0.0,0.0,0.0,0.0,0.0,0.0,0.0,0.0,0.0,0.0,0.0,-3.7041,-4.848,-5.5826,-5.4351,-5.3121,-5.2404,-5.253,-5.0015,-4.5635,-3.9193,0.0,0.0,0.0,0.0,0.0,0.0,0.0,0.0,0.0,0.0,0.0,0.0,0.0,0.0,0.0,0.0,0.0,0.0,0.0,0.0,0.0,0.0,0.0,0.0,0.0,0.0,0.0,0.0,0.0,0.0,0.0,0.0,0.0,0.0,0.0,0.0,0.0,0.0,0.0,0.0,0.0,0.0,0.0,0.0,0.0,0.0,0.0,0.0,0.0,0.0,0.0,0.0,0.0,0.0,0.0,0.0,0.0,0.0,0.0,0.0,0.0,0.0,0.0,0.0,0.0,0.0,0.0,0.0,0.0,0.0,0.0,0.0,0.0,0.0,0.0,0.0,0.0,0.0,0.0,0.0,0.0,0.0,0.0,0.0,0.0,0.0,0.0,0.0,0.0,0.0,0.0,0.0,0.0,0.0,0.0,0.0,0.0,0.0,0.0,0.0,0.0,0.0,-3.7604,-4.8266,-5.5279,-5.4636,-5.3268,-5.2469,-5.2641,-5.0161,-4.4541,-3.5236,0.0,0.0,0.0,0.0,0.0,0.0,0.0,0.0,0.0,0.0,0.0,0.0,0.0,0.0,0.0,0.0,0.0,0.0,0.0,0.0,0.0,0.0,0.0,0.0,0.0,0.0,0.0,0.0,0.0,0.0,0.0,0.0,0.0,0.0,0.0,0.0,0.0,0.0,0.0,0.0,0.0,0.0,0.0,0.0,0.0,0.0,0.0,0.0,0.0,0.0,0.0,0.0,0.0,0.0,0.0,0.0,0.0,0.0,0.0,0.0,0.0,0.0,0.0,0.0,0.0,0.0,0.0,0.0,0.0,0.0,0.0,0.0,0.0,0.0,0.0,0.0,0.0,0.0,0.0,0.0,0.0,0.0,0.0,0.0,0.0,0.0,0.0,0.0,0.0,0.0,0.0,0.0,0.0,0.0,0.0,0.0,0.0,0.0,0.0,0.0,0.0,0.0,-3.777,-4.8375,-5.5528,-5.5088,-5.3643,-5.2637,-5.2406,-4.9858,-4.3485,-3.2052,0.0,0.0,0.0,0.0,0.0,0.0,0.0,0.0,0.0,0.0,0.0,0.0,0.0,0.0,0.0,0.0,0.0,0.0,0.0,0.0,0.0,0.0,0.0,0.0,0.0,0.0,0.0,0.0,0.0,0.0,0.0,0.0,0.0,0.0,0.0,0.0,0.0,0.0,0.0,0.0,0.0,0.0,0.0,0.0,0.0,0.0,0.0,0.0,0.0,0.0,0.0,0.0,0.0,0.0,0.0,0.0,0.0,0.0,0.0,0.0,0.0,0.0,0.0,0.0,0.0,0.0,0.0,0.0,0.0,0.0,0.0,0.0,0.0,0.0,0.0,0.0,0.0,0.0,0.0,0.0,0.0,0.0,0.0,0.0,0.0,0.0,0.0,0.0,0.0,0.0,0.0,0.0,0.0,0.0,0.0,0.0,0.0,0.0,0.0,0.0,0.0,0.0,-3.6711,-4.8888,-5.6886,-5.5199,-5.4079,-5.2869,-5.1502,-4.8822,-4.2218,0.0,0.0,0.0,0.0,0.0,0.0,0.0,0.0,0.0,0.0,0.0,0.0,0.0,0.0,0.0,0.0,0.0,0.0,0.0,0.0,0.0,0.0,0.0,0.0,0.0,0.0,0.0,0.0,0.0,0.0,0.0,0.0,0.0,0.0,0.0,0.0,0.0,0.0,0.0,0.0,0.0,0.0,0.0,0.0,0.0,0.0,0.0,0.0,0.0,0.0,0.0,0.0,0.0,0.0,0.0,0.0,0.0,0.0,0.0,0.0,0.0,0.0,0.0,0.0,0.0,0.0,0.0,0.0,0.0,0.0,0.0,0.0,0.0,0.0,0.0,0.0,0.0,0.0,0.0,0.0,0.0,0.0,0.0,0.0,0.0,0.0,0.0,0.0,0.0,0.0,0.0,0.0,0.0,0.0,0.0,0.0,0.0,0.0,0.0,0.0,0.0,0.0,0.0,-3.7085,-4.4706,-5.0756,-5.3733,-5.3784,-5.2996,-5.154,-4.9018,-4.3266,-3.337,0.0,0.0,0.0,0.0,0.0,0.0,0.0,0.0,0.0,0.0,0.0,0.0,0.0,0.0,0.0,0.0,0.0,0.0,0.0,0.0,0.0,0.0,0.0,0.0,0.0,0.0,0.0,0.0,0.0,0.0,0.0,0.0,0.0,0.0,0.0,0.0,0.0,0.0,0.0,0.0,0.0,0.0,0.0,0.0,0.0,0.0,0.0,0.0,0.0,0.0,0.0,0.0,0.0,0.0,0.0,0.0,0.0,0.0,0.0,0.0,0.0,0.0,0.0,0.0,0.0,0.0,0.0,0.0,0.0,0.0,0.0,0.0,0.0,0.0,0.0,0.0,0.0,0.0,0.0,0.0,0.0,0.0,0.0,0.0,0.0,0.0,0.0,0.0,0.0,0.0,0.0,0.0,0.0,0.0,0.0,0.0,0.0,0.0,0.0,0.0,0.0,0.0,0.0,-4.3683,-4.95,-5.3213,-5.3213,-5.2329,-5.0934,-4.885,-4.3471,-3.3685,0.0,0.0,0.0,0.0,0.0,0.0,0.0,0.0,0.0,0.0,0.0,0.0,0.0,0.0,0.0,0.0,0.0,0.0,0.0,0.0,0.0,0.0,0.0,0.0,0.0,0.0,0.0,0.0,0.0,0.0,0.0,0.0,0.0,0.0,0.0,0.0,0.0,0.0,0.0,0.0,0.0,0.0,0.0,0.0,0.0,0.0,0.0,0.0,0.0,0.0,0.0,0.0,0.0,0.0,0.0,0.0,0.0,0.0,0.0,0.0,0.0,0.0,0.0,0.0,0.0,0.0,0.0,0.0,0.0,0.0,0.0,0.0,0.0,0.0,0.0,0.0,0.0,0.0,0.0,0.0,0.0,0.0,0.0,0.0,0.0,0.0,0.0,0.0,0.0,0.0,0.0,0.0,0.0,0.0,0.0,0.0,0.0,0.0,0.0,0.0,0.0,0.0,0.0,-4.5021,-5.1641,-5.3213,-5.2281,-5.1003,-4.9686,-4.832,-4.2967,-3.2227,-2.9965,0.0,0.0,0.0,0.0,0.0,0.0,0.0,0.0,0.0,0.0,0.0,0.0,0.0,0.0,0.0,0.0,0.0,0.0,0.0,0.0,0.0,0.0,0.0,0.0,0.0,0.0,0.0,0.0,0.0,0.0,0.0,0.0,0.0,0.0,0.0,0.0,0.0,0.0,0.0,0.0,0.0,0.0,0.0,0.0,0.0,0.0,0.0,0.0,0.0,0.0,0.0,0.0,0.0,0.0,0.0,0.0,0.0,0.0,0.0,0.0,0.0,0.0,0.0,0.0,0.0,0.0,0.0,0.0,0.0,0.0,0.0,0.0,0.0,0.0,0.0,0.0,0.0,0.0,0.0,0.0,0.0,0.0,0.0,0.0,0.0,0.0,0.0,0.0,0.0,0.0,0.0,0.0,0.0,0.0,0.0,0.0,0.0,0.0,0.0,0.0,0.0,0.0,-4.2345,-4.601,-5.0198,-5.0431,-5.006,-4.9735,-4.7699,-4.2847,-3.4338,-3.0123,0.0,0.0,0.0,0.0,0.0,0.0,0.0,0.0,0.0,0.0,0.0,0.0,0.0,0.0,0.0,0.0,0.0,0.0,0.0,0.0,0.0,0.0,0.0,0.0,0.0,0.0,0.0,0.0,0.0,0.0,0.0,0.0,0.0,0.0,0.0,0.0,0.0,0.0,0.0,0.0,0.0,0.0,0.0,0.0,0.0,0.0,0.0,0.0,0.0,0.0,0.0,0.0,0.0,0.0,0.0,0.0,0.0,0.0,0.0,0.0,0.0,0.0,0.0,0.0,0.0,0.0,0.0,0.0,0.0,0.0,0.0,0.0,0.0,0.0,0.0,0.0,0.0,0.0,0.0,0.0,0.0,0.0,0.0,0.0,0.0,0.0,0.0,0.0,0.0,0.0,0.0,0.0,0.0,0.0,0.0,0.0,0.0,0.0,0.0,0.0,0.0,0.0,-3.5856,-4.0796,-4.8918,-4.9222,-4.8873,-4.8873,-4.7067,-4.2487,-3.4194,-3.0369,0.0,0.0,0.0,0.0,0.0,0.0,0.0,0.0,0.0,0.0,0.0,0.0,0.0,0.0,0.0,0.0,0.0,0.0,0.0,0.0,0.0,0.0,0.0,0.0,0.0,0.0,0.0,0.0,0.0,0.0,0.0,0.0,0.0,0.0,0.0,0.0,0.0,0.0,0.0,0.0,0.0,0.0,0.0,0.0,0.0,0.0,0.0,0.0,0.0,0.0,0.0,0.0,0.0,0.0,0.0,0.0,0.0,0.0,0.0,0.0,0.0,0.0,0.0,0.0,0.0,0.0,0.0,0.0,0.0,0.0,0.0,0.0,0.0,0.0,0.0,0.0,0.0,0.0,0.0,0.0,0.0,0.0,0.0,0.0,0.0,0.0,0.0,0.0,0.0,0.0,0.0,0.0,0.0,0.0,0.0,0.0,0.0,0.0,0.0,0.0,0.0,0.0,0.0,-3.6694,-4.6941,-4.7711,-4.7537,-4.7537,-4.6533,-4.1992,-3.2986,0.0,0.0,0.0,0.0,0.0,0.0,0.0,0.0,0.0,0.0,0.0,0.0,0.0,0.0,0.0,0.0,0.0,0.0,0.0,0.0,0.0,0.0,0.0,0.0,0.0,0.0,0.0,0.0,0.0,0.0,0.0,0.0,0.0,0.0,0.0,0.0,0.0,0.0,0.0,0.0,0.0,0.0,0.0,0.0,0.0,0.0,0.0,0.0,0.0,0.0,0.0,0.0,0.0,0.0,0.0,0.0,0.0,0.0,0.0,0.0,0.0,0.0,0.0,0.0,0.0,0.0,0.0,0.0,0.0,0.0,0.0,0.0,0.0,0.0,0.0,0.0,0.0,0.0,0.0,0.0,0.0,0.0,0.0,0.0,0.0,0.0,0.0,0.0,0.0,0.0,0.0,0.0,0.0,0.0,0.0,0.0,0.0,0.0,0.0,0.0,0.0,0.0,0.0,0.0,-3.5624,-3.9648,-4.3741,-4.6184,-4.6184,-4.601,-4.1725,-3.1926,0.0,0.0,0.0,0.0,0.0,0.0,0.0,0.0,0.0,0.0,0.0,0.0,0.0,0.0]}],[{"header":{"parameterUnit":"kt","parameterCategory":2,"dx":1,"dy":1,"la1":29.285339999999998,"la2":30.599998999999997,"lo1":-89.70041500000002,"lo2":-87.6738589999976,"nx":112,"ny":82,"refTime":"2022-10-22T00:00:00:Z","depth":0,"parameterNumber":2,"parameterNumberName":"V-component_of_WINDS"},"data":[8.9635,9.1729,0.0,7.9107,7.678,0.0,6.2355,0.0,5.7934,0.0,0.0,0.0,0.0,0.0,0.0,0.0,0.0,0.0,0.0,0.0,0.0,0.0,0.0,0.0,0.0,0.0,0.0,0.0,0.0,0.0,0.0,0.0,10.3362,10.3362,10.5922,10.7259,10.7259,10.7259,10.7259,10.7318,10.8597,10.9412,10.9877,11.1098,11.2436,11.3658,11.4574,11.7296,12.1119,12.2029,12.4314,12.7231,12.8101,12.79,12.6914,12.5467,12.5204,12.5467,12.4546,12.3297,12.2048,12.2048,12.1719,12.1258,12.1258,12.1258,12.139,12.1916,12.1653,12.139,12.1916,12.1653,12.1258,12.1258,12.1258,12.1258,12.1258,12.1258,12.1258,12.1258,12.1258,12.1258,12.1258,12.1258,12.1258,12.1258,12.1258,12.1258,12.1258,12.1258,12.1258,12.1258,12.1258,12.1258,12.1258,12.1258,12.1258,12.1258,12.1258,12.1258,12.1258,12.1258,12.1258,12.1258,12.3578,12.5302,12.6348,12.8763,13.0521,13.1573,13.1573,13.1573,0.0,0.0,8.3586,7.0265,0.0,0.0,0.0,0.0,0.0,0.0,0.0,0.0,0.0,0.0,0.0,0.0,0.0,0.0,0.0,0.0,0.0,0.0,0.0,0.0,0.0,0.0,0.0,0.0,0.0,0.0,0.0,10.2373,10.47,10.47,10.6387,10.7259,10.7259,10.7259,10.7259,10.7318,10.8132,10.8871,10.9337,10.9993,11.1098,11.232,11.232,11.4645,11.8527,11.8527,12.0848,12.4674,12.5485,12.5681,12.5401,12.3955,12.3757,12.402,12.3034,12.2113,12.1258,12.1258,12.1258,12.1258,12.1258,12.1258,12.1258,12.1258,12.1258,12.1258,12.1258,12.1258,12.1258,12.1258,12.1258,12.1258,12.1258,12.1258,12.1258,12.1258,12.1258,12.1258,12.1258,12.1258,12.1258,12.1258,12.1258,12.1258,12.1258,12.1258,12.1258,12.1258,12.1258,12.1258,12.1258,12.1258,12.1258,12.1258,12.1258,12.1258,12.1258,12.1258,12.1258,12.1258,12.2928,12.435,12.5502,12.7865,12.9668,13.0739,13.1292,13.1573,0.0,0.0,0.0,5.9097,0.0,0.0,0.0,0.0,5.078,0.0,0.0,0.0,0.0,0.0,0.0,0.0,0.0,0.0,0.0,0.0,0.0,0.0,0.0,0.0,0.0,0.0,0.0,0.0,0.0,0.0,10.2781,10.5863,10.7259,10.7259,10.7259,10.7259,10.7259,10.7259,10.7259,10.7259,10.7259,10.7957,10.9221,10.9221,10.9761,11.0924,11.0924,11.1025,11.1286,11.379,11.6188,11.8511,12.11,12.3416,12.5191,12.3811,12.2508,12.1258,12.1258,12.1258,12.1258,12.1258,12.1258,12.1258,12.1258,12.1258,12.1258,12.1258,12.1258,12.1258,12.1258,12.1258,12.1258,12.1258,12.1258,12.1258,12.1258,12.1258,12.1258,12.1258,12.1258,12.1258,12.1258,12.1258,12.1258,12.1258,12.1258,12.1258,12.1258,12.1258,12.1258,12.1258,12.1258,12.1258,12.1258,12.1258,12.1258,12.1258,12.1258,12.1258,12.1258,12.1258,12.1258,12.1258,12.2922,12.379,12.393,12.7309,12.9078,12.9195,13.0793,13.1573,6.4158,0.0,0.0,0.0,0.0,0.0,0.0,0.0,0.0,0.0,0.0,0.0,0.0,0.0,0.0,0.0,0.0,0.0,0.0,0.0,0.0,0.0,0.0,0.0,0.0,0.0,0.0,0.0,0.0,9.6208,10.4409,10.6387,10.7259,10.7259,10.7259,10.7259,10.7259,10.7259,10.7259,10.7259,10.7259,10.7492,10.7783,10.7783,10.8481,10.9702,10.9702,11.131,11.3828,11.3448,11.4751,11.7228,11.9636,12.0233,12.013,12.1375,12.1587,12.1258,12.1258,12.1258,12.1258,12.1258,12.1258,12.1258,12.1258,12.1258,12.1258,12.1258,12.1258,12.1258,12.1258,12.1258,12.1258,12.1258,12.1258,12.1258,12.1258,12.1258,12.1258,12.1258,12.1258,12.1258,12.1258,12.1258,12.1258,12.1258,12.1258,12.1258,12.1258,12.1258,12.1258,12.1258,12.1258,12.1258,12.1258,12.1258,12.1258,12.1258,12.1258,12.1258,12.1258,12.1258,12.1258,12.1258,12.1723,12.3216,12.5632,12.6604,12.8408,13.0972,13.1416,13.1573,0.0,0.0,0.0,0.0,0.0,0.0,4.9674,0.0,4.6417,0.0,0.0,0.0,0.0,0.0,0.0,0.0,0.0,0.0,0.0,0.0,0.0,0.0,0.0,0.0,0.0,0.0,0.0,0.0,10.2141,9.993,10.5863,10.6852,10.7259,10.7259,10.7259,10.7259,10.7259,10.7259,10.7259,10.7259,10.7259,10.7259,10.7259,10.7259,10.7667,10.8365,10.8365,10.9702,11.1599,11.079,11.1833,11.4284,11.6663,11.7643,11.8078,12.0422,12.1258,12.1258,12.1258,12.1258,12.1258,12.1258,12.1258,12.1258,12.1258,12.1258,12.1258,12.1258,12.1258,12.1258,12.1258,12.1258,12.1258,12.1258,12.1258,12.1258,12.1258,12.1258,12.1258,12.1258,12.1258,12.1258,12.1258,12.1258,12.1258,12.1258,12.1258,12.1258,12.1258,12.1258,12.1258,12.1258,12.1258,12.1258,12.1258,12.1258,12.1258,12.1258,12.1258,12.1258,12.1258,12.1258,12.1258,12.1258,12.1258,12.263,12.5302,12.6025,12.8158,13.1573,13.1573,13.1573,0.0,0.0,0.0,0.0,5.299,0.0,0.0,0.0,4.9965,4.7624,0.0,0.0,0.0,0.0,0.0,0.0,0.0,0.0,0.0,0.0,0.0,0.0,0.0,0.0,0.0,9.8883,10.2839,11.0633,10.4758,10.2781,10.7259,10.7376,10.7259,10.7259,10.7259,10.7259,10.7259,10.7259,10.7259,10.7259,10.7259,10.7259,10.7259,10.7259,10.7259,10.7259,10.7259,10.7259,10.7259,10.7259,10.8696,11.0999,11.3353,11.5702,11.8078,12.0422,12.1258,12.1258,12.1258,12.1258,12.1258,12.1258,12.1258,12.1258,12.1258,12.1258,12.1258,12.1258,12.1258,12.1258,12.1258,12.1258,12.1258,12.1258,12.1258,12.1258,12.1258,12.1258,12.1258,12.1258,12.1258,12.1258,12.1258,12.1258,12.1258,12.1258,12.1258,12.1258,12.1258,12.1258,12.1258,12.1258,12.1258,12.1258,12.1258,12.1258,12.1258,12.1258,12.1258,12.1258,12.1258,12.1258,12.1258,12.1258,12.1258,12.2255,12.4073,12.5566,12.8158,13.1573,13.1573,13.1573,0.0,0.0,0.0,0.0,0.0,4.9267,0.0,0.0,0.0,0.0,0.0,0.0,0.0,0.0,0.0,0.0,0.0,0.0,0.0,0.0,0.0,0.0,0.0,0.0,10.9761,11.0808,11.1855,11.2553,11.0226,10.8772,10.883,10.7841,10.7259,10.7259,10.7259,10.7259,10.7259,10.7259,10.7259,10.7259,10.7259,10.7259,10.7259,10.7259,10.7259,10.7259,10.7259,10.7259,10.7259,10.7259,10.8696,11.0999,11.3353,11.5702,11.8078,12.0422,12.1258,12.1258,12.1258,12.1258,12.1258,12.1258,12.1258,12.1258,12.1258,12.1258,12.1258,12.1258,12.1258,12.1258,12.1258,12.1258,12.1258,12.1258,12.1258,12.1258,12.1258,12.1258,12.1258,12.1258,12.1258,12.1258,12.1258,12.1258,12.1258,12.1258,12.1258,12.1258,12.1258,12.1258,12.1258,12.1258,12.1258,12.1258,12.1258,12.1258,12.1258,12.1258,12.1258,12.1258,12.1258,12.1258,12.1258,12.1258,12.1258,12.2783,12.5829,12.6219,12.8158,13.1573,13.1573,13.1573,0.0,0.0,0.0,4.6126,0.0,0.0,0.0,5.0838,5.4851,6.2587,6.4681,6.631,7.0149,7.1952,7.2592,7.1952,7.9398,8.5912,8.7832,9.9174,0.0,0.0,0.0,0.0,11.3949,11.453,11.4647,11.4007,11.2087,11.0168,10.8306,10.7608,10.7259,10.7259,10.7259,10.7259,10.7259,10.7259,10.7259,10.7259,10.7259,10.7259,10.7259,10.7259,10.7259,10.7259,10.7259,10.7259,10.7259,10.7259,10.8696,11.0999,11.3353,11.5702,11.8078,12.0422,12.1258,12.1258,12.1258,12.1258,12.1258,12.1258,12.1258,12.1258,12.1258,12.1258,12.1258,12.1258,12.1258,12.1258,12.1258,12.1258,12.1258,12.1258,12.1258,12.1258,12.1258,12.1258,12.1258,12.1258,12.1258,12.1258,12.1258,12.1258,12.1258,12.1258,12.1258,12.1258,12.1258,12.1258,12.1258,12.1258,12.1258,12.1258,12.1258,12.1258,12.1258,12.1258,12.1258,12.1258,12.1258,12.1258,12.1258,12.1258,12.2106,12.3793,12.6348,12.6348,12.8158,13.1573,13.1573,13.1573,0.0,0.0,0.0,0.0,0.0,0.0,4.5968,4.9396,5.4859,0.0,6.5961,6.9567,7.6315,7.9514,8.0735,7.9688,8.6668,9.4695,10.1617,10.662,10.9179,10.8132,11.2087,11.4879,11.4879,11.4879,11.4879,11.4879,11.2436,10.9877,10.7434,10.7259,10.7259,10.7259,10.7259,10.7259,10.7259,10.7259,10.7259,10.7259,10.7259,10.7259,10.7259,10.7259,10.7259,10.7259,10.7259,10.7259,10.7259,10.7259,10.8696,11.0967,11.2908,11.536,11.8078,11.9967,12.0952,12.1258,12.1258,12.1258,12.1258,12.1258,12.1258,12.1258,12.1258,12.1258,12.1258,12.1258,12.1258,12.1258,12.1258,12.1258,12.1258,12.1258,12.1258,12.1258,12.1258,12.1258,12.1258,12.1258,12.1258,12.1258,12.1258,12.1258,12.1258,12.1258,12.1258,12.1258,12.1258,12.1258,12.1258,12.1258,12.1258,12.1258,12.1258,12.1258,12.1258,12.1258,12.1258,12.1258,12.1258,12.1258,12.1258,12.1258,12.263,12.435,12.6348,12.6025,12.7673,13.1132,13.1132,13.1239,0.0,0.0,0.0,0.0,0.0,0.0,6.2297,6.7997,7.3406,0.0,9.2776,9.6382,9.5015,9.5945,9.6964,9.6789,9.8709,10.1675,10.6038,10.9004,11.0749,11.0575,11.3134,11.4879,11.4879,11.4879,11.4879,11.4879,11.2436,10.9877,10.7434,10.7259,10.7259,10.7259,10.7259,10.7259,10.7259,10.7259,10.7259,10.7259,10.7259,10.7259,10.7259,10.7259,10.7259,10.7259,10.7259,10.7259,10.7259,10.7259,10.8696,11.0875,11.1152,11.391,11.7769,11.8078,11.9508,12.1258,12.1258,12.1258,12.1258,12.1258,12.1258,12.1258,12.1258,12.1258,12.1258,12.1258,12.1258,12.1258,12.1258,12.1258,12.1258,12.1258,12.1258,12.1258,12.1258,12.1258,12.1258,12.1258,12.1258,12.1258,12.1258,12.1258,12.1258,12.1258,12.1258,12.1258,12.1258,12.1258,12.1258,12.1258,12.1258,12.1258,12.1258,12.1258,12.1258,12.1258,12.1258,12.1258,12.1258,12.1258,12.1258,12.1258,12.1487,12.3077,12.6348,12.4831,12.5898,12.9311,12.9311,13.0118,0.0,0.0,0.0,0.0,0.0,0.0,5.9156,6.5438,7.2418,0.0,8.9111,9.3823,9.7921,10.0396,10.2024,10.2839,10.4002,10.5398,10.7027,10.883,11.0226,11.0924,11.2611,11.4065,11.4821,11.4879,11.4879,11.4879,11.1098,10.9004,10.9412,10.8074,10.7259,10.7259,10.7259,10.7259,10.7259,10.7259,10.7259,10.7259,10.7259,10.7259,10.7259,10.7259,10.7259,10.7259,10.7259,10.7259,10.7259,10.7259,10.7885,10.902,11.1733,11.406,11.6041,11.8806,12.05,12.1258,12.1258,12.1258,12.1258,12.1258,12.1258,12.1258,12.1258,12.1258,12.1258,12.1258,12.1258,12.1258,12.1258,12.1258,12.1258,12.1258,12.1258,12.1258,12.1258,12.1258,12.1258,12.1258,12.1258,12.1258,12.1258,12.1258,12.1258,12.1258,12.1258,12.1258,12.1258,12.1258,12.1258,12.1258,12.1258,12.1258,12.1258,12.1258,12.1258,12.1258,12.1258,12.1258,12.1258,12.1258,12.1258,12.1258,12.1258,12.2484,12.4831,12.4142,12.4557,12.6028,12.7072,12.8045,3.8774,0.0,0.0,0.0,0.0,0.0,0.0,0.0,7.3648,8.1899,8.7192,9.2485,9.9349,10.2432,10.4351,10.5689,10.6678,10.7259,10.7259,10.8365,10.9528,11.04,11.1971,11.3367,11.4298,11.4705,11.4879,0.0,11.1157,10.947,11.0924,10.8946,10.7667,10.7318,10.7259,10.7259,10.7259,10.7259,10.7259,10.7259,10.7259,10.7259,10.7259,10.7259,10.7259,10.7259,10.7259,10.7259,10.7259,10.7259,10.7259,10.7651,11.106,11.3176,11.467,11.816,12.0201,12.1258,12.1258,12.1258,12.1258,12.1258,12.1258,12.1258,12.1258,12.1258,12.1258,12.1258,12.1258,12.1258,12.1258,12.1258,12.1258,12.1258,12.1258,12.1258,12.1258,12.1258,12.1258,12.1258,12.1258,12.1258,12.1258,12.1258,12.1258,12.1258,12.1258,12.1258,12.1258,12.1258,12.1258,12.1258,12.1258,12.1258,12.1258,12.1258,12.1258,12.1258,12.1258,12.1258,12.1258,12.1258,12.1258,12.1258,12.1258,12.1949,12.3144,12.2743,12.2542,12.2614,12.4466,12.5894,0.0,0.0,0.0,0.0,0.0,0.0,7.6024,0.0,8.3837,9.0275,9.6615,10.1501,10.3013,10.4409,10.5747,10.7027,10.7259,10.7259,10.7259,10.8365,10.9337,10.9337,11.1447,11.3018,11.3018,11.4181,11.4879,11.4879,11.36,11.2262,11.104,10.9819,10.8539,10.7318,10.7259,10.7259,10.7259,10.7259,10.7259,10.7259,10.7259,10.7259,10.7259,10.7259,10.7259,10.7259,10.7259,10.7259,10.7259,10.7259,10.7259,10.7259,10.7456,11.0283,11.4322,11.4497,11.7358,12.1258,12.1258,12.1258,12.1258,12.1258,12.1258,12.1258,12.1258,12.1258,12.1258,12.1258,12.1258,12.1258,12.1258,12.1258,12.1258,12.1258,12.1258,12.1258,12.1258,12.1258,12.1258,12.1258,12.1258,12.1258,12.1258,12.1258,12.1258,12.1258,12.1258,12.1258,12.1258,12.1258,12.1258,12.1258,12.1258,12.1258,12.1258,12.1258,12.1258,12.1258,12.1258,12.1258,12.1258,12.1258,12.1258,12.1258,12.1258,12.1335,12.1335,11.9953,11.9295,11.9304,12.1161,12.3809,4.6359,0.0,0.0,0.0,6.7648,7.0847,8.0735,8.597,8.9809,9.3707,9.8185,10.185,10.313,10.5165,10.6794,10.7201,10.7259,10.7259,10.7259,10.7667,10.8248,10.9221,11.0633,11.2029,11.2902,11.4123,11.4879,11.4879,11.2145,0.0,11.0982,10.8248,10.6852,10.7259,10.7259,10.7259,10.7259,10.7259,10.7259,10.7259,10.7259,10.7259,10.7259,10.7259,10.7259,10.7259,10.7259,10.7259,10.7259,10.7259,10.7259,10.7651,11.0749,11.2908,11.467,11.7769,11.9967,12.1258,12.1258,12.1258,12.1258,12.1258,12.1258,12.1258,12.1258,12.1258,12.1258,12.1258,12.1258,12.1258,12.1258,12.1258,12.1258,12.1258,12.1258,12.1258,12.1258,12.1258,12.1258,12.1258,12.1258,12.1258,12.1258,12.1258,12.1258,12.1258,12.1258,12.1258,12.1258,12.1258,12.1258,12.1258,12.1258,12.1258,12.1258,12.1258,12.1258,12.1258,12.1258,12.1258,12.1258,12.1258,12.1258,12.1258,12.1258,12.0798,11.9878,11.8365,11.8237,11.932,11.9986,12.1509,0.0,0.0,0.0,6.8786,7.4185,7.8251,8.417,8.886,9.2834,9.5801,9.9465,10.2548,10.3828,10.5863,10.7259,10.7259,10.7259,10.7259,10.7259,10.7259,10.7608,10.8423,10.9993,11.1331,11.2204,11.389,11.4879,11.4879,11.2611,11.1157,11.0982,10.8714,10.7376,10.7259,10.7259,10.7259,10.7259,10.7259,10.7259,10.7259,10.7259,10.7259,10.7259,10.7259,10.7259,10.7259,10.7259,10.7259,10.7259,10.7259,10.7259,10.7749,11.152,11.3531,11.4757,11.8645,12.0577,12.1258,12.1258,12.1258,12.1258,12.1258,12.1258,12.1258,12.1258,12.1258,12.1258,12.1258,12.1258,12.1258,12.1258,12.1258,12.1258,12.1258,12.1258,12.1258,12.1258,12.1258,12.1258,12.1258,12.1258,12.1258,12.1258,12.1258,12.1258,12.1258,12.1258,12.1258,12.1258,12.1258,12.1258,12.1258,12.1258,12.1258,12.1258,12.1258,12.1258,12.1258,12.1258,12.1258,12.1258,12.1258,12.1258,12.1258,12.0798,11.9812,11.8299,11.6787,11.6936,11.8607,11.867,11.9326,0.0,5.5472,0.0,7.1015,7.7167,8.197,0.0,0.0,9.3128,9.7049,10.0919,10.3886,10.5224,10.6445,10.7259,10.7259,10.7259,10.7259,10.7259,10.7259,10.7259,10.7259,10.947,11.0982,11.0982,11.3367,11.4879,11.4879,11.4879,11.3716,11.1098,11.0982,10.9877,10.7376,10.7259,10.7259,10.7259,10.7259,10.7259,10.7259,10.7259,10.7259,10.7259,10.7259,10.7259,10.7259,10.7259,10.7259,10.7259,10.7259,10.7259,10.7553,10.9908,11.2188,11.4584,11.6944,11.927,12.1258,12.1258,12.1258,12.1258,12.1258,12.1258,12.1258,12.1258,12.1258,12.1258,12.1258,12.1258,12.1258,12.1258,12.1258,12.1258,12.1258,12.1258,12.1258,12.1258,12.1258,12.1258,12.1258,12.1258,12.1258,12.1258,12.1258,12.1258,12.1258,12.1258,12.1258,12.1258,12.1258,12.1258,12.1258,12.1258,12.1258,12.1258,12.1258,12.1258,12.1258,12.1258,12.1258,12.1258,12.1258,12.1258,12.1193,11.968,11.8168,11.6721,11.5274,11.5481,11.7057,11.7235,11.7351,0.0,0.0,7.138,8.256,8.4177,8.4983,0.0,0.0,9.4915,0.0,10.3479,10.5282,10.6561,10.7085,10.7259,10.7259,10.7259,10.7259,10.7259,10.7259,10.7259,10.7259,10.947,11.0982,11.0982,11.3367,11.4879,11.4879,11.4879,11.3716,11.1098,11.0982,10.9877,10.7376,10.7259,10.7259,10.7259,10.7259,10.7259,10.7259,10.7259,10.7259,10.7259,10.7259,10.7259,10.7259,10.7259,10.7259,10.7259,10.7259,10.7259,10.7553,10.9908,11.2188,11.4584,11.6944,11.927,12.1258,12.1258,12.1258,12.1258,12.1258,12.1258,12.1258,12.1258,12.1258,12.1258,12.1258,12.1258,12.1258,12.1258,12.1258,12.1258,12.1258,12.1258,12.1258,12.1258,12.1258,12.1258,12.1258,12.1258,12.1258,12.1258,12.1258,12.1258,12.1258,12.1258,12.1258,12.1258,12.1258,12.1258,12.1258,12.1258,12.1258,12.1258,12.1258,12.1258,12.1258,12.1258,12.1258,12.1258,12.1258,12.0798,11.9746,11.7181,11.5669,11.5274,11.3762,11.3956,11.5508,11.5558,11.618,5.6892,6.6328,7.5607,0.0,8.6012,8.6931,9.1763,9.278,9.465,10.1063,10.3053,10.4191,10.6076,10.691,10.7259,10.7259,10.7259,10.7259,10.7259,10.7259,10.7259,10.7259,10.947,11.0982,11.0982,11.3367,11.4879,11.4879,11.4879,11.4007,11.1971,11.1273,11.011,10.819,10.755,10.7259,10.7259,10.7259,10.7259,10.7259,10.7259,10.7259,10.7259,10.7259,10.7259,10.7259,10.7259,10.7259,10.7259,10.7259,10.7259,10.7553,10.9908,11.2188,11.4584,11.6944,11.927,12.1182,12.0123,11.9809,11.9809,11.9809,11.9809,11.9967,12.1029,12.1258,12.1258,12.1258,12.1258,12.1258,12.1258,12.1258,12.1258,12.1258,12.1258,12.1258,12.1258,12.1258,12.1258,12.1258,12.1258,12.1258,12.1258,12.1258,12.1258,12.1258,12.1258,12.1258,12.1258,12.1258,12.1258,12.1258,12.1258,12.1258,12.1258,12.1258,12.1258,12.1258,12.0667,12.0338,12.0338,11.968,11.8957,11.8168,11.5866,11.442,11.3762,11.2907,11.3359,11.4902,11.4902,11.542,5.1889,6.3319,7.5954,0.0,8.4828,8.7746,0.0,0.0,9.3255,0.0,10.1314,10.2337,10.4895,10.6445,10.7259,10.7259,10.7259,10.7259,10.7259,10.7259,10.7259,10.7259,10.9295,11.0749,11.0749,11.3076,11.4647,11.4647,11.4821,11.4356,11.3076,11.168,11.04,10.9337,10.7957,10.7259,10.7259,10.7259,10.7259,10.7259,10.7259,10.7259,10.7259,10.7259,10.7259,10.7259,10.7259,10.7259,10.7259,10.7259,10.7259,10.7456,10.953,11.1915,11.4584,11.6546,11.8806,12.0577,11.8484,11.7605,11.7358,11.7358,11.7523,11.816,12.0201,12.0809,12.0886,12.1182,12.1105,12.0952,12.1182,12.1258,12.1258,12.1258,12.1258,12.1258,12.1258,12.1258,12.1258,12.1258,12.1258,12.1258,12.1258,12.1258,12.1258,12.1258,12.1258,12.1258,12.1258,12.1258,12.1258,12.1258,12.1258,12.1193,12.0995,12.0995,12.093,12.0667,11.9549,11.8825,11.8825,11.7576,11.6655,11.6261,11.5077,11.3828,11.2513,11.2513,11.3221,11.4575,11.4575,11.4575,6.1888,6.9194,7.5796,8.197,8.388,0.0,9.0245,9.054,9.1961,9.9752,10.2235,10.3525,10.5069,10.6445,10.7259,10.7259,10.7259,10.7259,10.7259,10.7259,10.7259,10.7259,10.8597,10.9528,10.9528,11.1796,11.3309,11.3309,11.4298,11.4356,11.3076,11.168,11.04,10.9337,10.7957,10.7259,10.7259,10.7259,10.7259,10.7259,10.7259,10.7259,10.7259,10.7259,10.7259,10.7259,10.7259,10.7259,10.7259,10.7259,10.7259,10.7358,10.7749,11.0563,11.4322,11.4757,11.6378,11.8322,11.7933,11.6462,11.493,11.493,11.621,11.7851,11.8322,11.8403,11.8806,12.0732,11.9888,11.8806,12.0809,12.1258,12.1258,12.1258,12.1258,12.1258,12.1258,12.1258,12.1258,12.1258,12.1258,12.1258,12.1258,12.1258,12.1258,12.1258,12.1258,12.1258,12.1258,12.1258,12.1258,12.1258,12.1258,12.0798,11.9615,11.9549,11.8957,11.7708,11.7379,11.7247,11.7247,11.6984,11.5735,11.3302,11.3039,11.2776,11.2513,11.2513,11.2725,11.2939,11.2939,11.2939,5.9067,6.6777,7.4497,7.8142,8.1493,8.501,8.9404,9.0487,9.2082,9.738,9.842,9.9369,10.2672,10.4933,10.6271,10.6271,10.6852,10.7259,10.7259,10.7259,10.7259,10.7259,10.8423,10.9279,10.9279,11.1506,11.296,11.296,11.4181,11.4356,11.3076,11.168,11.04,10.9337,10.7957,10.7259,10.7259,10.7259,10.7259,10.7259,10.7259,10.7259,10.7259,10.7259,10.7259,10.7259,10.7259,10.7259,10.7259,10.7259,10.7259,10.7259,10.7259,11.019,11.4147,11.2908,11.4757,11.7441,11.4954,11.338,11.2459,11.2459,11.406,11.621,11.7441,11.7769,11.8322,12.0655,11.9587,11.8322,12.0655,12.1258,12.1258,12.1258,12.1258,12.0952,11.9731,12.0422,12.1258,12.1258,12.1258,12.1258,12.1258,12.1258,12.1258,12.1258,12.1258,12.1258,12.1258,12.1258,12.1258,12.1258,12.0601,11.9878,11.922,11.8431,11.7642,11.6853,11.6129,11.5735,11.5735,11.5011,11.3959,11.2578,11.2513,11.2513,11.2513,11.2513,11.2513,11.2513,11.2513,11.2513,5.7099,6.4998,7.3668,7.5565,7.9505,8.4018,8.8039,9.0408,9.262,9.5852,9.5457,9.5959,10.0607,10.2897,10.4409,10.5224,10.6212,10.6969,10.7259,10.7259,10.7259,10.7259,10.819,10.8772,10.8772,11.0808,11.2145,11.2145,11.36,11.389,11.2611,11.1564,11.04,10.9337,10.7957,10.7259,10.7259,10.7259,10.7259,10.7259,10.7259,10.7259,10.7259,10.7259,10.7259,10.7259,10.7259,10.7259,10.7259,10.7259,10.7259,10.7259,10.7259,10.9814,11.3353,11.1459,11.3114,11.5787,11.2097,11.0503,11.0096,11.0096,11.1915,11.4584,11.5872,11.663,11.7441,11.927,11.8484,11.7605,11.9967,12.0952,12.1182,12.0655,12.0123,11.9428,11.8078,11.927,12.0655,12.1182,12.1258,12.1258,12.1258,12.1258,12.1258,12.1258,12.1258,12.1258,12.1258,12.1258,12.1193,12.0864,11.9812,11.8891,11.8234,11.705,11.6261,11.5932,11.488,11.4222,11.4222,11.317,11.2513,11.2513,11.2513,11.2513,11.2513,11.2513,11.2513,11.2513,11.2513,11.2513,6.6393,7.0885,7.5158,7.8845,7.9349,8.0522,8.6621,8.999,9.3305,9.8173,0.0,9.8147,10.0977,10.0687,10.1268,10.4816,10.5456,10.5922,10.7085,10.7259,10.7259,10.7259,10.7376,10.7434,10.7434,10.8714,10.9528,10.9528,11.1796,11.2553,11.1215,11.104,11.04,10.9337,10.7957,10.7259,10.7259,10.7259,10.7259,10.7259,10.7259,10.7259,10.7259,10.7259,10.7259,10.7259,10.7259,10.7259,10.7259,10.7259,10.7259,10.7259,10.7259,10.8828,11.1091,11.0875,11.0999,11.1367,11.0967,10.94,10.7651,10.7651,11.0656,11.3972,11.2006,11.2908,11.467,11.4844,11.4757,11.5189,11.7523,11.9731,12.0732,11.8645,11.6462,11.5446,11.7358,11.7997,11.8725,12.0952,12.1258,12.1258,12.1258,12.1258,12.1258,12.1258,12.1258,12.1258,12.1258,12.1258,12.0798,11.9483,11.922,11.8036,11.534,11.5011,11.4354,11.2973,11.2776,11.271,11.271,11.2578,11.2513,11.2513,11.2513,11.2513,11.2513,11.2513,11.2513,11.2513,11.2513,11.2513,5.6262,6.1901,6.802,6.9812,7.4266,7.927,8.2856,8.5489,8.8715,0.0,9.5718,9.5859,9.3765,9.7371,10.0454,9.9698,10.2839,10.5805,10.7085,10.7259,10.7259,10.7259,10.7259,10.7259,10.7259,10.8423,10.9279,10.9279,11.0808,11.1215,10.9993,10.9877,10.9295,10.8074,10.755,10.7259,10.7259,10.7259,10.7259,10.7259,10.7259,10.7259,10.7259,10.7259,10.7259,10.7259,10.7259,10.7259,10.7259,10.7259,10.7259,10.7259,10.7259,10.8792,11.0596,10.921,10.953,11.0596,10.921,10.8079,10.7259,10.7259,10.9495,11.2006,11.1152,11.1459,11.2459,11.3884,11.4322,11.4844,11.7193,11.8484,11.8241,11.4434,11.3972,11.4584,11.5446,11.686,11.8484,12.0875,12.1258,12.1258,12.1258,12.1258,12.1258,12.1258,12.1258,12.1258,12.1258,12.0535,11.9812,11.922,11.7576,11.5998,11.4814,11.3894,11.317,11.2578,11.2513,11.2513,11.2513,11.2513,11.2513,11.2513,11.2513,11.2513,11.2513,11.2513,11.2513,11.2513,11.1658,11.1263,5.0857,5.631,6.2875,6.4233,7.0103,7.6604,8.036,8.1879,0.0,0.0,9.3904,9.3532,8.9868,9.4056,0.0,9.5597,10.0279,10.4816,10.6503,10.7027,10.7259,10.7259,10.7259,10.7259,10.7259,10.8074,10.8597,10.8597,10.9761,10.9935,10.8714,10.9104,10.8597,10.7318,10.7259,10.7259,10.7259,10.7259,10.7259,10.7259,10.7259,10.7259,10.7259,10.7259,10.7259,10.7259,10.7259,10.7259,10.7259,10.7259,10.7259,10.7259,10.7259,10.8311,10.953,10.7885,10.8311,10.953,10.7885,10.7259,10.7259,10.7259,10.8828,11.0689,11.0002,11.0223,11.106,11.1915,11.2729,11.3619,11.536,11.5702,11.4868,11.155,11.152,11.2549,11.3972,11.5617,11.7687,12.0732,12.1258,12.1258,12.1258,12.1258,12.1258,12.1258,12.1258,12.1127,12.0732,11.9812,11.8825,11.7971,11.5998,11.4551,11.4091,11.3104,11.2513,11.2513,11.2513,11.2513,11.2513,11.2513,11.2513,11.2513,11.2513,11.2513,11.2513,11.2118,11.1921,11.1855,11.0474,10.9751,5.5898,5.8288,6.2125,6.5929,6.7979,7.136,8.01,8.0185,8.1899,9.3416,9.3765,9.1962,9.1962,9.0973,0.0,9.3474,9.8185,10.2432,10.5049,10.6503,10.7259,10.7259,10.7259,10.7259,10.7259,10.7318,10.7318,10.7318,10.8481,10.8755,10.7376,10.8481,10.8597,10.7318,10.7259,10.7259,10.7259,10.7259,10.7259,10.7259,10.7259,10.7259,10.7259,10.7259,10.7259,10.7259,10.7259,10.7259,10.7259,10.7259,10.7259,10.7259,10.7259,10.7259,10.7358,10.7259,10.7259,10.7358,10.7259,10.7259,10.7259,10.7259,10.8828,11.0317,10.8079,10.8924,11.0317,10.7982,10.902,11.0875,11.0875,11.0875,11.0875,11.0875,10.902,10.86,11.3265,11.4322,11.5702,12.0357,12.1258,12.1258,12.1258,12.1258,12.1258,12.1258,12.1258,12.0798,11.9351,11.9154,11.8036,11.5077,11.4748,11.4091,11.2644,11.2513,11.2513,11.2513,11.2513,11.2513,11.2513,11.2513,11.2513,11.2513,11.2513,11.2513,11.2513,11.1132,11.0408,11.0408,10.8962,10.8236,5.0384,5.4444,5.9254,6.1529,6.4902,6.9771,7.7807,8.0459,8.3183,9.0278,8.905,8.6145,8.44,0.0,0.0,0.0,9.8127,10.2083,10.3769,10.5165,10.598,10.598,10.6736,10.7259,10.7259,10.7259,10.7259,10.7259,10.7667,10.7725,10.7318,10.7667,10.7725,10.7318,10.7259,10.7259,10.7259,10.7259,10.7259,10.7259,10.7259,10.7259,10.7259,10.7259,10.7259,10.7259,10.7259,10.7259,10.7259,10.7259,10.7259,10.7259,10.7259,10.7259,10.7259,10.7259,10.7259,10.7259,10.7259,10.7259,10.7259,10.7259,10.7788,10.8214,10.7553,10.7788,10.8214,10.7553,10.902,11.041,10.8828,10.8407,10.8407,10.8407,10.7788,10.8176,11.1244,11.3176,11.5189,11.8322,12.0201,12.1258,12.1258,12.1258,12.1258,12.1258,12.0469,11.968,11.922,11.8234,11.6853,11.4946,11.3828,11.3039,11.2578,11.2513,11.2513,11.2513,11.2513,11.2513,11.2513,11.2513,11.2513,11.2513,11.2513,11.2513,11.2513,11.1132,11.0408,11.0343,10.791,10.6792,4.9616,5.3688,5.8163,6.0646,6.307,6.6864,7.4443,7.6019,7.8092,8.6017,8.5031,0.0,0.0,0.0,9.2776,9.2485,9.6673,10.0628,10.2373,10.4235,10.5398,10.5398,10.6503,10.7259,10.7259,10.7259,10.7259,10.7259,10.7259,10.7259,10.7259,10.7259,10.7259,10.7259,10.7259,10.7259,10.7259,10.7259,10.7259,10.7259,10.7259,10.7259,10.7259,10.7259,10.7259,10.7259,10.7259,10.7259,10.7259,10.7259,10.7259,10.7259,10.7259,10.7259,10.7259,10.7259,10.7259,10.7259,10.7259,10.7259,10.7259,10.7259,10.7259,10.7259,10.7259,10.7259,10.7259,10.7259,10.8311,10.9115,10.7651,10.7259,10.7259,10.7259,10.7259,10.7982,11.0317,11.1915,11.3708,11.6041,11.7605,11.8886,11.9809,11.9967,12.0071,12.0459,11.9746,11.876,11.7642,11.6655,11.5472,11.4025,11.3039,11.2513,11.2513,11.2513,11.2513,11.2513,11.2513,11.2513,11.2513,11.2513,11.2513,11.2513,11.1987,11.1724,11.1724,10.9751,10.8764,10.8764,10.6397,10.5279,5.2107,5.5192,5.8265,6.1919,6.2249,6.3603,7.061,6.8609,6.8753,8.0952,0.0,0.0,0.0,8.6378,8.789,8.9868,9.4144,9.8154,10.057,10.3071,10.47,10.4816,10.6038,10.691,10.6969,10.7143,10.7259,10.7259,10.7259,10.7259,10.7259,10.7259,10.7259,10.7259,10.7259,10.7259,10.7259,10.7259,10.7299,10.7262,10.7299,10.7299,10.7164,10.7299,10.7259,10.7259,10.7281,10.7281,10.7259,10.7281,10.7281,10.7259,10.7259,10.7259,10.7259,10.7259,10.7259,10.7259,10.7259,10.7259,10.7259,10.7259,10.7259,10.7259,10.7259,10.7259,10.7259,10.7259,10.7259,10.7259,10.7259,10.7259,10.7259,10.7259,10.7259,10.7885,11.0096,11.0689,11.1459,11.3619,11.4147,11.5016,11.7358,11.7705,11.7985,11.8984,11.9023,11.7839,11.5077,11.4617,11.4025,11.2644,11.2513,11.2513,11.2513,11.2513,11.2513,11.2513,11.2513,11.2513,11.2513,11.2513,11.2513,11.2381,11.1066,11.0343,11.0277,10.7449,10.6134,10.6068,10.4687,10.403,4.7464,5.1768,5.6213,5.696,6.2184,6.8015,7.1141,6.914,6.8583,0.0,0.0,0.0,0.0,7.8409,0.0,9.0158,9.3299,9.4928,9.5568,9.7022,9.836,9.9258,10.1443,10.3188,10.4177,10.6096,10.7259,10.7259,10.7259,10.7259,10.7259,10.7259,10.7259,10.7259,10.7259,10.7259,10.7259,10.7259,10.7024,10.6586,10.7082,10.7024,10.6554,10.7045,10.7259,10.7241,10.6794,10.6902,10.7281,10.6735,10.6807,10.7259,10.7259,10.7259,10.7259,10.7259,10.7259,10.7259,10.7259,10.7259,10.7259,10.7259,10.7259,10.7259,10.7259,10.7259,10.7259,10.7259,10.7259,10.7259,10.7259,10.7259,10.7259,10.7259,10.7259,10.7456,10.7982,10.953,11.0907,11.1459,11.3086,11.5016,11.7358,11.6873,11.6825,11.8853,11.7181,11.5537,11.4814,11.3762,11.2907,11.2578,11.2513,11.2513,11.2513,11.2513,11.2513,11.2513,11.2513,11.2513,11.2513,11.2513,11.1987,11.0934,11.0606,10.9882,10.883,10.6989,10.6134,10.6068,10.4687,10.403,4.8046,5.2815,5.6377,5.2488,5.7273,6.2928,6.3077,0.0,0.0,0.0,0.0,0.0,0.0,0.0,7.8467,8.3993,0.0,9.01,9.1845,9.5219,9.7313,9.6848,10.1152,10.3711,10.2606,10.5398,10.7259,10.7259,10.7259,10.7259,10.7259,10.7259,10.7259,10.7259,10.7259,10.7259,10.7259,10.7259,10.7017,10.6298,10.698,10.6899,10.6357,10.7039,10.7259,10.7299,10.6877,10.7017,10.7241,10.6972,10.698,10.7259,10.7259,10.7259,10.7259,10.7259,10.7259,10.7259,10.7259,10.7259,10.7259,10.7259,10.7259,10.7259,10.7259,10.7259,10.7259,10.7259,10.7259,10.7259,10.7259,10.7259,10.7259,10.7259,10.7259,10.7259,10.7259,10.8311,10.921,10.921,11.019,11.1642,11.3365,11.3048,11.2933,11.3991,11.3599,11.3036,11.2321,11.2406,11.2513,11.2513,11.2513,11.2513,11.2513,11.2513,11.2513,11.2513,11.2513,11.225,11.1592,11.1526,11.0869,10.9488,10.8764,10.8041,10.7318,10.5871,10.5148,10.5148,10.4359,10.403,4.9861,5.4851,5.733,5.039,5.2433,5.5718,5.4187,0.0,0.0,0.0,0.0,0.0,0.0,7.3697,7.4861,0.0,0.0,8.44,0.0,0.0,9.772,9.6063,10.1734,10.4758,10.2024,10.5107,10.7259,10.7259,10.7259,10.7259,10.7259,10.7259,10.7259,10.7259,10.7259,10.7259,10.7259,10.7259,10.7017,10.6298,10.698,10.6899,10.6357,10.7039,10.7259,10.7259,10.7242,10.7145,10.7259,10.7184,10.7203,10.7259,10.7259,10.7259,10.7259,10.7259,10.7259,10.7259,10.7259,10.7259,10.7259,10.7259,10.7259,10.7259,10.7259,10.7259,10.7259,10.7259,10.7259,10.7259,10.7259,10.7259,10.7259,10.7259,10.7259,10.7259,10.7259,10.7259,10.7259,10.7259,10.7143,10.7434,10.8669,10.8523,10.8301,10.8288,10.9983,11.0802,10.938,11.1232,11.2513,11.2513,11.2513,11.2513,11.2513,11.2513,11.2513,11.2513,11.2513,11.1921,11.0474,11.0408,10.9619,10.7975,10.6726,10.6003,10.5805,10.4556,10.403,10.403,10.403,10.403,4.6335,5.2176,5.7334,5.5479,5.6871,5.8492,5.7546,0.0,0.0,0.0,0.0,0.0,0.0,6.4507,0.0,0.0,0.0,0.0,8.5738,9.0391,9.3765,9.5655,9.772,10.0163,10.2839,10.5631,10.7259,10.7259,10.7259,10.7259,10.7259,10.7259,10.7259,10.7259,10.7259,10.7259,10.7259,10.7259,10.7017,10.6298,10.698,10.6899,10.6357,10.7039,10.7259,10.7241,10.6685,10.6759,10.7281,10.6626,10.6819,10.7259,10.7259,10.7259,10.7259,10.7259,10.7259,10.7259,10.7259,10.7259,10.7259,10.7259,10.7259,10.7259,10.7259,10.7259,10.7259,10.7259,10.7259,10.7259,10.7259,10.7259,10.7259,10.7259,10.7259,10.7259,10.7259,10.7259,10.7259,10.7259,10.6387,10.6379,10.8489,10.6927,10.6028,10.7978,10.9018,10.9508,10.9252,11.1232,11.2513,11.2513,11.2513,11.2513,11.2513,11.2513,11.2513,11.2513,11.2513,11.1921,11.0474,11.0408,10.9159,10.6463,10.6266,10.5542,10.4359,10.4096,10.403,10.403,10.403,10.403,4.6678,5.1037,5.5195,5.4135,5.5567,5.7026,5.5946,0.0,0.0,0.0,0.0,0.0,0.0,6.1775,6.3693,6.5787,6.98,0.0,0.0,0.0,9.4463,9.5714,9.9989,10.2722,10.2373,10.534,10.7259,10.7259,10.7259,10.7259,10.7259,10.7259,10.7259,10.7259,10.7259,10.7259,10.7259,10.7259,10.7017,10.6298,10.698,10.6794,10.5912,10.6807,10.7124,10.6794,10.6843,10.7002,10.7299,10.7017,10.7061,10.7259,10.7259,10.7259,10.7259,10.7259,10.7259,10.7259,10.7259,10.7259,10.7259,10.7259,10.7259,10.7259,10.7259,10.7259,10.7259,10.7259,10.7259,10.7259,10.7259,10.7259,10.7259,10.7259,10.7259,10.7259,10.7259,10.7259,10.7085,10.6387,10.5805,10.5258,10.4953,10.3836,10.3041,10.3478,10.4833,10.6211,10.7408,10.9403,11.1232,11.2442,11.2513,11.2513,11.2513,11.2513,11.2513,11.2513,11.1789,11.1066,11.0408,10.8896,10.7449,10.6134,10.5345,10.4622,10.403,10.403,10.403,10.403,10.403,10.403,5.0141,0.0,5.6767,5.6053,5.7099,5.7934,0.0,5.624,5.6131,0.0,0.0,0.0,5.9159,6.0147,6.1716,6.474,6.8171,7.2243,7.7362,8.6203,0.0,9.423,10.0687,10.4177,10.2141,10.5165,10.7259,10.7259,10.7259,10.7259,10.7259,10.7259,10.7259,10.7259,10.7259,10.7259,10.7259,10.7259,10.7024,10.6586,10.7082,10.6778,10.5821,10.6853,10.6995,10.6387,10.7002,10.7259,10.7259,10.7259,10.7259,10.7259,10.7259,10.7259,10.7259,10.7259,10.7259,10.7259,10.7259,10.7259,10.7259,10.7259,10.7259,10.7259,10.7259,10.7259,10.7259,10.7259,10.7259,10.7259,10.7259,10.7259,10.7259,10.7259,10.7259,10.7259,10.7259,10.7259,10.691,10.5631,10.5107,10.4177,10.185,10.121,10.0687,9.9698,10.1468,10.3624,10.5868,10.802,11.0069,11.2299,11.2513,11.2513,11.2513,11.2513,11.2381,11.2052,11.1,11.008,10.9422,10.7252,10.5937,10.5608,10.4556,10.403,10.403,10.403,10.403,10.403,10.403,10.403,0.0,6.2486,6.6719,6.7845,6.7178,6.5905,6.4565,6.0726,0.0,5.4377,5.5833,5.6881,5.461,5.7062,5.9505,5.9795,6.5089,7.0905,0.0,7.9514,0.0,0.0,9.5015,9.964,10.2897,10.5689,10.7259,10.7259,10.7259,10.7259,10.7259,10.7259,10.7259,10.7259,10.7259,10.7259,10.7259,10.7259,10.7299,10.7262,10.7299,10.6936,10.6297,10.698,10.6995,10.6387,10.7002,10.7259,10.7259,10.7259,10.7259,10.7259,10.7259,10.7259,10.7259,10.7259,10.7259,10.7259,10.7259,10.7259,10.7259,10.7259,10.7259,10.7259,10.7259,10.7259,10.7259,10.7259,10.7259,10.7259,10.7259,10.7259,10.7259,10.7259,10.7259,10.7259,10.7259,10.7259,10.691,10.5631,10.4351,10.3071,10.1675,10.0454,9.964,9.9581,10.1468,10.3624,10.5868,10.802,11.0069,11.2299,11.2513,11.2513,11.2513,11.2513,11.1987,11.0671,11.0474,10.9225,10.6529,10.62,10.5476,10.4161,10.403,10.403,10.403,10.403,10.403,10.403,10.403,10.403,0.0,6.6966,6.9964,7.0312,7.0433,6.9393,6.4914,6.2413,5.9621,5.4669,5.4436,5.5076,5.4851,5.6015,5.8574,6.3344,6.6892,0.0,0.0,0.0,0.0,9.2834,9.9523,10.4235,10.5689,10.5224,10.5514,10.7143,10.5747,10.5573,10.7201,10.7259,10.7259,10.7259,10.7259,10.7259,10.7259,10.7259,10.7259,10.7259,10.7259,10.6899,10.6357,10.7039,10.6995,10.6387,10.7002,10.6387,0.0,10.662,10.6329,10.4991,10.662,10.7259,10.7259,10.7259,10.7259,10.7259,10.7259,10.7259,10.7259,10.7259,10.7259,10.7259,10.7259,10.7259,10.7259,10.7259,10.7259,10.7259,10.7259,10.7259,10.7259,10.7259,10.7259,10.7259,10.7259,10.6678,10.5689,10.4409,10.3071,10.1792,10.0512,9.9872,9.9581,9.9581,10.019,10.1585,10.3793,10.4738,10.6131,10.8331,10.9694,10.9994,10.864,10.78,10.71,10.6527,10.6112,10.5335,10.4235,10.4547,10.4556,10.403,10.403,10.403,10.403,10.403,10.403,10.403,10.403,10.3504,6.9504,7.1775,7.3542,7.4486,7.4899,7.3465,6.7124,0.0,6.1889,5.5076,5.3621,5.4028,5.5375,5.5898,5.8574,6.5905,0.0,0.0,0.0,0.0,0.0,9.3823,9.9581,10.3653,10.5282,10.4933,10.534,10.7143,10.5631,10.5398,10.7201,10.7259,10.7259,10.7259,10.7259,10.7259,10.7259,10.7259,10.7259,10.7259,10.7259,10.6899,10.6357,10.7039,10.6995,10.6387,10.7002,10.5805,10.3595,10.6212,10.5747,10.3653,10.6271,10.7259,10.7259,10.7259,10.7259,10.7259,10.7259,10.7259,10.7259,10.7259,10.7259,10.7259,10.7259,10.7259,10.7259,10.7259,10.7259,10.7259,10.7259,10.7259,10.7259,10.7259,10.7259,10.7143,10.6736,10.598,10.4875,10.313,10.2083,10.1094,9.9756,9.9581,9.9581,9.9581,9.9581,10.028,10.2485,10.283,10.3624,10.5868,10.7471,10.7219,10.4678,10.4298,10.3844,10.2972,10.2977,10.2855,10.2336,10.3426,10.403,10.403,10.403,10.403,10.403,10.403,10.403,10.3964,10.3504,10.2452,7.5371,7.7258,7.8391,8.1937,8.1657,7.8888,0.0,0.0,6.2936,5.5251,5.3679,5.4086,5.5375,5.6654,5.9675,0.0,0.0,0.0,8.1391,8.3586,8.6319,0.0,9.3183,9.5917,10.0977,10.4991,10.7259,10.7259,10.7259,10.7259,10.7259,10.7259,10.7259,10.7259,10.7259,10.7259,10.7259,10.7259,10.7259,10.7259,10.7259,10.6958,10.6327,10.7039,10.6995,10.6387,10.7002,10.5805,10.3537,10.6212,10.5747,10.3595,10.6271,10.7259,10.7259,10.7259,10.7259,10.7259,10.7259,10.7259,10.7259,10.7259,10.7259,10.7259,10.7259,10.7259,10.7259,10.7259,10.7259,10.7259,10.7259,10.7259,10.7259,10.7259,10.7259,10.691,10.5631,10.534,10.4584,10.1966,10.1443,10.1036,9.9756,9.9581,9.9581,9.9581,9.9581,10.028,10.2485,10.283,10.3624,10.5868,10.6112,10.4658,10.1132,10.2853,10.2956,10.0217,10.1899,10.2336,10.092,10.2838,10.403,10.403,10.403,10.403,10.403,10.403,10.403,10.3964,10.2386,10.0873,7.5814,7.8245,8.0545,8.3086,8.3414,8.0968,0.0,0.0,6.5438,5.6771,5.4968,5.5375,5.6713,5.869,6.2006,0.0,0.0,7.7304,8.4051,8.7715,9.1962,0.0,0.0,10.0163,10.2548,10.3828,10.4526,10.4526,10.4526,10.534,10.7201,10.7259,10.7259,10.7259,10.7259,10.7259,10.7259,10.7259,10.7259,10.7259,10.7259,10.7242,10.7002,10.7203,10.7242,10.7002,10.7203,10.4758,10.1036,10.5456,10.4642,10.1152,10.5573,10.7259,10.7259,10.7259,10.7259,10.7259,10.7259,10.7259,10.7259,10.7259,10.7259,10.7259,10.7259,10.7259,10.7259,10.7259,10.7259,10.7259,10.7259,10.7259,10.7259,10.7259,10.7259,10.691,10.5631,10.4642,10.3479,10.1792,10.0745,9.9989,9.964,9.9581,9.9581,9.9581,9.9581,9.9705,10.037,10.0459,10.0817,10.1468,10.0637,9.9663,9.8667,9.7591,9.6589,9.5733,9.809,9.9293,9.8853,10.2163,10.403,10.403,10.403,10.403,10.403,10.403,10.3438,10.232,10.186,10.0873,7.8732,8.0266,8.1378,8.3626,8.4148,8.2056,7.4221,0.0,6.6717,5.8748,5.6305,5.648,5.9272,6.1424,6.5087,0.0,0.0,0.0,8.7425,9.138,9.5452,10.0803,10.1908,0.0,0.0,10.4002,10.3828,10.4875,10.4933,10.5631,10.7201,10.7259,10.7259,10.7259,10.7259,10.7259,10.7259,10.7259,10.7259,10.7259,10.7259,10.7259,10.7259,10.7259,10.7259,10.7259,10.7259,10.4933,10.1385,10.5573,10.4816,10.1501,10.5631,10.7259,10.7259,10.7259,10.7259,10.7259,10.7259,10.7259,10.7259,10.7259,10.7259,10.7259,10.7259,10.7259,10.7259,10.7259,10.7259,10.7259,10.7259,10.7259,10.7143,10.662,10.6503,10.6038,10.4235,10.3188,10.2257,10.0977,10.0105,9.9581,9.9581,9.9581,9.9581,9.9581,9.9581,9.9581,9.9581,9.9581,9.9581,9.9581,9.8328,9.7166,9.6208,9.4754,9.3648,9.3125,9.5421,9.6752,9.6752,9.9861,10.1958,10.277,10.2026,10.1703,10.1926,10.1991,10.1143,9.9712,9.9899,9.9492,8.2682,8.2536,8.1698,8.3799,8.4323,8.2637,7.6257,0.0,0.0,6.0842,5.7701,5.7469,6.2006,6.4274,0.0,0.0,0.0,8.2713,9.1147,9.4695,9.7778,10.121,0.0,0.0,10.6678,10.4758,10.4351,10.6736,10.691,10.7027,10.7259,10.7259,10.7259,10.7259,10.7259,10.7259,10.7259,10.7259,10.7259,10.7259,10.7259,10.7259,10.7259,10.7259,10.7259,10.7259,10.7259,10.5805,10.3595,10.6212,10.5747,10.3653,10.6271,10.7259,10.7259,10.7259,10.7259,10.7259,10.7259,10.7259,10.7259,10.7259,10.7259,10.7259,10.7259,10.7259,10.7259,10.7259,10.7259,10.7259,10.7259,10.7259,10.6969,10.5689,10.5282,10.4526,10.2024,10.1443,10.1094,9.9814,9.9581,9.9581,9.9581,9.9581,9.9581,9.9581,9.9581,9.9581,9.9581,9.9581,9.9523,9.9407,9.8037,9.6382,9.4056,9.3765,9.3183,9.202,9.3794,9.4859,9.4859,9.6828,9.878,10.0574,9.8728,9.811,9.8681,9.8415,9.7648,9.6377,9.672,9.6887,8.1083,8.2351,8.3779,8.529,8.5738,8.4051,7.7653,7.4744,0.0,0.0,6.038,6.0031,6.0144,0.0,7.0207,0.0,8.3993,9.0449,9.4405,9.8974,10.2024,0.0,10.3188,0.0,10.4177,10.3711,10.3595,10.4177,10.4235,10.5107,10.7143,10.7259,10.7259,10.7259,10.7259,10.7259,10.7259,10.7259,10.7259,10.7259,10.7259,10.7259,10.7259,10.7259,10.7259,10.7259,10.7259,10.5805,10.3595,10.6212,10.5747,10.3653,10.6271,10.7259,10.7259,10.7259,10.7259,10.7259,10.7259,10.7259,10.7259,10.7259,10.7259,10.7259,10.7259,10.7259,10.7259,10.7259,10.7259,10.7259,10.7259,10.7259,10.6969,10.5689,10.4584,10.3362,10.1792,10.1443,10.1094,9.9814,9.9581,9.9581,9.9581,9.9581,9.9581,9.9581,9.9581,9.9581,9.9581,9.9581,9.9174,9.8095,9.6033,9.4463,9.3881,9.295,9.2252,9.1962,9.3794,9.4859,9.4859,9.6828,9.8188,9.8559,9.7139,9.6526,9.6647,9.5581,9.4327,9.2941,9.3103,9.3221,8.0787,8.2713,8.5252,8.597,8.661,8.6029,8.2073,0.0,0.0,0.0,6.5784,6.4506,6.3227,6.7764,0.0,7.9267,8.6843,9.266,9.4666,9.9847,10.2897,10.1675,10.2606,10.3886,10.5107,10.4118,10.3886,10.5165,10.5282,10.5863,10.7201,10.7259,10.7259,10.7259,10.7259,10.7259,10.7259,10.7259,10.7259,10.7259,10.7259,10.7259,10.7259,10.7259,10.7259,10.7259,10.7259,10.6503,10.534,10.6736,10.6503,10.5398,10.6736,10.7259,10.7259,10.7259,10.7259,10.7259,10.7259,10.7259,10.7259,10.7259,10.7259,10.7259,10.7259,10.7259,10.7259,10.7259,10.7259,10.7259,10.7259,10.6852,10.6212,10.5514,10.3886,10.2257,10.1617,10.0977,10.0338,9.9698,9.9581,9.9581,9.9581,9.9581,9.9581,9.9581,9.9581,9.9581,9.9581,9.8967,9.7805,9.6033,9.4637,9.359,9.3009,9.2311,9.1962,9.1962,9.2929,9.3445,9.3445,9.452,9.5189,9.5602,9.395,9.2979,9.2759,9.201,9.0894,8.9606,9.0525,9.1462,8.155,8.3411,8.5912,8.6378,8.725,8.7715,8.6436,8.3702,0.0,0.0,7.1894,6.9858,6.835,7.201,7.7304,8.3509,8.9111,9.3241,9.4928,9.993,10.2606,0.0,10.2083,10.4409,10.7027,10.534,10.4933,10.7143,10.6852,10.662,10.662,10.662,10.6794,10.7259,10.7259,10.7259,10.7259,10.7259,10.7259,10.7259,10.7259,10.7259,10.7259,10.7259,10.7027,10.662,10.7085,10.7027,10.662,10.7085,10.7259,10.7259,10.7259,10.7259,10.7259,10.7259,10.7259,10.7259,10.7259,10.7259,10.7259,10.7259,10.7259,10.7259,10.7259,10.7259,10.7259,10.7259,10.7143,10.6969,10.6969,10.598,10.4991,10.4758,10.3071,10.1385,10.121,10.0279,9.9581,9.9581,9.9581,9.9581,9.9581,9.9581,9.9581,9.9581,9.9581,9.9465,9.9232,9.7805,9.6208,9.4056,9.3648,9.3125,9.2078,9.1962,9.1962,9.1962,9.1962,9.1962,9.1962,9.1729,9.1859,9.2385,9.0413,8.9121,8.8661,8.8271,8.7538,8.6595,8.8139,8.9822,8.316,8.4032,8.4962,8.725,8.789,8.7715,8.6436,8.5738,8.3935,7.8816,0.0,7.4861,7.2418,7.5268,7.9747,8.504,0.0,9.6499,9.9989,10.2141,10.3246,10.2897,10.3188,10.4409,10.7027,10.6969,10.691,10.7259,10.5165,10.3886,10.3886,10.3886,10.4933,10.7201,10.7259,10.7259,10.7259,10.7259,10.7259,10.7259,10.7259,10.7259,10.7259,10.7259,10.6038,10.4002,10.6329,10.598,10.406,10.6329,10.7259,10.7259,10.7259,10.7259,10.7259,10.7259,10.7259,10.7259,10.7259,10.7259,10.7259,10.7259,10.7259,10.7259,10.7259,10.7259,10.7259,10.7259,10.6503,10.5631,10.5631,10.4642,10.3362,10.2257,10.1734,10.1152,10.0047,9.9698,9.9581,9.9581,9.9581,9.9581,9.9581,9.9581,9.9581,9.9581,9.9581,9.9174,9.7979,9.5859,9.423,9.3881,9.2892,9.2136,9.1962,9.1962,9.1962,9.1962,9.1962,9.1962,9.1962,9.0856,9.0299,9.0394,8.7912,8.6652,8.6479,8.5369,8.4726,8.461,8.478,8.5928,7.8932,8.2015,8.5738,8.7599,8.8588,8.9228,8.9344,8.9402,8.8123,8.3702,8.1841,0.0,7.5675,7.7478,8.1026,0.0,0.0,0.0,9.8709,9.9174,9.964,0.0,10.121,0.0,10.4816,10.5747,10.5631,10.4118,10.4991,10.5573,10.5573,10.5573,10.6096,10.7259,10.7259,10.7259,10.7259,10.7259,10.7259,10.7259,10.7259,10.7259,10.7259,10.7259,10.6678,10.5631,10.6794,10.662,10.5631,10.6794,10.7259,10.7259,10.7259,10.7259,10.7259,10.7259,10.7259,10.7259,10.7259,10.7259,10.7259,10.7259,10.7259,10.7259,10.7259,10.6794,10.6212,10.6212,10.5282,10.4235,10.4235,10.3304,10.2141,10.1617,10.0919,10.0221,9.9698,9.9581,9.9581,9.9581,9.9581,9.9581,9.9581,9.9581,9.9291,9.8502,9.8386,9.7689,9.5801,9.4579,9.359,9.2892,9.2311,9.1962,9.1962,9.1962,9.1962,9.1962,9.1962,9.1613,9.0915,9.025,8.9262,8.789,8.6727,8.5796,8.502,8.4439,8.4148,8.4148,8.4148,8.5236,7.5791,7.9805,8.4749,8.7017,8.8588,8.9868,9.1147,9.1729,9.1147,8.8239,8.6668,8.4633,0.0,0.0,0.0,8.8006,9.0507,0.0,9.8418,9.8302,0.0,9.9407,0.0,10.0163,10.1734,10.342,10.342,10.1152,10.4293,10.6271,10.6271,10.6271,10.662,10.7259,10.7259,10.7259,10.7259,10.7259,10.7259,10.7259,10.7259,10.7259,10.7259,10.7259,10.691,10.6329,10.6969,10.691,10.6329,10.7027,10.7259,10.7259,10.7259,10.7259,10.7259,10.7259,10.7259,10.7259,10.7259,10.7259,10.7201,10.691,10.6794,10.6736,10.6387,10.5631,10.4875,10.4875,10.3886,10.2897,10.2897,10.1966,10.0977,10.0977,10.0221,9.9581,9.9581,9.9581,9.9581,9.9581,9.9581,9.9581,9.9581,9.9291,9.856,9.7371,9.7197,9.6266,9.3707,9.3358,9.3009,9.2078,9.1962,9.1962,9.1962,9.1962,9.1845,9.1496,9.1496,9.0856,8.9577,8.9228,8.8123,8.6203,8.5796,8.5136,8.4148,8.4148,8.4148,8.4148,8.4148,8.4933,7.7071,7.8641,8.0096,8.4982,8.7192,8.8472,8.9809,9.1089,9.1903,9.1729,9.0624,8.9611,0.0,0.0,9.0798,9.4724,9.6382,9.8502,10.2548,10.3013,10.2141,0.0,0.0,0.0,0.0,10.0221,10.1094,9.9756,10.2083,10.3595,10.3595,10.3595,10.47,10.7201,10.7259,10.7259,10.7259,10.7259,10.7259,10.7259,10.7259,10.7259,10.7259,10.7259,10.5922,10.3711,10.6212,10.5863,10.3769,10.6271,10.7259,10.7259,10.7259,10.7259,10.7259,10.7259,10.7259,10.7259,10.7259,10.7259,10.7085,10.5863,10.5456,10.5224,10.3944,10.3537,10.3479,10.3479,10.2548,10.1559,10.1559,10.0628,9.964,9.964,9.9581,9.9581,9.9581,9.9581,9.9581,9.9581,9.9581,9.9581,9.9581,9.8444,9.7313,9.6033,9.5946,9.4928,9.2369,9.2078,9.202,9.1962,9.1962,9.1962,9.1962,9.1962,9.1438,9.0134,9.0076,8.9519,8.8181,8.6959,8.6261,8.6145,8.4904,8.4206,8.4148,8.4148,8.4148,8.4148,8.4148,8.4225,7.3116,7.6024,7.9339,8.2829,8.5272,8.7366,8.9577,9.0391,9.0973,9.1787,9.0915,8.996,8.996,8.9344,9.0042,9.3939,9.3532,9.4609,10.0163,9.8127,9.6906,9.9291,9.6673,9.5801,9.8502,9.8851,9.8825,9.827,10.2257,10.4642,10.4642,10.5456,10.6329,10.7259,10.7259,10.7259,10.7259,10.7259,10.7259,10.7259,10.7259,10.7259,10.7259,10.7259,10.6794,10.5922,10.6852,10.6736,10.598,10.691,10.7259,10.7259,10.7259,10.7259,10.7259,10.7259,10.7259,10.7143,10.6329,10.5514,10.47,10.4235,10.4118,10.4002,10.3537,10.2781,10.2141,10.2141,10.121,10.0221,10.0221,9.9872,9.9581,9.9581,9.9581,9.9581,9.9581,9.9581,9.9581,9.9581,9.9581,9.9291,9.8386,9.7863,9.6875,9.487,9.3823,9.3009,9.2078,9.1962,9.1962,9.1962,9.1962,9.1962,9.1962,9.1205,9.0507,9.01,8.9228,8.8181,8.6901,8.6378,8.5738,8.4846,8.4381,8.4148,8.4148,8.4148,8.4148,8.4148,8.4148,8.4148,7.0382,7.3057,7.6722,7.9688,8.2655,8.5563,8.8123,8.9402,9.0275,9.1147,9.0973,9.0798,9.1264,9.0624,9.0973,9.3997,9.3067,9.359,9.8154,9.6033,9.4986,9.7953,9.5277,9.423,9.6731,9.734,9.7921,9.8793,10.2548,10.47,10.47,10.5514,10.6154,10.662,10.662,10.6852,10.7259,10.7259,10.7259,10.7259,10.7259,10.7259,10.7259,10.7259,10.7259,10.7259,10.7259,10.7259,10.7259,10.7259,10.7259,10.7259,10.7259,10.7259,10.7259,10.7259,10.6736,10.5863,10.4991,10.4118,10.3304,10.2897,10.2722,10.2664,10.2257,10.1501,10.0803,10.0803,10.0221,9.9581,9.9581,9.9581,9.9581,9.9581,9.9581,9.9581,9.9581,9.9581,9.9407,9.8909,9.8851,9.8534,9.7255,9.6673,9.5801,9.4114,9.2776,9.1962,9.1962,9.1962,9.1962,9.1962,9.1962,9.1787,9.1322,9.0507,8.9611,8.8762,8.789,8.6843,8.5563,8.5427,8.502,8.4148,8.4148,8.4148,8.4148,8.4148,8.4148,8.4148,8.4148,8.4148,0.0,0.0,7.201,7.5675,7.9514,8.308,8.5447,8.7926,8.9785,8.9901,9.0973,9.2252,9.3532,9.3707,9.4114,9.5597,9.5714,9.6033,9.734,9.7572,9.7197,9.6063,9.5888,9.4898,9.2369,9.5422,9.8619,10.1152,10.2548,10.3304,10.3304,10.3362,10.4002,10.5282,10.534,10.5922,10.7143,10.7143,10.7143,10.7143,10.7143,10.7201,10.7201,10.7201,10.7259,10.7259,10.7259,10.7259,10.7259,10.7259,10.7201,10.7201,10.7201,10.7143,10.7143,10.7143,10.5514,10.3304,10.3304,10.3304,10.3071,10.1792,10.1443,10.121,9.993,9.9581,9.9581,9.9581,9.9581,9.9581,9.9581,9.9581,9.9523,9.9523,9.9523,9.9465,9.9465,9.9465,9.9058,9.7747,9.7514,9.7197,9.6005,9.4782,9.3823,9.3823,9.2776,9.1962,9.1962,9.1962,9.1962,9.1903,9.1845,9.1322,9.0018,8.9843,8.8739,8.6319,8.6087,8.5505,8.4206,8.4148,8.4148,8.4148,8.4148,8.4148,8.4148,8.4148,8.4148,8.4148,8.4148,8.4148,7.4337,0.0,0.0,7.6373,7.9514,8.2614,8.3313,8.4633,8.6298,8.8239,8.9635,9.0682,9.1031,9.0275,9.0682,9.3881,9.2834,9.2718,9.5859,9.708,9.7456,9.7197,9.6324,9.5859,9.5945,9.7805,9.8942,9.8619,10.0745,10.2024,10.2024,10.2897,10.3537,10.3886,10.3944,10.4118,10.4467,10.4467,10.4467,10.4467,10.4467,10.4991,10.5922,10.5922,10.6387,10.7201,10.6329,10.6445,10.7201,10.6271,10.5922,10.5805,10.4816,10.4467,10.4467,10.4467,10.342,10.2024,10.2024,10.1385,10.057,10.0221,10.0105,9.9989,9.964,9.9581,9.9581,9.9581,9.9581,9.9581,9.9581,9.9581,9.9349,9.8328,9.8095,9.7953,9.7022,9.6789,9.6731,9.6382,9.6266,9.5859,9.4637,9.4114,9.3532,9.2601,9.2194,9.1962,9.1962,9.1962,9.1613,9.0682,8.9693,8.8995,8.8646,8.7774,8.6901,8.6203,8.5194,8.4497,8.4148,8.4148,8.4148,8.4148,8.4148,8.4148,8.4148,8.4148,8.4148,8.4148,8.4148,8.4148,6.9916,0.0,0.0,0.0,7.2301,7.5326,7.9107,8.1375,8.3237,8.5272,8.7541,8.9228,8.9228,8.9053,8.9635,9.1903,9.1438,9.1787,9.4666,9.5626,9.6352,9.7456,9.6557,9.6266,9.7456,9.8212,9.8619,9.8386,9.9814,10.0687,10.0687,10.1385,10.2024,10.2548,10.2606,10.2839,10.3362,10.3362,10.3362,10.3362,10.3362,10.3769,10.4526,10.4526,10.4933,10.5631,10.4875,10.4933,10.5573,10.4816,10.4526,10.4467,10.3653,10.3362,10.3246,10.2199,10.1326,10.0687,10.0687,10.0163,9.9581,9.9581,9.9581,9.9581,9.9581,9.9174,9.8677,9.8677,9.836,9.7953,9.7953,9.7953,9.7778,9.7022,9.6848,9.6673,9.6005,9.583,9.5714,9.519,9.4986,9.4579,9.3299,9.3067,9.2834,9.2078,9.1496,9.1147,9.1147,9.0682,9.0042,8.9286,8.853,8.7832,8.7308,8.6552,8.5912,8.5311,8.4555,8.4148,8.4148,8.4148,8.4148,8.4148,8.4148,8.4148,8.4148,8.4148,8.4148,8.4148,8.4148,8.3567,6.0261,0.0,0.0,5.9741,6.1775,6.4738,0.0,0.0,7.87,8.0169,8.3469,8.6203,8.6494,8.7774,8.8797,8.9344,9.0449,9.1787,9.3241,9.3707,9.4637,9.6701,9.615,9.6033,9.7224,9.734,9.7863,9.9232,9.9349,9.9407,9.9581,9.9581,9.993,10.0803,10.1094,10.1675,10.249,10.2839,10.2955,10.2955,10.2955,10.3013,10.3188,10.3188,10.3188,10.3188,10.3304,10.3304,10.3188,10.3188,10.3188,10.313,10.3013,10.2955,10.2664,10.0221,9.9349,9.9349,9.9174,9.9116,9.9116,9.9116,9.9116,9.9116,9.9116,9.8127,9.6933,9.6933,9.5975,9.5073,9.5364,9.5422,9.5481,9.5597,9.5655,9.5597,9.5481,9.5422,9.5073,9.3881,9.3648,9.3299,9.2136,9.1962,9.1845,9.1554,9.0566,8.9809,8.9809,8.8762,8.8006,8.7832,8.7832,8.7308,8.6029,8.5912,8.5369,8.4206,8.4148,8.4148,8.4148,8.4148,8.4148,8.4148,8.4148,8.4148,8.4148,8.4032,8.3974,8.3974,8.38,8.2597,0.0,0.0,0.0,0.0,0.0,0.0,0.0,0.0,6.561,6.7997,7.1545,7.4861,7.6838,7.9165,8.1782,8.4923,8.6494,8.8123,9.0449,9.2543,9.3648,9.3125,9.3765,9.4754,9.6033,9.615,9.6673,9.7863,9.7921,9.8386,9.9523,9.9581,9.8767,9.6994,9.8883,9.9058,9.7344,9.9291,10.0279,10.0279,10.0279,10.0861,10.185,10.185,10.185,10.1908,10.2955,10.2781,10.185,10.185,10.185,10.1734,10.0687,10.0279,10.0105,9.8502,9.7921,9.7805,9.6848,9.6587,9.6587,9.6587,9.6587,9.6587,9.6587,9.487,9.3067,9.3067,9.138,9.0042,9.2136,9.2718,9.295,9.3997,9.423,9.3939,9.2892,9.2718,9.2601,9.2369,9.2311,9.2252,9.202,9.1962,9.1264,8.9111,8.8588,8.8413,8.8413,8.8181,8.7657,8.661,8.6494,8.597,8.4613,8.4497,8.4439,8.4148,8.4148,8.4148,8.4148,8.4148,8.4148,8.4148,8.4148,8.4148,8.4148,8.3178,8.2789,8.2731,8.1666,8.091,0.0,0.0,0.0,0.0,0.0,0.0,0.0,0.0,0.0,0.0,0.0,6.7648,6.9509,0.0,7.7653,8.091,8.4051,8.6843,8.8762,9.074,9.1729,9.1089,9.1554,9.2718,9.4637,9.4898,9.5335,9.6615,9.6731,9.7022,9.7604,9.708,9.615,9.487,9.6673,9.708,9.5888,9.8302,9.9581,9.9581,9.9581,9.9872,10.0512,10.0512,10.0512,10.057,10.121,10.1094,10.0512,10.0512,10.0512,10.0338,9.8418,9.7662,9.7429,9.551,9.5626,9.644,9.4521,9.4782,9.583,9.583,9.583,9.583,9.583,9.4405,9.2892,9.2892,9.1496,9.0275,9.1613,9.1962,9.2136,9.2776,9.2892,9.2718,9.2078,9.1962,9.1962,9.1962,9.1962,9.1729,9.1089,9.0449,8.9577,8.8239,8.7483,8.7076,8.7076,8.6552,8.568,8.44,8.312,8.2597,8.3237,8.2131,8.2114,8.4032,8.3644,8.3295,8.3295,8.2655,8.2364,8.2364,8.2364,8.2364,8.2364,8.1724,8.145,8.1391,7.7478,7.5326,0.0,0.0,0.0,0.0,0.0,0.0,0.0,0.0,0.0,0.0,0.0,0.0,0.0,0.0,0.0,7.6547,8.1782,8.5912,8.7483,8.8588,8.9204,8.9204,8.9519,9.0449,9.2543,9.295,9.3648,9.5015,9.5364,9.5597,9.583,9.4898,9.3997,9.3474,9.4986,9.5597,9.5131,9.7546,9.8825,9.8825,9.8825,0.0,9.8825,9.8825,9.8709,9.8476,9.8709,9.8709,9.8476,9.8709,9.8825,9.8651,9.6557,9.583,9.5597,9.3183,9.3648,9.5131,9.2776,9.3299,9.5131,9.5131,9.5131,9.5131,9.5131,9.3939,0.0,9.2718,9.1438,9.0275,9.1031,9.0856,9.0624,9.138,9.138,9.1205,9.1205,9.0798,9.0624,9.1089,9.0798,9.0333,8.9751,8.7948,8.6319,8.5563,8.4807,8.4225,8.3935,8.3702,8.312,8.2148,8.0561,8.0445,8.2614,7.9921,7.9805,8.3644,8.1957,8.0693,8.0227,7.9237,7.8422,7.7898,7.7898,7.8351,7.9339,7.9049,7.8932,7.8758,7.0382,6.6717,0.0,0.0,0.0,0.0,0.0,0.0,0.0,0.0,0.0,0.0,0.0,0.0,0.0,0.0,0.0,0.0,7.8015,8.372,8.6029,8.6494,8.661,8.661,8.7599,8.8355,8.8646,8.9809,9.0973,9.2311,9.3416,9.4579,9.5772,9.5714,0.0,0.0,0.0,9.4782,9.2427,9.4928,9.6296,9.6296,9.6296,9.6296,9.6296,9.6296,9.5568,9.4579,9.5684,9.5655,9.4579,9.5742,9.6296,9.6238,9.5946,9.583,9.5655,9.4172,9.3823,9.3881,9.2427,0.0,0.0,9.2369,9.2369,9.2369,9.2369,9.0682,8.8704,8.8704,8.6145,8.4302,8.7599,8.6785,8.5892,8.9378,8.9344,8.8472,8.8472,8.6727,8.5717,8.8064,8.6727,8.5854,8.789,8.44,8.0096,7.6664,7.7013,7.7245,7.6082,7.8816,8.0794,8.0751,8.2422,0.0,8.3916,7.9557,7.8467,8.2381,7.8118,7.4512,7.2301,7.2069,7.0905,6.8641,6.8583,7.0795,7.5268,7.4163,7.3581,7.3232,5.7649,5.3987,0.0,0.0,0.0,0.0,0.0,0.0,0.0,0.0,0.0,0.0,0.0,0.0,0.0,0.0,0.0,0.0,7.172,7.7362,7.9165,8.1375,8.3644,8.5854,8.661,8.725,8.7948,8.853,8.9111,8.9635,9.0915,9.1903,9.2427,9.2427,9.1962,9.0856,9.2601,9.3009,9.1962,9.4549,9.583,9.583,9.583,9.583,9.583,9.583,9.5597,9.5073,9.5597,9.5539,9.5073,9.5655,9.583,9.5539,0.0,0.0,0.0,0.0,9.0507,9.0217,8.8181,8.8472,8.9693,8.9693,8.9693,8.9693,8.9693,8.8937,8.8064,8.8064,8.6901,8.6029,8.7657,8.725,8.6843,8.8472,8.8472,8.8064,8.8064,8.7192,8.6785,8.7832,8.661,0.0,8.3818,8.1915,7.9863,7.8234,7.9107,7.9747,7.9237,8.1201,8.2364,8.1683,8.1143,8.155,8.3004,7.9107,0.0,0.0,0.0,7.6082,7.4279,7.3465,0.0,0.0,0.0,6.4042,6.4681,6.0377,0.0,0.0,5.0036,4.7537,0.0,0.0,0.0,0.0,0.0,0.0,0.0,0.0,0.0,0.0,0.0,0.0,0.0,0.0,0.0,0.0,6.5612,7.0963,7.1894,7.5675,7.9339,8.2131,8.3702,8.4516,8.4342,8.597,8.7017,8.7017,8.853,8.9519,8.9519,8.9519,8.9519,8.9519,9.0391,9.0856,9.0856,9.2718,9.3734,9.3734,9.3734,9.3734,9.3734,9.3734,9.3559,9.321,9.3559,9.3559,9.321,9.3559,9.3734,9.3385,8.9519,8.8064,8.8064,8.8064,8.8064,8.7774,8.5912,8.6494,8.8064,8.8064,8.8064,8.8064,8.8064,8.8064,8.8064,8.8064,8.7774,8.7599,8.7948,8.7541,8.7076,8.7425,8.725,8.7017,8.7017,8.6145,8.5621,8.6319,8.5156,8.3062,7.9921,7.9107,7.8655,7.7943,7.8946,7.9645,7.9296,8.1259,8.2306,8.145,8.027,8.0328,8.2265,7.8176,7.7013,8.0635,7.7711,7.5791,7.5559,7.2941,7.0614,6.8869,6.346,5.9505,0.0,0.0,0.0,0.0,0.0,0.0,0.0,0.0,0.0,0.0,0.0,0.0,0.0,0.0,0.0,0.0,0.0,0.0,0.0,0.0,0.0,0.0,0.0,0.0,6.5379,6.9742,7.2999,7.3116,7.7536,7.9165,7.5384,8.0735,8.44,8.4264,8.6668,8.8123,8.8123,8.8123,8.8123,8.8123,8.8123,8.8181,8.8181,8.8239,8.8297,8.8297,8.8297,8.8297,8.8297,8.8297,8.7599,8.6494,8.7774,8.7599,8.6552,8.7774,8.8297,8.8297,8.8123,8.8064,8.8064,8.8064,8.8064,8.8006,8.7948,8.7948,8.8064,8.8064,8.8064,8.8064,8.8064,8.8064,8.8064,8.8064,8.7134,8.6494,8.7715,8.6203,8.4613,8.5912,8.5194,8.4264,8.4264,8.1433,7.9572,8.2148,8.0503,7.8351,7.6884,7.5675,7.3988,7.1603,7.2243,0.0,7.1429,7.5617,7.87,7.8641,8.0867,8.2323,8.2439,7.6489,7.3988,7.6664,7.2069,7.0382,7.2767,6.6892,6.3518,6.346,6.0726,5.8109,5.5666,0.0,0.0,0.0,0.0,0.0,0.0,0.0,0.0,0.0,0.0,0.0,0.0,0.0,0.0,0.0,0.0,0.0,0.0,0.0,0.0,0.0,0.0,0.0,0.0,6.4449,6.8637,7.1254,7.3057,7.3008,6.9922,7.3872,7.6606,7.6535,8.2131,8.5427,8.5427,8.7134,8.8064,8.8064,8.8064,8.8064,8.8064,8.8064,8.8064,8.8064,8.8064,8.8064,8.8064,8.8064,8.7832,8.7425,8.7832,8.7774,8.7425,8.789,8.7076,8.5427,8.5427,8.5427,8.5427,8.5427,8.5427,8.5427,8.5427,8.4982,8.4186,8.3295,8.3004,8.3004,8.3004,8.3662,8.4186,8.3237,8.3295,8.3702,8.4244,8.372,8.3062,8.3604,8.3295,8.2771,8.1899,8.0735,8.0037,8.0984,7.6955,7.2243,6.8404,7.1545,7.2883,6.7822,7.1778,7.5442,7.5908,7.8234,7.9805,7.9805,8.0635,8.0809,7.9863,7.7013,7.5326,7.5326,7.2127,7.0673,7.1487,6.8637,6.7066,6.7066,6.5321,5.9035,4.7973,0.0,0.0,0.0,0.0,0.0,0.0,0.0,0.0,0.0,0.0,0.0,0.0,0.0,0.0,0.0,0.0,0.0,0.0,0.0,0.0,0.0,0.0,0.0,0.0,0.0,0.0,6.7124,6.8288,0.0,6.4042,6.6659,6.8637,6.8637,7.4037,7.8163,7.9964,8.2131,8.4109,8.6049,8.6029,8.6203,8.6668,8.6668,8.6668,8.6668,8.6668,8.6668,8.6668,8.6668,8.6668,8.6668,8.6668,8.6668,8.661,8.5738,8.3295,8.0022,7.9557,7.8932,7.8234,7.9165,7.9674,8.0197,8.1126,8.1259,8.0867,7.9514,7.7885,7.6257,7.5791,7.5337,7.5035,7.6082,7.7374,7.8772,8.0576,8.1391,8.1741,8.1741,8.1741,8.1508,8.0693,7.899,7.7653,7.7653,7.4046,6.9277,6.41,6.7299,6.916,6.503,6.9044,7.3639,7.6722,7.8292,7.9107,7.9107,7.8641,7.806,7.7187,7.5966,7.4686,7.3406,7.1371,7.0033,6.9631,6.8288,6.6543,6.4274,6.2936,5.6066,0.0,0.0,0.0,0.0,0.0,0.0,0.0,0.0,0.0,0.0,0.0,0.0,0.0,0.0,0.0,0.0,0.0,0.0,0.0,0.0,0.0,0.0,0.0,0.0,0.0,0.0,0.0,6.067,6.2936,0.0,0.0,0.0,0.0,6.067,6.3227,6.6892,7.1778,7.3348,7.6373,8.1566,8.1857,8.2539,8.3974,8.4032,8.409,8.4148,8.4148,8.4148,8.4148,8.4148,8.4148,8.4148,8.4148,8.409,8.3741,8.1026,7.6955,7.2418,7.108,6.8986,6.7069,6.9631,7.1196,7.2534,7.5268,7.7013,7.7711,7.6373,7.265,6.8346,6.6778,6.3751,0.0,0.0,6.9218,7.1429,7.6606,7.8874,7.9936,8.0096,8.0227,8.0154,8.0169,7.614,7.2476,7.2069,7.0905,6.8288,6.2704,0.0,6.2355,6.2122,6.3634,6.7066,7.3348,7.55,7.6431,7.6431,7.5268,7.4512,7.4453,7.329,7.201,7.0789,6.9509,6.823,6.7011,6.5438,6.1773,5.5607,5.3912,0.0,0.0,0.0,0.0,0.0,0.0,0.0,0.0,0.0,0.0,0.0,0.0,0.0,0.0,0.0,0.0,0.0,0.0,0.0,0.0,0.0,0.0,0.0,0.0,0.0,0.0,4.9745,5.1953,5.52,5.4444,5.2059,0.0,0.0,0.0,0.0,0.0,0.0,6.2587,6.4856,6.8055,7.2301,7.4221,7.7187,8.1375,8.2364,8.3295,8.4148,8.4148,8.4148,8.4148,8.4148,8.4148,8.4148,8.4148,8.3102,8.091,7.457,7.1138,6.9626,6.6426,6.4158,6.2879,6.4565,6.4798,6.4796,6.9393,7.0498,6.9626,6.7357,6.5029,6.2239,5.7178,0.0,0.0,0.0,0.0,6.2355,6.8467,7.0271,7.1494,7.521,7.614,7.5849,7.4919,7.2941,6.9393,6.2704,5.9617,5.461,4.3643,4.7304,0.0,4.6665,5.4502,6.2413,6.695,7.1138,7.3697,7.3697,7.3406,7.2825,7.1952,7.0673,6.9393,6.8176,6.6834,6.5961,6.5612,6.0726,5.6875,5.4489,0.0,0.0,0.0,0.0,0.0,0.0,0.0,0.0,0.0,0.0,0.0,0.0,0.0,0.0,0.0,0.0,0.0,0.0,0.0,0.0,0.0,0.0,0.0,0.0,0.0,0.0,0.0,4.4399,4.7406,5.0721,4.8337,4.5603,0.0,0.0,0.0,0.0,0.0,0.0,0.0,0.0,0.0,6.3809,6.5321,6.7997,7.201,7.5559,7.7711,7.8409,8.1259,8.2597,8.2597,8.2597,8.2597,8.2539,8.1301,7.7827,7.2534,6.7648,6.3634,6.0203,0.0,0.0,0.0,0.0,5.4735,5.4975,5.8462,5.9621,5.9039,5.648,0.0,0.0,0.0,0.0,0.0,0.0,0.0,5.5433,6.1364,6.5439,6.8637,7.1487,7.172,7.1254,7.1138,6.4798,5.7696,5.2631,4.9603,4.473,3.5184,3.7739,0.0,0.0,0.0,5.6538,6.2646,6.8404,7.1952,7.1952,7.0905,6.9916,6.934,6.8055,6.7008,6.6312,6.4972,6.311,6.0587,5.6226,5.0544,0.0,0.0,0.0,0.0,0.0,0.0,0.0,0.0,0.0,0.0,0.0,0.0,0.0,0.0,0.0,0.0,0.0,0.0,0.0,0.0,0.0,0.0,0.0,0.0,0.0,0.0,0.0,0.0,0.0,4.3941,4.6385,0.0,0.0,0.0,0.0,0.0,0.0,0.0,0.0,0.0,0.0,0.0,0.0,0.0,5.7352,6.0206,6.6019,6.9044,6.9451,7.4977,7.7769,7.7885,7.7885,7.8118,7.8234,7.4802,0.0,6.2471,5.9973,0.0,0.0,0.0,0.0,0.0,0.0,0.0,0.0,0.0,0.0,0.0,0.0,0.0,0.0,0.0,0.0,0.0,0.0,0.0,0.0,0.0,0.0,6.5845,6.6368,6.5961,6.5438,6.5263,5.3688,4.3083,4.2268,4.0251,3.696,0.0,0.0,0.0,0.0,0.0,0.0,5.8636,6.5845,7.0149,7.0149,6.8113,6.6836,6.6836,6.5612,6.4798,6.4623,6.2645,5.9133,5.3817,5.1455,0.0,0.0,0.0,0.0,0.0,0.0,0.0,0.0,0.0,0.0,0.0,0.0,0.0,0.0,0.0,0.0,0.0,0.0,0.0,0.0,0.0,0.0,0.0,0.0,0.0,0.0,0.0,0.0,0.0,0.0,0.0,0.0,0.0,0.0,0.0,0.0,0.0,0.0,0.0,0.0,0.0,0.0,0.0,0.0,0.0,0.0,0.0,0.0,0.0,0.0,6.2471,6.3576,6.4564,6.4564,6.5787,6.7357,5.9446,5.7527,5.933,5.0663,0.0,0.0,0.0,0.0,0.0,0.0,0.0,0.0,0.0,0.0,0.0,0.0,0.0,0.0,0.0,0.0,0.0,0.0,0.0,0.0,0.0,0.0,4.9254,5.2408,5.5433,5.5317,4.7014,0.0,0.0,0.0,0.0,0.0,0.0,0.0,0.0,0.0,0.0,0.0,5.107,6.0203,6.6136,6.6136,6.5728,6.5438,6.5438,6.4274,6.3111,6.1949,5.6087,5.164,0.0,0.0,0.0,0.0,0.0,0.0,0.0,0.0,0.0,0.0,0.0,0.0,0.0,0.0,0.0,0.0,0.0,0.0,0.0,0.0,0.0,0.0,0.0,0.0,0.0,0.0,0.0,0.0,0.0,0.0,0.0,0.0,0.0,0.0,0.0,0.0,0.0,0.0,0.0,0.0,0.0,0.0,0.0,0.0,0.0,0.0,0.0,0.0,0.0,0.0,0.0,0.0,0.0,0.0,0.0,0.0,0.0,0.0,5.0823,4.5652,0.0,0.0,0.0,0.0,0.0,0.0,0.0,0.0,0.0,0.0,0.0,0.0,0.0,0.0,0.0,0.0,0.0,0.0,0.0,0.0,0.0,0.0,0.0,0.0,0.0,0.0,0.0,0.0,0.0,0.0,0.0,0.0,0.0,0.0,0.0,0.0,0.0,0.0,0.0,0.0,4.7972,5.7584,6.3767,6.3767,6.3974,6.3805,6.2857,6.178,5.9505,5.5498,5.1513,0.0,0.0,0.0,0.0,0.0,0.0,0.0,0.0,0.0,0.0,0.0,0.0,0.0,0.0,0.0,0.0,0.0,0.0,0.0,0.0,0.0,0.0,0.0,0.0,0.0,0.0,0.0,0.0,0.0,0.0,0.0,0.0,0.0,0.0,0.0,0.0,0.0,0.0,0.0,0.0,0.0,0.0,0.0,0.0,0.0,0.0,0.0,0.0,0.0,0.0,0.0,0.0,0.0,0.0,0.0,0.0,0.0,0.0,0.0,4.3356,3.5959,0.0,0.0,0.0,0.0,0.0,0.0,0.0,0.0,0.0,0.0,0.0,0.0,0.0,0.0,0.0,0.0,0.0,0.0,0.0,0.0,0.0,0.0,0.0,0.0,0.0,0.0,0.0,0.0,0.0,0.0,0.0,0.0,0.0,0.0,0.0,0.0,0.0,0.0,0.0,0.0,4.6204,5.5354,6.1383,6.1754,6.1824,6.1317,5.9968,5.9311,5.6073,4.9384,4.7133,0.0,0.0,0.0,0.0,0.0,0.0,0.0,0.0,0.0,0.0,0.0,0.0,0.0,0.0,0.0,0.0,0.0,0.0,0.0,0.0,0.0,0.0,0.0,0.0,0.0,0.0,0.0,0.0,0.0,0.0,0.0,0.0,0.0,0.0,0.0,0.0,0.0,0.0,0.0,0.0,0.0,0.0,0.0,0.0,0.0,0.0,0.0,0.0,0.0,0.0,0.0,0.0,0.0,0.0,0.0,0.0,0.0,0.0,0.0,0.0,0.0,0.0,0.0,0.0,0.0,0.0,0.0,0.0,0.0,0.0,0.0,0.0,0.0,0.0,0.0,0.0,0.0,0.0,0.0,0.0,0.0,0.0,0.0,0.0,0.0,0.0,0.0,0.0,0.0,0.0,0.0,0.0,0.0,0.0,0.0,0.0,0.0,0.0,0.0,0.0,0.0,4.3755,5.1762,5.7557,5.9055,5.8226,5.744,5.7326,5.7535,5.4386,4.6708,0.0,0.0,0.0,0.0,0.0,0.0,0.0,0.0,0.0,0.0,0.0,0.0,0.0,0.0,0.0,0.0,0.0,0.0,0.0,0.0,0.0,0.0,0.0,0.0,0.0,0.0,0.0,0.0,0.0,0.0,0.0,0.0,0.0,0.0,0.0,0.0,0.0,0.0,0.0,0.0,0.0,0.0,0.0,0.0,0.0,0.0,0.0,0.0,0.0,0.0,0.0,0.0,0.0,0.0,0.0,0.0,0.0,0.0,0.0,0.0,0.0,0.0,0.0,0.0,0.0,0.0,0.0,0.0,0.0,0.0,0.0,0.0,0.0,0.0,0.0,0.0,0.0,0.0,0.0,0.0,0.0,0.0,0.0,0.0,0.0,0.0,0.0,0.0,0.0,0.0,0.0,0.0,0.0,0.0,0.0,0.0,0.0,0.0,0.0,0.0,0.0,0.0,4.0413,4.8056,5.3266,5.3926,5.4324,5.4571,5.4511,5.4862,5.1126,4.19,0.0,0.0,0.0,0.0,0.0,0.0,0.0,0.0,0.0,0.0,0.0,0.0,0.0,0.0,0.0,0.0,0.0,0.0,0.0,0.0,0.0,0.0,0.0,0.0,0.0,0.0,0.0,0.0,0.0,0.0,0.0,0.0,0.0,0.0,0.0,0.0,0.0,0.0,0.0,0.0,0.0,0.0,0.0,0.0,0.0,0.0,0.0,0.0,0.0,0.0,0.0,0.0,0.0,0.0,0.0,0.0,0.0,0.0,0.0,0.0,0.0,0.0,0.0,0.0,0.0,0.0,0.0,0.0,0.0,0.0,0.0,0.0,0.0,0.0,0.0,0.0,0.0,0.0,0.0,0.0,0.0,0.0,0.0,0.0,0.0,0.0,0.0,0.0,0.0,0.0,0.0,0.0,0.0,0.0,0.0,0.0,0.0,0.0,0.0,0.0,0.0,0.0,3.7935,4.5209,5.0218,5.0701,5.1352,5.1952,5.2292,5.2654,4.8614,3.8624,0.0,0.0,0.0,0.0,0.0,0.0,0.0,0.0,0.0,0.0,0.0,0.0,0.0,0.0,0.0,0.0,0.0,0.0,0.0,0.0,0.0,0.0,0.0,0.0,0.0,0.0,0.0,0.0,0.0,0.0,0.0,0.0,0.0,0.0,0.0,0.0,0.0,0.0,0.0,0.0,0.0,0.0,0.0,0.0,0.0,0.0,0.0,0.0,0.0,0.0,0.0,0.0,0.0,0.0,0.0,0.0,0.0,0.0,0.0,0.0,0.0,0.0,0.0,0.0,0.0,0.0,0.0,0.0,0.0,0.0,0.0,0.0,0.0,0.0,0.0,0.0,0.0,0.0,0.0,0.0,0.0,0.0,0.0,0.0,0.0,0.0,0.0,0.0,0.0,0.0,0.0,0.0,0.0,0.0,0.0,0.0,0.0,0.0,0.0,0.0,0.0,0.0,3.6631,4.3634,4.8908,5.058,4.9554,4.9409,5.0832,5.1335,4.7405,0.0,0.0,0.0,0.0,0.0,0.0,0.0,0.0,0.0,0.0,0.0,0.0,0.0,0.0,0.0,0.0,0.0,0.0,0.0,0.0,0.0,0.0,0.0,0.0,0.0,0.0,0.0,0.0,0.0,0.0,0.0,0.0,0.0,0.0,0.0,0.0,0.0,0.0,0.0,0.0,0.0,0.0,0.0,0.0,0.0,0.0,0.0,0.0,0.0,0.0,0.0,0.0,0.0,0.0,0.0,0.0,0.0,0.0,0.0,0.0,0.0,0.0,0.0,0.0,0.0,0.0,0.0,0.0,0.0,0.0,0.0,0.0,0.0,0.0,0.0,0.0,0.0,0.0,0.0,0.0,0.0,0.0,0.0,0.0,0.0,0.0,0.0,0.0,0.0,0.0,0.0,0.0,0.0,0.0,0.0,0.0,0.0,0.0,0.0,0.0,0.0,0.0,0.0,3.3027,3.8267,4.2873,4.6402,4.6343,4.6784,4.8273,4.8592,4.5196,3.698,0.0,0.0,0.0,0.0,0.0,0.0,0.0,0.0,0.0,0.0,0.0,0.0,0.0,0.0,0.0,0.0,0.0,0.0,0.0,0.0,0.0,0.0,0.0,0.0,0.0,0.0,0.0,0.0,0.0,0.0,0.0,0.0,0.0,0.0,0.0,0.0,0.0,0.0,0.0,0.0,0.0,0.0,0.0,0.0,0.0,0.0,0.0,0.0,0.0,0.0,0.0,0.0,0.0,0.0,0.0,0.0,0.0,0.0,0.0,0.0,0.0,0.0,0.0,0.0,0.0,0.0,0.0,0.0,0.0,0.0,0.0,0.0,0.0,0.0,0.0,0.0,0.0,0.0,0.0,0.0,0.0,0.0,0.0,0.0,0.0,0.0,0.0,0.0,0.0,0.0,0.0,0.0,0.0,0.0,0.0,0.0,0.0,0.0,0.0,0.0,0.0,0.0,0.0,3.6655,4.1535,4.4552,4.4552,4.4891,4.6468,4.6256,4.3187,3.6281,0.0,0.0,0.0,0.0,0.0,0.0,0.0,0.0,0.0,0.0,0.0,0.0,0.0,0.0,0.0,0.0,0.0,0.0,0.0,0.0,0.0,0.0,0.0,0.0,0.0,0.0,0.0,0.0,0.0,0.0,0.0,0.0,0.0,0.0,0.0,0.0,0.0,0.0,0.0,0.0,0.0,0.0,0.0,0.0,0.0,0.0,0.0,0.0,0.0,0.0,0.0,0.0,0.0,0.0,0.0,0.0,0.0,0.0,0.0,0.0,0.0,0.0,0.0,0.0,0.0,0.0,0.0,0.0,0.0,0.0,0.0,0.0,0.0,0.0,0.0,0.0,0.0,0.0,0.0,0.0,0.0,0.0,0.0,0.0,0.0,0.0,0.0,0.0,0.0,0.0,0.0,0.0,0.0,0.0,0.0,0.0,0.0,0.0,0.0,0.0,0.0,0.0,0.0,3.7777,4.3236,4.4552,4.3772,4.3754,4.5131,4.4375,4.1312,3.5557,3.2274,0.0,0.0,0.0,0.0,0.0,0.0,0.0,0.0,0.0,0.0,0.0,0.0,0.0,0.0,0.0,0.0,0.0,0.0,0.0,0.0,0.0,0.0,0.0,0.0,0.0,0.0,0.0,0.0,0.0,0.0,0.0,0.0,0.0,0.0,0.0,0.0,0.0,0.0,0.0,0.0,0.0,0.0,0.0,0.0,0.0,0.0,0.0,0.0,0.0,0.0,0.0,0.0,0.0,0.0,0.0,0.0,0.0,0.0,0.0,0.0,0.0,0.0,0.0,0.0,0.0,0.0,0.0,0.0,0.0,0.0,0.0,0.0,0.0,0.0,0.0,0.0,0.0,0.0,0.0,0.0,0.0,0.0,0.0,0.0,0.0,0.0,0.0,0.0,0.0,0.0,0.0,0.0,0.0,0.0,0.0,0.0,0.0,0.0,0.0,0.0,0.0,0.0,3.5532,3.8607,4.2121,4.2316,4.2285,4.2666,4.2573,3.9781,3.3523,3.0653,0.0,0.0,0.0,0.0,0.0,0.0,0.0,0.0,0.0,0.0,0.0,0.0,0.0,0.0,0.0,0.0,0.0,0.0,0.0,0.0,0.0,0.0,0.0,0.0,0.0,0.0,0.0,0.0,0.0,0.0,0.0,0.0,0.0,0.0,0.0,0.0,0.0,0.0,0.0,0.0,0.0,0.0,0.0,0.0,0.0,0.0,0.0,0.0,0.0,0.0,0.0,0.0,0.0,0.0,0.0,0.0,0.0,0.0,0.0,0.0,0.0,0.0,0.0,0.0,0.0,0.0,0.0,0.0,0.0,0.0,0.0,0.0,0.0,0.0,0.0,0.0,0.0,0.0,0.0,0.0,0.0,0.0,0.0,0.0,0.0,0.0,0.0,0.0,0.0,0.0,0.0,0.0,0.0,0.0,0.0,0.0,0.0,0.0,0.0,0.0,0.0,0.0,3.0153,3.4308,4.1047,4.1394,4.1101,4.1101,4.0645,3.7921,3.2026,2.9327,0.0,0.0,0.0,0.0,0.0,0.0,0.0,0.0,0.0,0.0,0.0,0.0,0.0,0.0,0.0,0.0,0.0,0.0,0.0,0.0,0.0,0.0,0.0,0.0,0.0,0.0,0.0,0.0,0.0,0.0,0.0,0.0,0.0,0.0,0.0,0.0,0.0,0.0,0.0,0.0,0.0,0.0,0.0,0.0,0.0,0.0,0.0,0.0,0.0,0.0,0.0,0.0,0.0,0.0,0.0,0.0,0.0,0.0,0.0,0.0,0.0,0.0,0.0,0.0,0.0,0.0,0.0,0.0,0.0,0.0,0.0,0.0,0.0,0.0,0.0,0.0,0.0,0.0,0.0,0.0,0.0,0.0,0.0,0.0,0.0,0.0,0.0,0.0,0.0,0.0,0.0,0.0,0.0,0.0,0.0,0.0,0.0,0.0,0.0,0.0,0.0,0.0,0.0,3.0927,3.9388,4.0123,3.9977,3.9977,3.9046,3.6182,3.076,0.0,0.0,0.0,0.0,0.0,0.0,0.0,0.0,0.0,0.0,0.0,0.0,0.0,0.0,0.0,0.0,0.0,0.0,0.0,0.0,0.0,0.0,0.0,0.0,0.0,0.0,0.0,0.0,0.0,0.0,0.0,0.0,0.0,0.0,0.0,0.0,0.0,0.0,0.0,0.0,0.0,0.0,0.0,0.0,0.0,0.0,0.0,0.0,0.0,0.0,0.0,0.0,0.0,0.0,0.0,0.0,0.0,0.0,0.0,0.0,0.0,0.0,0.0,0.0,0.0,0.0,0.0,0.0,0.0,0.0,0.0,0.0,0.0,0.0,0.0,0.0,0.0,0.0,0.0,0.0,0.0,0.0,0.0,0.0,0.0,0.0,0.0,0.0,0.0,0.0,0.0,0.0,0.0,0.0,0.0,0.0,0.0,0.0,0.0,0.0,0.0,0.0,0.0,0.0,2.9958,3.3195,3.6703,3.8753,3.8753,3.8607,3.5794,2.9447,0.0,0.0,0.0,0.0,0.0,0.0,0.0,0.0,0.0,0.0,0.0,0.0,0.0,0.0]}]]]